[[{"header":{"parameterUnit":"m.s-1","parameterCategory":1,"la1":30.6,"la2":28.766,"lo1":-90.7593,"lo2":-88.6598,"dy":0.0162,"dx":0.0183,"nx":116,"ny":114,"refTime":"2023-08-10T12:00:00:Z","depth":0,"parameterNumber":2,"parameterNumberName":"U-component_of_WINDS"},"data":[0.0,0.0,0.0,0.0,0.0,0.0,0.0,0.0,0.0,0.0,0.0,0.0,0.0,0.0,0.0,0.0,0.0,0.0,0.0,0.0,0.0,0.0,0.0,0.0,0.0,0.0,0.0,0.0,0.0,0.0,0.0,0.0,0.0,0.0,0.0,0.0,0.0,0.0,0.0,0.0,0.0,0.0,0.0,0.0,0.0,0.0,0.0,0.0,0.0,0.0,0.0,0.0,0.0,0.0,0.0,0.0,0.0,0.0,0.0,0.0,0.0,0.0,0.0,0.0,0.0,0.0,0.0,0.0,0.0,0.0,0.0,0.0,0.0,0.0,0.0,0.0,0.0,0.0,0.0,0.0,0.0,0.0,0.0,0.0,0.0,0.0,0.0,0.0,0.0,0.0,0.0,0.0,0.0,0.0,0.0,0.0,0.0,0.0,0.0,0.0,0.0,0.0,0.0,0.0,0.0,0.0,0.0,0.0,0.0,0.0,0.0,0.0,0.0,0.0,0.0,0.0,0.0,0.0,0.0,0.0,0.0,0.0,0.0,0.0,0.0,0.0,0.0,0.0,0.0,0.0,0.0,0.0,0.0,0.0,0.0,0.0,0.0,0.0,0.0,0.0,0.0,0.0,0.0,0.0,0.0,0.0,0.0,0.0,0.0,0.0,0.0,0.0,0.0,0.0,0.0,0.0,0.0,0.0,0.0,0.0,0.0,0.0,0.0,0.0,0.0,0.0,0.0,0.0,0.0,0.0,0.0,0.0,0.0,0.0,0.0,0.0,0.0,0.0,0.0,0.0,0.0,0.0,0.0,0.0,0.0,0.0,0.0,0.0,0.0,0.0,0.0,0.0,0.0,0.0,0.0,0.0,0.0,0.0,0.0,0.0,0.0,0.0,0.0,0.0,0.0,0.0,0.0,0.0,0.0,0.0,0.0,0.0,0.0,0.0,0.0,0.0,0.0,0.0,0.0,0.0,0.0,0.0,0.0,0.0,0.0,0.0,0.0,0.0,0.0,0.0,0.0,0.0,0.0,0.0,0.0,0.0,0.0,0.0,0.0,0.0,0.0,0.0,0.0,0.0,0.0,0.0,0.0,0.0,0.0,0.0,0.0,0.0,0.0,0.0,0.0,0.0,0.0,0.0,0.0,0.0,0.0,0.0,0.0,0.0,0.0,0.0,0.0,0.0,0.0,0.0,0.0,0.0,0.0,0.0,0.0,0.0,0.0,0.0,0.0,0.0,0.0,0.0,0.0,0.0,0.0,0.0,0.0,0.0,0.0,0.0,0.0,0.0,0.0,0.0,0.0,0.0,0.0,0.0,0.0,0.0,0.0,0.0,0.0,0.0,0.0,0.0,0.0,0.0,0.0,0.0,0.0,0.0,0.0,0.0,0.0,0.0,0.0,0.0,0.0,0.0,0.0,0.0,0.0,0.0,0.0,0.0,0.0,0.0,0.0,0.0,0.0,0.0,0.0,0.0,0.0,0.0,0.0,0.0,0.0,0.0,0.0,0.0,0.0,0.0,0.0,0.0,0.0,0.0,0.0,0.0,0.0,0.0,0.0,0.0,0.0,0.0,0.0,0.0,0.0,0.0,0.0,0.0,0.0,0.0,0.0,0.0,0.0,0.0,0.0,0.0,0.0,0.0,0.0,0.0,0.0,0.0,0.0,0.0,0.0,0.0,0.0,0.0,0.0,0.0,0.0,0.0,0.0,0.0,0.0,0.0,0.0,0.0,0.0,0.0,0.0,0.0,0.0,0.0,0.0,0.0,0.0,0.0,0.0,0.0,0.0,0.0,0.0,0.0,0.0,0.0,0.0,0.0,0.0,0.0,0.0,0.0,0.0,0.0,0.0,0.0,0.0,0.0,0.0,0.0,0.0,0.0,0.0,0.0,0.0,0.0,0.0,0.0,0.0,0.0,0.0,0.0,0.0,0.0,0.0,0.0,0.0,0.0,0.0,0.0,0.0,0.0,0.0,0.0,0.0,0.0,0.0,0.0,0.0,0.0,0.0,0.0,0.0,0.0,0.0,0.0,0.0,0.0,0.0,0.0,0.0,0.0,0.0,0.0,0.0,0.0,0.0,0.0,0.0,0.0,0.0,0.0,0.0,0.0,0.0,0.0,0.0,0.0,0.0,0.0,0.0,0.0,0.0,0.0,0.0,0.0,0.0,0.0,0.0,0.0,0.0,0.0,0.0,0.0,0.0,0.0,0.0,0.0,0.0,0.0,0.0,0.0,0.0,0.0,0.0,0.0,0.0,0.0,0.0,0.0,0.0,0.0,0.0,0.0,0.0,0.0,0.0,0.0,0.0,0.0,0.0,0.0,0.0,0.0,0.0,0.0,0.0,0.0,0.0,0.0,0.0,0.0,0.0,0.0,0.0,0.0,0.0,0.0,0.0,0.0,0.0,0.0,0.0,0.0,0.0,0.0,0.0,0.0,0.0,0.0,0.0,0.0,0.0,0.0,0.0,0.0,0.0,0.0,0.0,0.0,0.0,0.0,0.0,0.0,0.0,0.0,0.0,0.0,0.0,0.0,0.0,0.0,0.0,0.0,0.0,0.0,0.0,0.0,0.0,0.0,0.0,0.0,0.0,0.0,0.0,0.0,0.0,0.0,0.0,0.0,0.0,0.0,0.0,0.0,0.0,0.0,0.0,0.0,0.0,0.0,0.0,0.0,0.0,0.0,0.0,0.0,0.0,0.0,0.0,0.0,0.0,0.0,0.0,0.0,0.0,0.0,0.0,0.0,0.0,0.0,0.0,0.0,0.0,0.0,0.0,0.0,0.0,0.0,0.0,0.0,0.0,0.0,0.0,0.0,0.0,0.0,0.0,0.0,0.0,0.0,0.0,0.0,0.0,0.0,0.0,0.0,0.0,0.0,0.0,0.0,0.0,0.0,0.0,0.0,0.0,0.0,0.0,0.0,0.0,0.0,0.0,0.0,0.0,0.0,0.0,0.0,0.0,0.0,0.0,0.0,0.0,0.0,0.0,0.0,0.0,0.0,0.0,0.0,0.0,0.0,0.0,0.0,0.0,0.0,0.0,0.0,0.0,0.0,0.0,0.0,0.0,0.0,0.0,0.0,0.0,0.0,0.0,0.0,0.0,0.0,0.0,0.0,0.0,0.0,0.0,0.0,0.0,0.0,0.0,0.0,0.0,0.0,0.0,0.0,0.0,0.0,0.0,0.0,0.0,0.0,0.0,0.0,0.0,0.0,0.0,0.0,0.0,0.0,0.0,0.0,0.0,0.0,0.0,0.0,0.0,0.0,0.0,0.0,0.0,0.0,0.0,0.0,0.0,0.0,0.0,0.0,0.0,0.0,0.0,0.0,0.0,0.0,0.0,0.0,0.0,0.0,0.0,0.0,0.0,0.0,0.0,0.0,0.0,0.0,0.0,0.0,0.0,0.0,0.0,0.0,0.0,0.0,0.0,0.0,0.0,0.0,0.0,0.0,0.0,0.0,0.0,0.0,0.0,0.0,0.0,0.0,0.0,0.0,0.0,0.0,0.0,0.0,0.0,0.0,0.0,0.0,0.0,0.0,0.0,0.0,0.0,0.0,0.0,0.0,0.0,0.0,0.0,0.0,0.0,0.0,0.0,0.0,0.0,0.0,0.0,0.0,0.0,0.0,0.0,0.0,0.0,0.0,0.0,0.0,0.0,0.0,0.0,0.0,0.0,0.0,0.0,0.0,0.0,0.0,0.0,0.0,0.0,0.0,0.0,0.0,0.0,0.0,0.0,0.0,0.0,0.0,0.0,0.0,0.0,0.0,0.0,0.0,0.0,0.0,0.0,0.0,0.0,0.0,0.0,0.0,0.0,0.0,0.0,0.0,0.0,0.0,0.0,0.0,0.0,0.0,0.0,0.0,0.0,0.0,0.0,0.0,0.0,0.0,0.0,0.0,0.0,0.0,0.0,0.0,0.0,0.0,0.0,0.0,0.0,0.0,0.0,0.0,0.0,0.0,0.0,0.0,0.0,0.0,0.0,0.0,0.0,0.0,0.0,0.0,0.0,0.0,0.0,0.0,0.0,0.0,0.0,0.0,0.0,0.0,0.0,0.0,0.0,0.0,0.0,0.0,0.0,0.0,0.0,0.0,0.0,0.0,0.0,0.0,0.0,0.0,0.0,0.0,0.0,0.0,0.0,0.0,0.0,0.0,0.0,0.0,0.0,0.0,0.0,0.0,0.0,0.0,0.0,0.0,0.0,0.0,0.0,0.0,0.0,0.0,0.0,0.0,0.0,0.0,0.0,0.0,0.0,0.0,0.0,0.0,0.0,0.0,0.0,0.0,0.0,0.0,0.0,0.0,0.0,0.0,0.0,0.0,0.0,0.0,0.0,0.0,0.0,0.0,0.0,0.0,0.0,0.0,0.0,0.0,0.0,0.0,0.0,0.0,0.0,0.0,0.0,0.0,0.0,0.0,0.0,0.0,0.0,0.0,0.0,0.0,0.0,0.0,0.0,0.0,0.0,0.0,0.0,0.0,0.0,0.0,0.0,0.0,0.0,0.0,0.0,0.0,0.0,0.0,0.0,0.0,0.0,0.0,0.0,0.0,0.0,0.0,0.0,0.0,0.0,0.0,0.0,0.0,0.0,0.0,0.0,0.0,0.0,0.0,0.0,0.0,0.0,0.0,0.0,0.0,0.0,0.0,0.0,0.0,0.0,0.0,0.0,0.0,0.0,0.0,0.0,0.0,0.0,0.0,0.0,0.0,0.0,0.0,0.0,0.0,0.0,0.0,0.0,0.0,0.0,0.0,0.0,0.0,0.0,0.0,0.0,0.0,0.0,0.0,0.0,0.0,0.0,0.0,0.0,0.0,0.0,0.0,0.0,0.0,0.0,0.0,0.0,0.0,0.0,0.0,0.0,0.0,0.0,0.0,0.0,0.0,0.0,0.0,0.0,0.0,0.0,0.0,0.0,0.0,0.0,0.0,0.0,0.0,0.0,0.0,0.0,0.0,0.0,0.0,0.0,0.0,0.0,0.0,0.0,0.0,0.0,0.0,0.0,0.0,0.0,0.0,0.0,0.0,0.0,0.0,0.0,0.0,0.0,0.0,0.0,0.0,0.0,0.0,0.0,0.0,0.0,0.0,0.0,0.0,0.0,0.0,0.0,0.0,0.0,0.0,0.0,0.0,0.0,0.0,0.0,0.0,0.0,0.0,0.0,0.0,0.0,0.0,0.0,0.0,0.0,0.0,0.0,0.0,0.0,0.0,0.0,0.0,0.0,0.0,0.0,0.0,0.0,0.0,0.0,0.0,0.0,0.0,0.0,0.0,0.0,0.0,0.0,0.0,0.0,0.0,0.0,0.0,0.0,0.0,0.0,0.0,0.0,0.0,0.0,0.0,0.0,0.0,0.0,0.0,0.0,0.0,0.0,0.0,0.0,0.0,0.0,0.0,0.0,0.0,0.0,0.0,0.0,0.0,0.0,0.0,0.0,0.0,0.0,0.0,0.0,0.0,0.0,0.0,0.0,0.0,0.0,0.0,0.0,0.0,0.0,0.0,0.0,0.0,0.0,0.0,0.0,0.0,0.0,0.0,0.0,0.0,0.0,0.0,0.0,0.0,0.0,0.0,0.0,0.0,0.0,0.0,0.0,0.0,0.0,0.0,0.0,0.0,0.0,0.0,0.0,0.0,0.0,0.0,0.0,0.0,0.0,0.0,0.0,0.0,0.0,0.0,0.0,0.0,0.0,0.0,0.0,0.0,0.0,0.0,0.0,0.0,0.0,0.0,0.0,0.0,0.0,0.0,0.0,0.0,0.0,0.0,0.0,0.0,0.0,0.0,0.0,0.0,0.0,0.0,0.0,0.0,0.0,0.0,0.0,0.0,0.0,0.0,0.0,0.0,0.0,0.0,0.0,0.0,0.0,0.0,0.0,0.0,0.0,0.0,0.0,0.0,0.0,0.0,0.0,0.0,0.0,0.0,0.0,0.0,0.0,0.0,0.0,0.0,0.0,0.0,0.0,0.0,0.0,0.0,0.0,0.0,0.0,0.0,0.0,0.0,0.0,0.0,0.0,0.0,0.0,0.0,0.0,0.0,0.0,0.0,0.0,0.0,0.0,0.0,0.0,0.0,0.0,0.0,-3.6372,-3.5571,0.0,0.0,0.0,0.0,0.0,0.0,0.0,0.0,0.0,0.0,0.0,0.0,0.0,0.0,0.0,0.0,0.0,0.0,0.0,0.0,0.0,0.0,0.0,0.0,0.0,0.0,0.0,0.0,0.0,0.0,0.0,0.0,0.0,0.0,0.0,0.0,0.0,0.0,0.0,0.0,0.0,0.0,0.0,0.0,0.0,0.0,0.0,0.0,0.0,0.0,0.0,0.0,0.0,0.0,0.0,0.0,0.0,0.0,0.0,0.0,0.0,0.0,0.0,0.0,0.0,0.0,0.0,0.0,0.0,0.0,0.0,0.0,0.0,0.0,0.0,0.0,0.0,0.0,0.0,0.0,0.0,0.0,0.0,0.0,0.0,0.0,0.0,0.0,0.0,0.0,0.0,0.0,0.0,0.0,0.0,0.0,0.0,0.0,0.0,0.0,0.0,0.0,0.0,0.0,0.0,0.0,0.0,0.0,0.0,0.0,0.0,0.0,0.0,0.0,-3.7638,-3.695,0.0,0.0,0.0,0.0,0.0,0.0,0.0,0.0,0.0,0.0,0.0,0.0,0.0,0.0,0.0,0.0,0.0,0.0,0.0,0.0,0.0,0.0,0.0,0.0,0.0,0.0,0.0,0.0,0.0,0.0,0.0,0.0,0.0,0.0,0.0,0.0,0.0,0.0,0.0,0.0,0.0,0.0,0.0,0.0,0.0,0.0,0.0,0.0,0.0,0.0,0.0,0.0,0.0,0.0,0.0,0.0,0.0,0.0,0.0,0.0,0.0,0.0,0.0,0.0,0.0,0.0,0.0,0.0,0.0,0.0,0.0,0.0,0.0,0.0,0.0,0.0,0.0,0.0,0.0,0.0,0.0,0.0,0.0,0.0,0.0,0.0,0.0,0.0,0.0,0.0,0.0,0.0,0.0,0.0,0.0,0.0,0.0,0.0,0.0,0.0,0.0,0.0,0.0,0.0,0.0,0.0,0.0,0.0,-3.9868,-4.0096,-4.0133,-4.0304,-4.0079,-3.96,-3.8933,-3.8479,-3.815,-3.6989,0.0,0.0,0.0,0.0,0.0,0.0,0.0,0.0,0.0,0.0,0.0,0.0,0.0,0.0,0.0,0.0,0.0,0.0,0.0,0.0,0.0,0.0,0.0,0.0,0.0,0.0,0.0,0.0,0.0,0.0,0.0,0.0,0.0,0.0,0.0,0.0,0.0,0.0,-2.7303,-2.7666,-2.7189,-2.6085,0.0,0.0,0.0,0.0,0.0,0.0,0.0,0.0,0.0,0.0,0.0,0.0,0.0,0.0,0.0,0.0,0.0,0.0,0.0,0.0,0.0,0.0,0.0,0.0,0.0,0.0,0.0,0.0,0.0,0.0,0.0,0.0,0.0,0.0,0.0,0.0,0.0,0.0,0.0,0.0,0.0,0.0,0.0,0.0,-3.098,-3.1654,0.0,0.0,0.0,0.0,0.0,0.0,0.0,0.0,0.0,0.0,0.0,0.0,0.0,-3.8584,-3.7834,-4.0142,-4.0816,-3.9929,-4.2142,-4.2322,-4.0717,-4.1496,-4.1769,-4.1632,-4.051,0.0,-3.7616,-3.7426,0.0,0.0,0.0,0.0,0.0,0.0,0.0,0.0,0.0,0.0,0.0,0.0,0.0,0.0,0.0,0.0,0.0,0.0,0.0,0.0,0.0,0.0,0.0,0.0,0.0,0.0,0.0,0.0,0.0,0.0,0.0,0.0,0.0,0.0,0.0,0.0,-2.8662,-2.8633,-2.7918,-2.7908,-2.7186,-2.5862,-2.5416,-2.476,-2.3945,-2.3069,0.0,0.0,0.0,0.0,0.0,0.0,0.0,0.0,0.0,0.0,0.0,0.0,0.0,0.0,0.0,0.0,0.0,0.0,0.0,0.0,0.0,0.0,0.0,0.0,0.0,0.0,0.0,0.0,0.0,0.0,0.0,0.0,0.0,0.0,0.0,0.0,0.0,0.0,0.0,-3.1285,-3.1576,-3.2419,-3.2154,-3.2027,0.0,0.0,0.0,0.0,0.0,0.0,0.0,0.0,0.0,-3.743,-3.846,-3.8833,-3.845,-3.9853,-4.0553,-4.0517,-4.1639,-4.1855,-4.1263,-4.1638,-4.1717,-4.1508,-4.0996,-3.9858,-3.8391,-3.823,-3.7509,-3.6404,0.0,0.0,0.0,0.0,-3.3915,-3.3239,0.0,0.0,0.0,0.0,0.0,0.0,0.0,0.0,0.0,0.0,0.0,0.0,0.0,0.0,0.0,0.0,0.0,0.0,0.0,0.0,0.0,0.0,0.0,0.0,0.0,0.0,0.0,0.0,-2.8439,-2.8492,-2.7958,-2.7903,-2.7168,-2.5829,-2.5233,-2.4489,-2.3634,-2.2786,-2.196,0.0,0.0,0.0,0.0,0.0,0.0,0.0,0.0,0.0,0.0,0.0,0.0,0.0,0.0,0.0,0.0,0.0,0.0,0.0,0.0,0.0,0.0,0.0,0.0,0.0,0.0,0.0,0.0,0.0,0.0,0.0,0.0,0.0,0.0,0.0,0.0,0.0,0.0,-3.1787,-3.2119,-3.3199,-3.3087,-3.3005,0.0,0.0,0.0,0.0,0.0,0.0,-3.5718,-3.6603,-3.7382,-3.8182,-3.901,-3.9299,-3.9011,-3.9826,-4.0405,-4.0747,-4.0747,-4.0907,-4.1144,-4.0736,-4.0522,-4.0469,-3.9932,-3.9246,-3.8522,-3.8496,-3.7838,-3.6734,-3.579,-3.5315,-3.5127,-3.5244,-3.4797,-3.422,0.0,0.0,0.0,0.0,0.0,0.0,0.0,0.0,0.0,0.0,0.0,0.0,0.0,0.0,0.0,0.0,0.0,0.0,0.0,0.0,0.0,0.0,0.0,0.0,0.0,0.0,0.0,-2.6953,-2.7752,-2.7684,-2.6808,-2.7561,-2.722,-2.5961,-2.4784,-2.3342,-2.1838,-2.1791,-2.1037,-1.9901,0.0,0.0,0.0,0.0,0.0,0.0,0.0,0.0,0.0,0.0,0.0,0.0,0.0,0.0,0.0,0.0,0.0,0.0,0.0,0.0,0.0,0.0,0.0,0.0,0.0,0.0,0.0,0.0,0.0,0.0,0.0,0.0,0.0,0.0,0.0,0.0,0.0,0.0,0.0,-3.4042,-3.349,0.0,0.0,0.0,0.0,-3.4077,-3.4122,-3.4872,-3.6546,-3.7469,-3.8204,-3.8728,-4.0329,-4.0646,-3.9566,-4.1175,-4.1437,-4.0328,-4.0402,-4.0261,-3.9913,-3.8419,-3.8113,-3.8695,-3.6726,-3.6262,-3.6985,-3.7657,-3.7631,-3.7031,-3.5737,-3.5654,-3.6098,-3.4243,-3.3948,-3.4193,0.0,0.0,0.0,0.0,0.0,0.0,0.0,0.0,0.0,0.0,0.0,0.0,0.0,0.0,0.0,0.0,0.0,0.0,0.0,0.0,0.0,0.0,0.0,0.0,0.0,0.0,-2.6281,-2.6458,-2.7044,-2.717,-2.6838,-2.6501,-2.5779,-2.4728,-2.3872,-2.2589,-2.1139,-2.1145,-2.0607,-1.9697,-1.9242,-1.8821,0.0,0.0,0.0,0.0,0.0,0.0,0.0,0.0,0.0,0.0,0.0,0.0,0.0,0.0,0.0,0.0,0.0,0.0,0.0,0.0,0.0,0.0,0.0,0.0,0.0,0.0,0.0,0.0,0.0,0.0,0.0,0.0,0.0,0.0,0.0,0.0,0.0,-3.4873,-3.4795,0.0,-3.5007,-3.4269,-3.4128,-3.4968,-3.4526,-3.493,-3.6622,-3.683,-3.7252,-3.8002,-3.8215,-3.8136,-3.7735,-3.8167,-3.8146,-3.7718,-3.7747,-3.7679,-3.7551,-3.6982,-3.6717,-3.6653,-3.5928,-3.5429,-3.5116,-3.4887,-3.4971,-3.5238,-3.4727,-3.4536,-3.4396,-3.3677,-3.3043,-3.2517,0.0,0.0,0.0,0.0,0.0,0.0,0.0,0.0,0.0,0.0,0.0,0.0,0.0,0.0,0.0,0.0,0.0,0.0,0.0,0.0,0.0,0.0,0.0,0.0,0.0,-2.577,-2.589,-2.5736,-2.6314,-2.6414,-2.602,-2.5533,-2.4769,-2.3717,-2.2727,-2.158,-2.0346,-1.9989,-1.9623,-1.931,-1.8862,-1.8286,-1.7611,0.0,0.0,0.0,0.0,0.0,0.0,0.0,0.0,0.0,0.0,0.0,0.0,0.0,0.0,0.0,0.0,0.0,0.0,0.0,0.0,0.0,0.0,0.0,0.0,0.0,0.0,0.0,0.0,0.0,0.0,0.0,0.0,0.0,0.0,-3.3141,-3.3872,-3.5334,-3.5493,-3.5493,-3.5493,-3.4988,-3.4845,-3.533,-3.4832,-3.507,-3.6367,-3.6269,-3.6502,-3.7277,-3.6902,-3.667,-3.6578,-3.639,-3.6303,-3.6303,-3.6009,-3.5862,-3.5844,-3.518,-3.4714,-3.437,-3.3813,-3.3244,-3.2607,-3.1958,-3.1987,-3.2504,-3.2982,-3.2952,-3.2587,-3.2193,-3.1466,-3.0773,0.0,0.0,0.0,0.0,0.0,0.0,0.0,0.0,0.0,0.0,0.0,0.0,0.0,0.0,0.0,0.0,0.0,0.0,0.0,0.0,0.0,0.0,0.0,0.0,-2.5468,-2.5356,-2.5149,-2.4812,-2.5594,-2.5375,-2.4272,-2.4636,-2.4167,-2.293,-2.1311,-2.0215,-1.9428,-1.8325,-1.8111,-1.8519,-1.8596,-1.8167,-1.7401,0.0,0.0,0.0,0.0,0.0,0.0,0.0,0.0,0.0,0.0,0.0,0.0,0.0,0.0,0.0,0.0,0.0,0.0,0.0,0.0,0.0,0.0,0.0,0.0,0.0,0.0,0.0,0.0,0.0,0.0,0.0,0.0,0.0,-3.2833,-3.366,-3.4526,-3.5378,-3.5493,-3.5493,-3.5493,-3.5493,-3.5383,-3.5122,-3.5066,-3.5266,-3.5792,-3.579,-3.602,-3.6572,-3.6547,-3.643,-3.6174,-3.6156,-3.6138,-3.6138,-3.5293,-3.488,-3.4797,-3.2928,-3.205,-3.1939,-3.0296,-2.9589,-2.9555,-2.9123,-2.8941,-2.9093,-3.0548,-3.1123,-3.0982,-2.9752,-2.923,-2.9033,0.0,0.0,0.0,0.0,0.0,0.0,0.0,0.0,0.0,0.0,0.0,0.0,0.0,0.0,0.0,0.0,0.0,0.0,0.0,0.0,0.0,0.0,0.0,0.0,-2.4839,-2.5245,-2.535,-2.5163,-2.5133,-2.4673,-2.3785,-2.3005,-2.2023,-2.0777,-1.9308,-1.8105,-1.7125,-1.6588,-1.5848,-1.5169,-1.5905,-1.5773,-1.5061,0.0,0.0,0.0,0.0,0.0,0.0,0.0,0.0,0.0,0.0,0.0,0.0,0.0,0.0,0.0,0.0,0.0,0.0,0.0,0.0,0.0,0.0,0.0,0.0,0.0,0.0,0.0,0.0,0.0,0.0,0.0,-3.1959,-3.3151,-3.3755,-3.4045,-3.4466,-3.5127,-3.5383,-3.5432,-3.5223,-3.5383,-3.5383,-3.5122,-3.4511,-3.4141,-3.4073,-3.3346,-3.325,-3.3976,-3.3241,-3.3084,-3.3623,-3.3036,-3.2742,-3.2724,-3.2504,-3.2245,-3.2028,-3.1464,-3.0885,-3.0246,-2.9809,-2.942,-2.9106,-2.8437,-2.7914,-2.774,-2.91,-2.9583,-2.9512,-2.8788,-2.7997,-2.6945,0.0,0.0,0.0,0.0,0.0,0.0,0.0,0.0,0.0,0.0,0.0,0.0,0.0,0.0,0.0,0.0,0.0,0.0,0.0,0.0,0.0,0.0,0.0,-2.303,-2.3501,-2.46,-2.5117,-2.5002,-2.4753,-2.4022,-2.2812,-2.1827,-2.0416,-1.8709,-1.7434,-1.5975,-1.4532,-1.41,-1.325,-1.2299,-1.2924,-1.3186,-1.3072,-1.2655,-1.248,-1.2496,-1.2577,-1.257,-1.2742,-1.4018,0.0,0.0,0.0,0.0,0.0,0.0,0.0,0.0,0.0,0.0,0.0,0.0,0.0,0.0,0.0,0.0,0.0,0.0,0.0,0.0,0.0,0.0,0.0,0.0,-3.2608,-3.3639,-3.432,-3.441,-3.4533,-3.4887,-3.507,-3.4952,-3.4431,-3.4533,-3.4382,-3.3772,-3.3242,-3.2864,-3.258,-3.1972,-3.1839,-3.2302,-3.1722,-3.1623,-3.21,-3.1495,-3.118,-3.118,-3.1011,-3.0667,-3.0137,-2.9976,-2.9422,-2.8652,-2.8456,-2.8254,-2.7977,-2.731,-2.6875,0.0,0.0,0.0,0.0,0.0,-2.5456,-2.4273,0.0,0.0,0.0,0.0,0.0,0.0,0.0,0.0,0.0,0.0,0.0,0.0,0.0,0.0,0.0,0.0,0.0,0.0,0.0,0.0,0.0,-1.7362,-1.9307,-2.062,-2.1214,-2.3151,-2.4224,-2.4339,-2.4168,-2.3217,-2.1559,-2.0571,-1.8838,-1.6545,-1.5437,-1.3862,-1.1937,-1.0934,-1.0063,-0.9345,-0.9382,-1.0247,-1.152,-1.1319,-1.1257,-1.1293,-1.1645,-1.1711,-1.1869,-1.3072,0.0,0.0,0.0,0.0,0.0,0.0,0.0,0.0,0.0,0.0,0.0,0.0,0.0,0.0,0.0,0.0,0.0,0.0,0.0,0.0,0.0,0.0,0.0,0.0,-3.3272,-3.3686,-3.4365,-3.4461,-3.4461,-3.4502,-3.4447,-3.409,-3.3298,-3.3242,-3.2862,-3.188,-3.1728,-3.1537,-3.128,-3.1182,0.0,0.0,0.0,-3.1164,-3.1256,-3.0838,-3.0613,-3.0613,-3.0237,-2.9639,-2.8877,-2.853,-2.791,-2.7089,-2.6672,-2.6455,-2.6337,-2.5872,-2.5691,-2.5721,-2.5773,-2.5447,-2.4859,-2.3701,-2.2568,-2.16,0.0,0.0,0.0,0.0,0.0,0.0,0.0,0.0,0.0,0.0,0.0,0.0,0.0,0.0,0.0,0.0,0.0,0.0,0.0,0.0,-1.1397,-1.1963,-1.392,-1.5446,-1.6409,-1.932,-2.1456,-2.2737,-2.2296,-2.1461,-2.0221,-1.7631,-1.5295,-1.3261,-1.2455,-1.1427,-1.0141,-0.7003,-0.5068,-0.4088,-0.4192,-0.6867,-1.0575,-0.921,-0.8689,-0.8765,-0.9285,-0.9736,-1.0172,-1.0579,-1.0492,-1.0473,-1.2495,0.0,0.0,0.0,0.0,0.0,0.0,0.0,0.0,0.0,0.0,0.0,0.0,0.0,0.0,0.0,0.0,0.0,0.0,0.0,0.0,-3.2915,-3.3441,-3.3548,-3.3075,-3.3019,-3.3099,-3.3299,-3.2954,-3.2524,-3.2152,-3.2315,-3.226,-3.1843,-3.1206,-3.0702,-3.0454,-2.9824,-2.9769,-3.0411,-2.9806,-2.9787,-3.043,-2.9414,-2.8889,-2.8889,0.0,0.0,-2.7666,-2.7573,-2.6957,-2.5909,-2.5481,-2.4996,-2.4431,-2.3942,-2.3823,-2.3957,-2.4372,-2.4222,-2.3631,-2.2885,-2.1946,-2.0971,0.0,0.0,0.0,0.0,0.0,0.0,0.0,0.0,0.0,0.0,0.0,0.0,0.0,0.0,0.0,0.0,0.0,0.0,0.0,-0.5724,-0.5853,-0.674,-0.7852,-0.9103,-1.0458,-1.1955,-1.3169,-1.4034,-1.2629,-1.1751,-1.1296,-0.9223,-0.7872,-0.7133,-0.6745,-0.5952,-0.4755,-0.2543,-0.1018,-0.006,0.0363,-0.112,-0.3628,-0.514,-0.5574,-0.5384,-0.5656,-0.7076,-0.8933,-0.9494,-0.8897,-0.826,-1.007,-1.1121,-1.2067,0.0,0.0,0.0,0.0,0.0,0.0,0.0,0.0,0.0,0.0,0.0,0.0,0.0,0.0,-2.9519,-3.0099,0.0,-3.1724,-3.2949,-3.3006,-3.2821,-3.2643,-3.1916,-3.1581,-3.2144,-3.1953,-3.1589,-3.1061,-3.1139,-3.0974,-3.045,-3.0039,-2.9751,-2.9604,-2.9237,-2.9088,-2.9289,-2.8925,-2.8789,-2.9034,-2.8253,-2.7862,-2.7862,-2.747,-2.721,-2.6987,-2.6432,-2.5831,-2.5263,-2.446,-2.3895,-2.35,-2.3016,-2.2709,-2.2544,-2.2185,-2.2271,-2.2452,-2.1506,-2.0631,-1.9814,0.0,0.0,0.0,0.0,0.0,0.0,0.0,0.0,0.0,0.0,0.0,0.0,0.0,0.0,0.0,0.0,0.0,0.0,0.0,-0.0576,-0.0155,-0.1026,-0.1526,-0.2366,-0.3746,-0.4126,-0.4384,-0.458,-0.2608,-0.1627,-0.1554,-0.021,0.0268,-0.0047,-0.0146,0.0352,0.1296,0.2534,0.3503,0.416,0.4713,0.489,0.4426,0.0392,-0.1316,-0.1659,-0.1558,-0.3511,-0.6306,-0.7495,-0.6857,-0.5725,-0.6883,-0.8344,-0.9789,-1.104,-1.2151,0.0,0.0,0.0,0.0,0.0,0.0,0.0,0.0,-2.6174,-2.6374,-2.8183,-2.8656,-2.9029,-2.9928,-3.0565,-3.141,-3.2916,-3.2427,-3.1939,-3.2119,-3.0888,-3.0184,-3.0659,-3.0833,-3.0687,-3.0026,-2.9971,-2.9714,-2.9049,-2.8929,-2.8887,-2.8887,-2.8815,-2.8651,-2.8316,-2.8298,-2.8183,-2.7897,-2.75,-2.7303,-2.7286,-2.677,-2.6455,-2.6337,-2.5262,-2.4644,-2.4378,-2.3149,-2.2515,-2.2323,-2.1904,-2.1496,-2.1098,-1.9969,-2.0233,-2.1064,-1.9969,-1.9145,-1.8535,0.0,0.0,0.0,0.0,0.0,0.0,0.0,0.0,0.0,0.0,0.0,0.0,0.0,0.0,0.0,0.0,0.0,0.0,0.2427,0.3877,0.5125,0.6115,0.4881,0.4049,0.3876,0.1544,0.0187,-0.0218,0.0651,0.1657,0.2844,0.487,0.6131,0.6594,0.618,0.5666,0.5291,0.8737,1.018,1.0135,0.9202,0.9213,0.9523,0.8042,0.5185,0.2185,0.2654,0.1758,0.0069,-0.2157,-0.2907,-0.2966,-0.3534,-0.5062,-0.7024,-0.8374,-0.9247,-1.0367,-1.2833,-1.4924,-1.6917,-1.9171,-2.0925,-2.3064,0.0,-2.7596,-2.8423,-2.9929,-3.0667,-3.1061,-3.1212,-3.1477,-3.1982,-3.2891,-3.2156,-3.1244,-3.0551,-2.9757,-2.8991,-2.8375,-2.8855,-2.9214,-2.9122,-2.9122,-2.9085,-2.8994,-2.8658,-2.8471,-2.8471,-2.8183,-2.801,-2.7954,-2.7954,-2.7954,-2.7897,-2.75,-2.7303,-2.7286,-2.6241,-2.5547,-2.5161,-2.4381,-2.344,-2.2358,-2.1135,-2.0132,-1.9382,-1.9322,-1.9337,-1.9308,-1.8585,-1.8737,-1.9319,-1.8557,-1.7962,-1.7463,0.0,0.0,0.0,0.0,0.0,0.0,0.0,0.0,0.0,0.0,0.0,0.0,0.0,0.0,0.0,0.0,0.0,0.0,0.6201,0.8011,0.9307,0.9761,1.0277,1.0206,0.9345,0.9748,1.0064,1.0276,1.196,1.286,1.3024,1.4505,1.4525,1.3334,1.2681,1.1923,1.114,1.2407,1.3036,1.3148,1.1889,1.1888,1.2445,1.1314,0.9536,0.7456,0.65,0.5756,0.0,0.0,0.1512,0.0421,-0.0211,-0.1059,-0.2343,-0.517,-0.6218,-0.7158,-1.0594,-1.3443,-1.5817,-1.751,-1.951,-2.1849,-2.4749,-2.5687,-2.6521,-2.837,-2.8904,-2.9328,-3.0093,-3.0609,-3.1235,-3.2147,-3.1516,-3.0775,-3.0291,-2.9526,-2.8834,-2.8246,-2.8464,-2.8565,-2.8378,-2.8378,-2.8378,-2.8378,-2.8183,-2.8102,-2.8102,-2.7982,-2.7794,-2.756,-2.753,-2.7439,-2.721,-2.6607,-2.629,-2.629,-2.5176,-2.453,-2.4331,-2.3088,-2.1666,-2.0228,-1.9705,-1.9089,-1.8419,-1.8419,-1.8505,-1.8515,-1.7868,-1.7836,-1.8087,-1.7772,-1.7504,-1.7271,0.0,0.0,0.0,0.0,0.0,0.0,0.0,0.0,0.0,0.0,0.0,0.0,0.0,0.0,0.0,0.0,0.0,0.0,0.0,1.0913,1.2291,1.2916,1.4282,0.0,1.4005,1.5964,1.7433,1.8358,2.0306,2.1204,2.1104,2.182,2.1068,1.9087,1.8184,1.7235,1.6258,1.545,1.5369,1.5664,1.445,1.4586,1.5412,1.3876,1.2998,1.2249,0.9636,0.8365,0.0,0.0,0.5252,0.3854,0.3415,0.3263,0.2536,-0.1197,-0.2938,-0.434,-0.7936,-1.1022,-1.3632,-1.5444,-1.7916,-2.0486,-2.272,-2.3733,-2.4654,-2.6498,-2.7147,-2.7709,-2.8654,-2.9641,-3.0526,-3.1249,-3.0876,-3.0335,-2.9909,-2.9173,-2.8491,-2.7989,-2.7929,-2.7833,-2.7589,-2.7851,-2.7992,-2.7897,-2.7811,-2.7736,-2.7736,-2.7619,-2.7352,-2.6854,-2.6837,-2.6593,-2.6082,-2.5461,-2.5126,-2.5126,-2.3968,-2.3358,-2.3174,-2.1526,-2.0079,-1.8893,-1.8727,-1.838,-1.7867,-1.7867,-1.7812,-1.7674,-1.705,-1.6853,-1.6896,-1.6653,-1.6799,-1.7034,0.0,0.0,0.0,0.0,0.0,0.0,0.0,0.0,0.0,0.0,0.0,0.0,0.0,0.0,0.0,0.0,0.0,0.0,0.0,1.1978,1.3825,1.6139,1.6323,1.6831,1.7906,1.845,1.9486,2.0983,2.1787,2.2908,2.4367,2.4315,2.3995,2.336,2.2043,2.0834,1.9736,1.8294,1.7989,1.8382,1.7262,1.7782,1.9041,1.6474,1.5877,1.5796,1.1791,0.0,0.0,0.0,0.7943,0.7056,0.7608,0.7821,0.7179,0.3893,0.0557,-0.2482,-0.4265,-0.7091,-1.0114,-1.2891,-1.6219,-1.9188,-2.0874,-2.2579,-2.4086,-2.4965,-2.6349,-2.741,-2.746,-2.8993,-3.0293,-3.0335,-3.0218,-2.9875,-2.9149,-2.8334,-2.7571,-2.6843,-2.6758,-2.6758,-2.6758,-2.773,-2.8264,-2.7926,-2.753,-2.7334,-2.7334,-2.6971,-2.6403,-2.5659,-2.5642,-2.5287,-2.4574,-2.4147,-2.3935,-2.3935,-2.2718,-2.1943,-2.1506,-1.9775,-1.8945,-1.8855,-1.8341,-1.7827,-1.7312,-1.7312,-1.7005,-1.6491,-1.5908,-1.5644,-1.5567,-1.5017,-1.5511,-1.6522,0.0,0.0,0.0,0.0,0.0,0.0,0.0,0.0,0.0,0.0,0.0,0.0,0.0,0.0,0.0,0.0,0.0,0.0,0.0,1.3554,1.4959,1.6912,1.7354,1.8011,1.9059,1.957,2.0558,2.2095,2.2461,2.3358,2.4708,2.481,2.4662,2.4304,2.3718,2.2898,2.1893,2.1149,2.0788,2.0589,1.9222,1.908,1.942,1.7251,1.6597,1.648,0.0,0.0,0.0,1.0607,0.9918,0.9212,0.8831,0.8926,0.8714,0.6149,0.4111,0.2072,-0.0802,-0.3668,-0.6455,-0.8873,-1.1961,-1.4882,-1.6629,-1.8951,-2.0955,-2.1744,-2.328,-2.4901,-2.6283,-2.785,-2.9233,-3.0149,-3.0597,-3.0395,-2.9144,-2.8755,-2.8218,-2.7206,-2.7083,-2.7083,-2.7083,-2.7192,-2.7224,-2.7115,-2.7004,-2.6906,-2.6906,-2.6774,-2.6253,-2.523,-2.5213,-2.4713,-2.3653,-2.3012,-2.2702,-2.2686,-2.1496,-2.0501,-1.9775,-1.9182,-1.8496,-1.7827,-1.7666,-1.7271,-1.6752,-1.633,-1.6071,-1.582,-1.5242,-1.5005,-1.4971,-1.4789,-1.4971,-1.5287,0.0,0.0,0.0,0.0,0.0,0.0,0.0,0.0,0.0,0.0,0.0,0.0,0.0,0.0,0.0,0.0,0.0,0.0,0.0,0.0,1.6003,1.7504,1.8274,1.9022,1.9834,2.0452,2.1376,2.2599,2.2869,2.3617,2.4798,2.4937,2.4979,2.4929,2.4639,2.426,2.3801,2.2946,2.2791,2.2929,2.1024,2.0837,2.1424,1.928,1.8796,0.0,0.0,0.0,0.0,1.3133,1.2476,1.2223,1.1754,1.1598,1.127,0.9547,0.808,0.6293,0.3134,0.027,-0.2378,-0.4469,-0.7976,-1.1112,-1.2093,-1.5009,-1.7627,-1.8475,-2.0527,-2.2794,-2.4749,-2.6539,-2.8202,-2.974,-3.0477,-3.0538,-2.955,-2.9161,-2.8608,-2.7617,-2.7255,-2.7083,-2.7083,-2.6841,-2.6691,-2.6691,-2.6691,-2.6691,-2.6691,-2.6691,-2.6068,-2.4646,-2.4629,-2.3882,-2.2419,-2.177,-2.1295,-2.0953,-2.0187,-1.9383,-1.8612,-1.8419,-1.7854,-1.6954,-1.6799,-1.6373,-1.5832,-1.5466,-1.5276,-1.5231,-1.4595,-1.4376,-1.4329,-1.4154,-1.4071,-1.4118,0.0,0.0,0.0,0.0,0.0,0.0,0.0,0.0,0.0,0.0,0.0,0.0,0.0,0.0,0.0,0.0,0.0,0.0,0.0,0.0,0.0,1.8052,1.9059,1.9834,2.0314,2.1165,2.1927,2.2625,2.301,2.3751,2.4804,2.4801,2.5016,2.5375,2.4921,2.505,2.55,2.3801,2.3981,2.5205,2.2718,2.3078,2.4894,2.2346,0.0,0.0,0.0,0.0,0.0,1.6164,1.5452,1.5958,1.6182,1.5765,1.4992,1.4155,1.2349,1.003,0.7372,0.4694,0.2169,0.0139,-0.406,-0.7651,-0.7477,-1.0768,-1.4156,-1.5132,-1.8062,-2.1029,-2.2893,-2.4972,-2.7066,-2.8992,-2.9832,-3.0212,-3.0027,-2.9431,-2.8687,-2.7858,-2.7131,-2.6691,-2.6691,-2.6691,-2.6691,-2.6691,-2.6691,-2.6691,-2.6657,-2.6624,-2.5765,-2.3885,-2.3803,-2.2851,-2.0942,-2.0449,-1.9778,-1.8855,-1.8855,-1.8574,-1.8027,-1.7504,-1.6912,-1.6348,-1.5796,-1.5231,-1.4698,-1.4652,-1.4652,-1.4606,-1.4003,-1.3732,-1.3684,-1.3055,-1.2822,-1.3007,0.0,0.0,0.0,0.0,0.0,0.0,0.0,0.0,0.0,0.0,0.0,0.0,0.0,0.0,0.0,0.0,0.0,0.0,0.0,0.0,0.0,0.0,0.0,0.0,0.0,0.0,0.0,0.0,0.0,2.3751,2.4804,2.4864,2.5063,0.0,2.5171,2.5418,2.5944,2.559,2.5547,2.5712,0.0,2.448,2.4324,0.0,0.0,0.0,0.0,0.0,2.1854,1.8933,1.8318,1.8759,1.8784,1.8627,1.829,1.7368,1.5935,1.4231,1.2333,1.0105,0.7712,0.5129,0.2199,-0.049,-0.2115,-0.6003,-0.9559,-1.0442,-1.3963,-1.7626,-2.0251,-2.2558,-2.4902,-2.7508,-2.8793,-2.9296,-2.8675,-2.8854,-2.8484,-2.7148,-2.681,-2.6691,-2.6691,-2.6691,-2.6691,-2.6691,-2.6691,-2.6556,-2.6191,-2.5711,-2.4622,-2.2833,-2.2362,-2.144,-2.0065,-1.9522,-1.8939,-1.8302,-1.8302,-1.8027,-1.7463,-1.6912,-1.6305,-1.5752,-1.5186,-1.4835,-1.4652,-1.419,-1.405,-1.3956,-1.3372,-1.3152,-1.3045,-1.2335,-1.208,-1.207,0.0,0.0,0.0,0.0,0.0,0.0,0.0,0.0,0.0,0.0,0.0,0.0,0.0,0.0,0.0,0.0,0.0,0.0,0.0,0.0,0.0,0.0,0.0,0.0,0.0,0.0,0.0,0.0,0.0,0.0,0.0,2.4861,2.5097,2.5434,2.5371,2.5662,2.6212,0.0,0.0,0.0,0.0,0.0,0.0,0.0,0.0,0.0,0.0,0.0,2.3999,2.2611,2.1969,2.1764,2.2024,2.1931,2.1494,2.0433,1.9033,1.7601,1.6124,1.4084,1.189,1.003,0.7497,0.4904,0.2811,-0.1244,-0.5089,-0.6507,-1.0438,-1.4549,-1.7809,-2.0308,-2.3016,-2.6323,-2.7946,-2.8758,-2.8624,-2.9092,-2.8907,-2.7368,-2.7182,-2.7063,-2.6725,-2.6691,-2.6607,-2.6401,-2.6401,-2.6164,-2.5587,-2.4999,-2.3822,-2.2045,-2.1672,-2.0809,-1.9369,-1.8817,-1.8302,-1.7747,-1.7747,-1.7327,-1.6532,-1.6176,-1.5608,-1.4767,0.0,-1.3993,-1.3396,-1.3072,-1.2735,-1.2444,-1.2129,-1.1999,-1.194,-1.1516,-1.1149,-1.0772,0.0,0.0,0.0,0.0,0.0,0.0,0.0,0.0,0.0,0.0,0.0,0.0,0.0,0.0,0.0,0.0,0.0,0.0,0.0,0.0,0.0,0.0,0.0,0.0,0.0,0.0,0.0,0.0,0.0,0.0,0.0,0.0,0.0,0.0,0.0,0.0,0.0,0.0,0.0,0.0,0.0,0.0,0.0,0.0,0.0,0.0,0.0,0.0,2.5891,2.6298,2.5658,2.4772,2.5281,2.5032,2.4293,2.3165,2.1801,2.0385,1.9158,1.7277,1.5431,1.4563,1.2033,0.9314,0.7512,0.3461,-0.0552,-0.2872,-0.708,-1.1509,-1.5293,-1.8039,-2.1033,-2.5008,-2.6922,-2.817,-2.8837,-2.9465,-2.934,-2.7958,-2.7705,-2.7418,-2.6759,-2.6691,-2.6521,-2.6049,-2.5842,-2.5478,-2.4802,-2.4265,-2.3106,-2.1219,-2.1101,-2.0272,-1.8703,-1.8224,-1.7693,-1.705,-1.705,-1.6532,-1.5499,-1.541,-1.4721,-1.3674,-1.3569,-1.2831,-1.1665,-1.1665,-1.1316,-1.0813,-1.0813,-1.0762,-1.0653,-1.0551,-1.0061,-0.932,0.0,0.0,0.0,0.0,0.0,0.0,0.0,0.0,0.0,0.0,-0.2153,0.5801,0.0,0.0,0.0,0.0,0.0,0.0,0.0,0.0,0.0,0.0,0.0,0.0,0.0,0.0,0.0,0.0,0.0,0.0,0.0,0.0,0.0,0.0,0.0,0.0,0.0,0.0,0.0,0.0,0.0,0.0,0.0,0.0,0.0,0.0,0.0,2.7438,2.7496,0.0,2.7467,2.7195,2.686,2.6437,2.5959,2.5387,2.4141,2.2761,2.1928,2.0655,1.927,1.7856,1.6187,1.4268,1.1924,0.8115,0.4268,0.1368,-0.2988,-0.7629,-1.2111,-1.4967,-1.8076,-2.2445,-2.4708,-2.6306,-2.745,-2.8118,-2.8306,-2.7855,-2.7266,-2.6843,-2.6708,-2.6691,-2.6521,-2.6049,-2.5062,-2.4255,-2.373,-2.3067,-2.1673,-1.9434,-1.8922,-1.8307,-1.7585,-1.7504,-1.6912,-1.5884,-1.5884,-1.5543,-1.4835,-1.4318,-1.37,-1.2918,-1.2395,0.0,-1.0965,-1.0965,-1.0914,-1.0813,-1.0813,-1.0434,-0.9841,-0.9245,-0.8613,-0.7864,0.0,0.0,0.0,0.0,0.0,0.0,0.0,-2.2289,-1.6198,-1.1208,-0.4256,0.1788,0.5778,0.9265,0.0,0.0,0.0,0.0,0.0,0.0,0.0,0.0,0.0,0.0,0.0,0.0,2.2733,2.3189,0.0,2.4109,2.4804,2.4823,2.5069,2.5517,0.0,0.0,0.0,0.0,0.0,0.0,0.0,0.0,0.0,0.0,0.0,0.0,0.0,2.8094,2.8373,2.8373,2.8579,2.8709,2.7915,2.7642,2.7487,2.6813,2.6101,2.5324,2.4406,2.3485,2.2454,2.1107,1.9517,1.7734,1.5875,1.2291,0.8592,0.575,0.0573,-0.5065,-1.0203,-1.4418,-1.8468,-2.2605,-2.559,-2.7538,-2.7847,-2.8987,-2.93,-2.7982,-2.7889,-2.7656,-2.707,-2.6757,-2.6167,-2.515,-2.4008,-2.3204,-2.2894,-2.1402,-2.0072,-1.8945,-1.8106,-1.7544,-1.7312,-1.6701,-1.6145,-1.5588,-1.5276,-1.463,-1.369,-1.3406,-1.2725,-1.1747,-1.1408,-1.0914,-1.0261,-0.9879,-0.9518,-0.9169,-0.879,-0.841,-0.8041,-0.7735,-0.7149,-0.6445,0.0,0.0,0.0,0.0,0.0,0.0,0.0,-2.3853,-1.7333,-0.883,-0.6231,-0.2024,0.6384,0.935,1.1331,0.0,0.0,0.0,0.0,0.0,0.0,0.0,0.0,0.0,0.0,0.0,0.0,2.3189,2.3839,0.0,0.0,0.0,0.0,0.0,2.6439,2.6957,2.7346,0.0,0.0,0.0,0.0,2.8178,0.0,0.0,0.0,0.0,0.0,2.8603,2.8975,2.878,2.9097,2.9359,2.8373,2.8371,2.8576,2.7962,2.7647,2.73,2.6465,2.5761,2.5062,2.4108,2.2536,2.0887,1.94,1.6253,1.2863,1.0033,0.376,-0.3094,-0.8868,-1.4609,-1.9668,-2.3353,-2.6693,-2.8756,-2.8485,-2.9926,-3.0326,-2.8495,-2.8798,-2.8727,-2.7607,-2.7023,-2.6101,-2.4577,-2.3033,-2.2003,-2.1713,-1.9701,-1.8574,-1.8574,-1.7626,-1.7063,-1.6925,-1.6058,-1.5487,-1.5219,-1.4584,-1.369,-1.2589,-1.2434,-1.1747,-1.0568,-1.0399,-0.9946,-0.9287,-0.8534,-0.796,-0.7396,-0.6804,-0.648,-0.6367,-0.6431,-0.5937,-0.5277,0.0,0.0,0.0,0.0,0.0,0.0,0.0,-2.3346,-1.7333,-0.883,-0.7534,-0.2689,0.9747,1.065,1.0491,0.0,0.0,0.0,0.0,0.0,0.0,0.0,0.0,0.0,0.0,0.0,0.0,2.3189,2.3446,0.0,0.0,0.0,0.0,0.0,0.0,2.764,2.9071,2.9025,0.0,0.0,0.0,0.0,0.0,0.0,0.0,0.0,0.0,2.9569,2.9513,2.8764,2.8724,2.8825,2.7934,2.8293,2.9035,2.8975,2.8379,2.7731,2.7653,2.7218,2.6737,2.6427,2.5564,2.4281,2.2484,2.0111,1.7315,1.3978,0.6563,-0.1313,-0.7827,-1.4467,-1.9979,-2.3217,-2.5791,-2.767,-2.8463,-2.9477,-2.9978,-2.9576,-2.9643,-2.929,-2.8224,-2.7743,-2.6882,-2.5392,-2.2413,-2.0318,-1.9443,-1.8167,-1.7463,-1.7463,-1.6879,-1.6312,-1.5764,-1.5632,-1.5039,-1.3956,-1.3311,-1.2589,-1.1891,-1.1275,-1.0559,-0.9858,-0.9162,-0.8541,0.0,-0.7122,-0.6745,-0.6696,-0.6642,-0.6199,-0.5655,-0.5896,-0.5356,-0.4588,0.0,0.0,0.0,0.0,0.0,0.0,-2.6822,-2.4998,-1.851,-0.4851,-0.8472,-0.5651,1.1956,0.9424,0.7542,0.0,0.0,0.0,0.0,0.0,0.0,0.0,0.0,0.0,0.0,0.0,2.1903,2.2539,2.3071,0.0,0.0,0.0,0.0,0.0,0.0,2.7886,2.8629,2.9359,0.0,0.0,0.0,0.0,0.0,0.0,0.0,0.0,0.0,0.0,2.8373,2.803,2.8096,2.8294,2.7896,2.8067,2.8463,2.8867,2.9107,2.9171,2.8802,2.8554,2.8313,2.7936,2.7297,2.6316,2.458,2.2696,2.094,1.9684,1.3471,0.5322,-0.4494,-1.008,-1.5583,-2.2823,-2.6176,-2.8119,-2.8916,-2.9663,-3.0063,-2.9892,-2.9901,-2.9653,-2.8929,-2.7651,-2.5501,-2.2216,-2.0138,-1.8436,-1.7081,-1.6846,-1.6786,-1.6786,-1.5896,-1.5287,-1.505,-1.4687,-1.4075,-1.3168,-1.2502,-1.1625,-1.0576,-0.9887,-0.9162,-0.8508,-0.7747,-0.745,0.0,-0.6554,-0.6351,-0.6534,-0.5694,-0.5136,-0.4919,-0.5037,-0.4249,-0.3125,0.0,0.0,0.0,0.0,0.0,-2.4033,-2.6247,-2.5906,-2.0245,-0.589,-1.0649,-0.855,0.9412,0.688,0.5339,0.9016,0.0,0.0,0.0,0.0,0.0,0.0,0.0,0.0,0.0,0.0,2.1757,2.2096,2.2902,2.3566,0.0,0.0,2.5158,2.5726,0.0,0.0,0.0,0.0,0.0,0.0,0.0,0.0,0.0,0.0,0.0,0.0,0.0,0.0,0.0,0.0,0.0,2.7497,2.7159,2.7211,0.0,2.8357,2.9213,2.9784,2.9371,2.9425,2.9493,2.8849,2.8316,2.7547,2.599,2.4601,2.3405,2.2563,1.5817,0.7195,-0.2099,-0.8721,-1.521,0.0,0.0,-2.7472,-2.8398,-2.9171,-2.9577,-2.9374,-2.9584,-2.9623,-2.9325,-2.7494,-2.4673,-2.0712,-1.9203,-1.7785,-1.6188,-1.5959,-1.5915,-1.5915,-1.5141,-1.4503,-1.4122,-1.348,-1.2734,-1.1849,-1.0973,-1.0077,-0.911,-0.8423,-0.78,-0.7343,-0.6701,-0.6613,0.0,-0.5399,-0.5022,-0.5203,-0.42,-0.3811,-0.3869,-0.4327,-0.3816,-0.274,0.0,0.0,0.0,0.0,0.0,0.0,-2.5205,-2.5409,-2.2534,-1.45,-1.4592,-1.0965,0.0691,0.3088,0.4759,0.6932,0.0,0.0,0.0,0.0,0.0,0.0,0.0,0.0,0.0,0.0,2.1757,2.2096,2.3029,2.3762,2.4307,2.4769,2.5639,2.6786,0.0,0.0,0.0,0.0,0.0,0.0,0.0,0.0,0.0,0.0,0.0,0.0,0.0,0.0,0.0,0.0,0.0,0.0,0.0,2.557,0.0,0.0,2.8475,2.91,2.91,2.9786,3.0239,2.9154,2.8586,2.7955,2.6684,2.5859,2.4479,2.1359,1.1056,0.1676,-0.1359,-1.2207,-2.12,-2.2849,-2.385,0.0,-2.6507,-2.7647,-2.8184,-2.787,-2.8581,-2.9168,-2.9296,-2.7357,-2.4982,-2.2288,-2.0416,-1.878,-1.7381,-1.5664,-1.4709,-1.4709,-1.4698,-1.4075,-1.2812,-1.2097,-1.1038,-0.9724,-0.8332,-0.7659,-0.7606,-0.6945,-0.6642,-0.6588,-0.6119,-0.5909,0.0,-0.3231,-0.2232,-0.2232,-0.2232,-0.2232,-0.24,-0.3937,-0.4514,-0.4058,0.0,0.0,0.0,0.0,0.0,0.0,0.0,-2.5876,-2.2508,-1.4641,-1.6292,-1.3769,-0.2124,-0.1996,-0.1436,0.1928,0.0,0.0,0.0,0.0,0.0,0.0,0.0,0.0,0.0,0.0,2.0039,2.0815,2.1607,2.2608,2.3762,2.4288,2.4917,2.5662,2.6387,2.6894,0.0,0.0,0.0,0.0,0.0,0.0,2.9896,0.0,0.0,0.0,0.0,0.0,0.0,0.0,0.0,0.0,0.0,0.0,0.0,0.0,2.6461,2.8055,2.8616,2.8565,2.8411,2.8585,2.7957,2.6805,2.5024,2.382,2.2089,1.8605,1.3511,0.7333,-0.0359,-0.6251,-1.233,-1.9662,-2.1445,-2.2686,-2.483,-2.6538,-2.7513,-2.7388,-2.7968,-2.8081,-2.7394,-2.5962,-2.3916,-2.1076,-1.9477,-1.7719,-1.564,-1.4595,-1.4086,-1.3996,-1.3158,-1.2288,-1.1449,-1.0689,-0.987,-0.903,-0.8567,-0.8062,-0.7419,-0.6856,-0.6599,-0.6484,-0.3996,-0.2494,-0.1831,-0.0999,-0.0111,0.0835,0.0835,0.0835,0.0723,0.0278,0.0056,0.0223,0.0,0.0,0.0,0.0,0.0,0.0,0.0,-2.6233,-2.3986,-1.9611,-1.9463,-1.6687,-0.8415,-0.7428,-0.5803,-0.1798,0.0,0.0,0.0,0.0,0.0,0.0,0.0,0.0,0.0,1.7894,1.9051,1.9619,2.0814,2.2032,2.3294,2.3723,2.4334,2.5013,2.5691,2.6067,0.0,0.0,0.0,0.0,0.0,0.0,2.954,0.0,0.0,0.0,0.0,0.0,0.0,0.0,0.0,0.0,0.0,0.0,0.0,0.0,2.3584,2.5094,2.6601,2.6906,2.6745,2.6518,2.5923,2.4858,2.2777,2.1569,1.987,1.6141,1.203,0.6825,-0.055,-0.4926,-0.9819,-1.7231,-1.8603,-1.9794,-2.2879,-2.4343,-2.5336,-2.6054,-2.6754,-2.6816,-2.5793,-2.5193,-2.3736,-2.0991,-1.9487,-1.7772,-1.5719,-1.4218,-1.3137,-1.259,-1.18,-1.0822,-0.96,-0.9089,-0.8416,-0.7641,-0.7311,-0.65,-0.5386,-0.4501,-0.4116,-0.4003,-0.1885,-0.0388,0.0,0.1388,0.2228,0.3074,0.3074,0.3074,0.3074,0.3074,0.3074,0.3074,0.0,0.0,0.0,0.0,0.0,0.0,0.0,0.0,-2.6513,-2.7832,-2.368,-1.9666,-1.7203,-1.3012,-0.8834,-0.5097,0.0,0.0,0.0,0.0,0.0,0.0,0.0,0.0,0.0,1.6726,1.8234,1.8303,2.0187,2.1632,2.2651,2.3024,2.372,2.4642,2.4693,2.4867,2.516,2.621,2.7075,2.7849,2.8627,2.8492,0.0,0.0,0.0,0.0,0.0,0.0,0.0,0.0,0.0,0.0,0.0,0.0,0.0,0.0,0.0,0.0,0.0,2.4569,2.4955,2.3333,2.2794,2.2098,1.9912,1.8943,0.0,1.3523,0.7244,0.1363,-0.2031,-0.7419,-1.2393,-1.5587,-1.552,-1.6535,-2.0682,-2.143,-2.2232,-2.4039,-2.5045,-2.5226,-2.436,-2.4704,-2.4057,-2.1779,-2.0171,-1.8661,-1.7277,-1.4439,-1.2229,-1.0739,-1.0655,-0.968,-0.7611,-0.7348,-0.6663,-0.5563,-0.4643,-0.3413,-0.2006,-0.0499,0.0222,0.0,0.0333,0.0831,0.0,0.3802,0.4546,0.4601,0.4601,0.4661,0.4661,0.4661,0.4661,0.4661,0.0,0.0,0.0,0.0,0.0,0.0,0.0,0.0,0.0,0.0,-2.5343,-2.2795,-2.1199,-1.7921,-1.5038,0.0,0.0,0.0,0.0,0.0,0.0,0.0,0.0,0.0,0.0,1.1732,1.3523,1.4252,1.6338,1.8323,2.0176,2.0974,2.1925,2.2998,2.3769,2.4153,2.4244,2.486,2.4947,2.472,2.5253,2.5155,0.0,0.0,0.0,0.0,2.1976,2.1117,0.0,0.0,0.0,0.0,0.0,0.0,0.0,0.0,1.7492,1.7544,1.7808,0.0,2.0949,2.1147,1.9816,1.7971,0.0,1.429,1.1647,0.7193,0.3233,-0.0787,-0.5089,-0.8009,-1.0923,-1.4498,-1.4579,-1.5318,-1.8588,-2.0275,-2.1691,-2.2935,-2.2486,-2.2048,-2.2044,-2.1994,-2.1905,-2.1838,-2.0131,-1.8768,-1.8138,-1.5355,-1.2874,-1.0828,-0.9727,-0.8611,-0.7484,-0.6981,-0.5332,-0.2471,-0.1496,-0.089,-0.0444,0.1001,0.2341,0.3466,0.3458,0.3569,0.3852,0.4842,0.5281,0.5336,0.5887,0.6109,0.6109,0.6109,0.6109,0.6109,0.0,0.0,0.0,0.0,0.0,0.0,0.0,0.0,0.0,0.0,0.0,0.0,0.0,0.0,0.0,0.0,0.0,0.0,0.0,0.0,0.0,0.0,0.0,0.4981,0.5427,0.7753,0.9536,1.0745,1.2435,1.4005,1.5518,1.6005,1.6775,1.7694,1.8367,1.868,1.8571,1.712,1.6695,1.6866,1.5272,0.0,0.0,0.0,0.0,0.0,1.4324,1.4374,0.0,1.4739,1.4778,1.4538,0.0,0.0,0.0,0.0,1.3795,1.3773,1.3506,1.5574,1.7655,1.698,1.5856,1.4336,1.2238,1.0231,0.7772,0.3977,0.0908,-0.2279,-0.629,-0.8072,-0.9974,-1.3125,-1.3696,-1.4698,-1.7297,-1.8552,-1.9641,-2.0707,-1.9903,-1.9379,-1.9692,-1.9735,-1.8426,-1.5261,-1.3906,-1.2684,-1.1463,-0.7748,-0.5952,-0.6469,-0.5325,-0.4462,-0.4027,-0.3718,-0.2603,-0.0716,0.1826,0.3056,0.3051,0.3613,0.4625,0.5813,0.5187,0.5124,0.5508,0.5878,0.5982,0.6036,0.6421,0.6588,0.6588,0.6588,0.6588,0.6588,0.0,0.0,0.0,0.0,0.0,0.0,0.0,0.0,0.0,0.0,0.0,0.0,0.0,0.0,0.0,0.0,0.0,0.0,0.0,0.0,0.0,0.0,0.0,0.0278,0.1592,0.3498,0.5117,0.646,0.7764,0.8744,0.9444,0.9632,1.0139,1.0981,1.1212,1.1075,1.0524,0.7477,0.6691,0.717,0.3834,0.0,0.0,0.0,0.0,0.0,0.0,0.0,0.0,0.864,0.9522,0.9972,0.8938,0.0,0.0,0.0,0.0,0.0,0.9742,1.1958,1.3905,1.2221,1.1638,1.0805,0.8292,0.6571,0.4726,0.1835,-0.0817,-0.3542,-0.6646,-0.7918,-0.9347,-1.1913,-1.3116,-1.4388,-1.6158,-1.6622,-1.6987,-1.7635,-1.7015,-1.6614,-1.6944,-1.707,-1.4536,-0.8397,-0.6896,-0.4833,-0.1487,0.1889,0.2837,0.0845,0.172,0.1953,0.1539,0.1161,0.0998,0.0941,0.5007,0.6838,0.6718,0.6351,0.6608,0.7382,0.0,0.0,0.6588,0.6696,0.673,0.6699,0.6806,0.6961,0.7015,0.6913,0.6988,0.7069,0.0,0.0,0.0,0.0,0.0,0.0,0.0,0.0,0.0,0.0,0.0,0.0,0.0,0.0,0.0,0.0,0.0,0.0,0.0,0.0,0.0,0.0,-0.9075,-0.6075,-0.5534,-0.3441,-0.2094,-0.1474,0.0549,0.185,0.245,0.334,0.4471,0.5831,0.5863,0.4702,0.2661,0.2578,0.1375,-0.05,-0.0992,0.0,0.0,0.0,0.0,0.0,0.0,0.0,0.0,0.2896,0.3453,0.3827,0.4755,0.0,0.0,0.0,0.0,0.0,0.6197,0.6582,0.7366,0.876,0.8255,0.6833,0.4524,0.2927,0.109,-0.1856,-0.3535,-0.527,-0.7883,-0.8083,-0.8815,-1.1743,-1.3449,-1.4313,-1.4258,-1.4969,-1.5088,-1.4003,-1.3199,-1.2903,-1.3293,-1.2012,-1.1582,-1.2494,-0.8323,-0.2057,0.6351,0.3479,0.4381,1.0509,1.1646,1.0974,0.8593,0.6563,0.5378,0.5003,0.7322,0.8074,0.7469,0.7357,0.7405,0.7517,0.0,0.648,0.6642,0.7289,0.7384,0.7246,0.7866,0.8467,0.8898,0.8322,0.8622,0.9235,0.0,0.0,0.0,0.0,0.0,0.0,0.0,0.0,0.0,0.0,0.0,0.0,0.0,0.0,0.0,0.0,0.0,0.0,0.0,0.0,0.0,-1.9824,-1.6133,-1.3062,-1.09,-0.987,-0.8839,-0.7841,-0.6136,-0.5132,-0.4867,-0.4038,-0.3477,-0.3217,-0.342,-0.4144,-0.5392,-0.7489,-0.89,-0.9891,0.0,0.0,0.0,0.0,0.0,0.0,0.0,0.0,0.0,0.0,-0.1917,-0.1053,0.0322,0.0,0.0,0.0,0.0,0.0,0.2456,0.2456,0.2611,0.3174,0.3735,0.3713,0.1864,0.033,-0.1219,-0.3058,-0.4488,-0.5955,-0.7767,-0.8447,-0.9682,-1.2575,-1.2803,-1.2788,-1.3263,-1.3001,-1.2428,-1.1752,-1.1066,-1.0429,-0.9826,-0.904,-0.6838,-0.2595,0.0,0.5726,1.5681,1.3173,1.2855,1.6058,1.6041,1.4721,1.2111,1.142,0.9841,0.7452,0.8646,0.9058,0.8743,0.8743,0.8958,0.9283,0.0,0.8515,0.8874,0.8987,0.8998,0.8898,0.8933,0.9209,0.9439,0.9107,0.9178,0.9408,0.0,0.0,0.0,0.0,0.0,0.0,0.0,0.0,0.0,0.0,0.0,0.0,0.0,0.0,0.0,0.0,0.0,0.0,0.0,0.0,-2.3081,-2.3081,-2.1527,-1.8927,-1.5224,-1.5143,-1.4531,-1.3322,-1.231,-1.1713,-1.1524,-1.0988,-1.095,-1.1403,-1.1917,-1.2341,-1.2935,-1.6554,-1.7899,-1.79,0.0,0.0,0.0,0.0,0.0,0.0,0.0,0.0,0.0,0.0,0.0,0.0,0.0,0.0,0.0,-0.1209,-0.1046,-0.1046,-0.1046,-0.1046,-0.1157,-0.1712,-0.022,0.1048,-0.0505,-0.1741,-0.2832,-0.3934,-0.5108,-0.6265,-0.7426,-0.8751,-1.0288,-1.2095,-1.1696,-1.1342,-1.203,-1.1129,-1.0177,-0.9792,-0.8985,-0.8049,-0.6802,-0.5958,-0.2223,0.558,0.7548,1.2119,2.0688,2.0678,2.0174,1.9654,1.8914,1.7341,1.4814,1.5508,1.3817,0.9784,1.0498,1.0739,1.0597,1.0471,1.0663,1.1007,1.0272,1.0248,1.0664,1.0341,1.0103,0.9919,0.9541,0.9391,0.9452,0.976,0.9667,0.9335,0.0,0.0,0.0,0.0,0.0,0.0,0.0,0.0,0.0,0.0,0.0,0.0,0.0,0.0,0.0,0.0,0.0,0.0,0.0,0.0,-2.4996,-2.4996,-2.4368,-2.2323,-1.8618,-1.8557,-1.8294,-1.7815,-1.7722,-1.7368,-1.6744,-1.6473,-1.6166,-1.5892,-1.6718,-1.7837,-1.9223,-2.0652,-2.1612,-2.2219,-2.3384,0.0,0.0,0.0,0.0,0.0,0.0,0.0,0.0,0.0,0.0,0.0,0.0,0.0,-0.4168,-0.4114,-0.4059,-0.4059,-0.4059,-0.4059,-0.4117,-0.4171,-0.2479,-0.1285,-0.2952,-0.3445,-0.3943,-0.5512,-0.6104,-0.6546,-0.7225,-0.8556,-0.9303,-0.869,-1.019,-1.1031,-1.0044,-0.9699,-0.9062,-0.7693,-0.6151,-0.5091,-0.4656,-0.1526,0.1033,0.2404,0.8111,1.3055,1.6423,1.9412,2.1282,2.1852,2.1912,2.0574,1.7723,1.8418,1.6807,1.2888,1.3753,1.3847,1.3299,1.2811,1.2288,1.1688,1.1103,1.062,1.0245,1.0266,0.987,0.9199,0.9131,0.9123,0.9284,1.06,1.0466,0.978,0.0,0.0,0.0,0.0,0.0,0.0,0.0,0.0,0.0,0.0,0.0,0.0,0.0,0.0,0.0,0.0,0.0,0.0,0.0,0.0,-2.6007,-2.6007,-2.5287,-2.4238,-2.2837,-2.2177,-2.2061,-2.2577,-2.1253,-2.026,-1.9583,-1.9013,-1.893,-1.9248,-1.9817,-2.0398,-2.0955,-2.1708,-2.2168,-2.248,-2.3311,-2.3011,0.0,0.0,0.0,0.0,0.0,0.0,0.0,0.0,-1.234,-1.0261,0.0,0.0,-0.6887,-0.6,-0.5792,-0.5679,-0.5186,-0.5078,-0.4973,-0.4542,-0.3828,-0.353,-0.4794,-0.5469,-0.6022,-0.6876,-0.713,-0.7327,-0.7751,-0.8742,-0.9384,-0.9058,-0.9681,-0.999,-0.933,-0.8296,-0.7164,-0.5931,-0.4847,-0.3548,-0.1825,0.0,0.2497,0.5821,0.97,1.3813,1.8163,2.0705,2.245,2.3321,2.3686,2.2782,2.0572,2.0679,1.9874,1.8024,1.6399,1.5516,1.5254,1.4733,1.4147,1.3583,1.2996,1.2457,1.191,1.1683,1.145,1.1135,1.0828,1.0507,1.0339,1.1123,1.1113,1.0676,0.0,0.0,0.0,0.0,0.0,0.0,0.0,0.0,0.0,0.0,0.0,0.0,0.0,0.0,0.0,0.0,0.0,0.0,-2.7926,-2.7309,-2.6946,-2.6946,-2.6077,-2.568,-2.5842,-2.4721,-2.4471,-2.5221,-2.3297,-2.2102,-2.1645,-2.0824,-2.0686,-2.118,-2.1728,-2.2,-2.2124,-2.2831,-2.3033,-2.2979,-2.3883,-2.3596,0.0,0.0,0.0,0.0,0.0,0.0,0.0,0.0,0.0,0.0,0.0,0.0,0.0,0.0,-0.7278,-0.6858,-0.6303,-0.6032,-0.5764,-0.5281,-0.5211,-0.5458,-0.6253,-0.6601,-0.6905,-0.7322,-0.7054,-0.6869,-0.7063,-0.7825,-0.8387,-0.8387,-0.8646,-0.8635,-0.7899,-0.6703,-0.5401,-0.3955,-0.3049,-0.1582,0.1103,0.2247,0.4588,0.8887,1.1805,1.5187,1.9291,2.1756,2.3434,2.4327,2.4729,2.4226,2.2733,2.2424,2.1953,2.1336,1.887,1.7476,1.6993,1.6132,1.5423,1.485,1.4317,1.3674,1.2997,1.2731,1.2461,1.2201,1.2045,1.1752,1.1501,1.2148,1.2138,1.1808,0.0,0.0,0.0,0.0,0.0,0.0,0.0,0.0,0.0,0.0,0.0,0.0,0.0,0.0,0.0,0.0,0.0,0.0,-2.7897,-2.7897,-2.7897,-2.7897,-2.7026,-2.677,-2.7286,-2.595,-2.5221,-2.5205,-2.3791,-2.3103,-2.3071,-2.2084,-2.1579,-2.1526,-2.2344,-2.2845,-2.3165,-2.4374,-2.4602,-2.4317,-2.5578,-2.5122,-2.3761,0.0,0.0,0.0,0.0,0.0,0.0,0.0,-1.6028,0.0,0.0,0.0,0.0,0.0,-0.8823,-0.7723,-0.767,-0.7128,-0.6588,-0.6588,-0.6744,-0.6959,-0.7239,-0.6759,-0.6328,-0.6638,-0.5742,-0.487,-0.4718,-0.5427,-0.5988,-0.5988,-0.6793,-0.6928,-0.5292,-0.4972,-0.3943,-0.1572,-0.051,0.1158,0.4015,0.565,0.7739,1.0572,1.4399,1.7288,1.8838,2.2158,2.4265,2.4862,2.5091,2.484,2.4113,2.3562,2.2888,2.2079,2.122,2.0033,1.8567,1.6962,1.5891,1.5284,1.467,1.3885,1.3014,1.3099,1.2601,1.1856,1.24,1.263,1.2754,1.3749,1.3663,1.3184,0.0,0.0,0.0,0.0,0.0,0.0,0.0,0.0,0.0,0.0,0.0,0.0,0.0,0.0,0.0,0.0,0.0,0.0,-2.8676,-2.8412,-2.8264,-2.8264,-2.7741,-2.7554,-2.7725,-2.7326,-2.6384,-2.4906,-2.4348,-2.3814,-2.3298,-2.3003,-2.2576,-2.2089,-2.2841,-2.3045,-2.2855,-2.32,-2.3401,-2.3571,-2.4474,-2.439,-2.3761,0.0,0.0,0.0,0.0,0.0,0.0,0.0,0.0,0.0,0.0,0.0,0.0,-1.01,-0.8823,-0.7563,-0.7074,-0.6362,-0.5706,-0.5226,-0.5156,-0.5434,-0.6324,-0.6754,-0.7031,-0.7223,-0.6433,-0.5661,-0.5604,-0.5821,-0.577,-0.5016,-0.5303,-0.507,-0.3295,-0.2141,-0.1011,0.0225,0.1558,0.303,0.4915,0.6791,0.9054,1.1877,1.529,1.7925,1.9518,2.2337,2.4041,2.4328,2.4983,2.5003,2.4322,2.3783,2.2986,2.1936,2.0933,2.0109,1.9476,1.805,1.6944,1.616,1.538,1.4674,1.4073,1.4078,1.3736,1.3263,1.3815,1.3569,1.2946,1.3685,1.3839,1.3674,0.0,0.0,0.0,0.0,0.0,0.0,0.0,0.0,0.0,0.0,0.0,0.0,0.0,0.0,0.0,0.0,0.0,0.0,0.0,-2.8993,-2.879,-2.879,-2.835,-2.802,-2.7897,-2.7736,-2.6887,-2.5345,-2.4951,-2.442,-2.3816,-2.3241,-2.2841,-2.2694,-2.3126,-2.3319,-2.33,-2.33,-2.3414,-2.366,-2.4428,-2.4396,-2.3948,0.0,0.0,0.0,0.0,0.0,0.0,0.0,0.0,0.0,0.0,0.0,0.0,-1.0653,-0.9006,-0.7486,-0.6799,-0.5878,-0.4944,-0.4233,-0.4097,-0.4229,-0.462,-0.5896,-0.6833,-0.6538,-0.5951,-0.54,-0.5042,-0.4971,-0.4657,-0.3674,-0.3434,-0.288,-0.1549,-0.0055,0.1272,0.2268,0.3687,0.5251,0.6956,0.8718,1.0763,1.3222,1.6023,1.8302,1.992,2.2342,2.3893,2.4393,2.5086,2.5206,2.4729,2.4283,2.3472,2.226,2.1326,2.0524,1.9781,1.847,1.7511,1.6834,1.5705,1.504,1.4721,1.4564,1.4315,1.4124,1.4676,1.4372,1.3754,1.4333,1.4427,1.4284,0.0,0.0,0.0,0.0,0.0,0.0,0.0,0.0,0.0,0.0,0.0,0.0,0.0,0.0,0.0,0.0,0.0,0.0,0.0,0.0,-2.9414,-2.9414,-2.8837,-2.8342,-2.801,-2.7648,-2.7108,-2.6399,-2.5507,-2.4827,-2.4388,-2.3038,-2.2667,-2.3135,-2.323,-2.3594,-2.4113,-2.4151,-2.417,-2.4263,-2.5017,-2.485,-2.4281,-2.5017,0.0,0.0,0.0,0.0,0.0,0.0,0.0,0.0,0.0,-1.4778,-1.3392,-1.144,-0.9327,-0.7458,-0.682,-0.5521,-0.4262,-0.3596,-0.348,-0.3288,-0.2538,-0.4261,-0.5755,-0.4824,-0.4541,-0.4222,-0.3418,-0.3231,-0.2952,-0.2119,-0.1388,-0.061,0.0222,0.149,0.2968,0.4419,0.586,0.7541,0.9658,1.1096,1.2637,1.4529,1.6723,1.8586,2.0083,2.2175,2.3798,2.4832,2.5249,2.5383,2.5216,2.4885,2.4044,2.2721,2.2001,2.0941,1.955,1.8377,1.7602,1.7126,1.5788,1.5195,1.5134,1.4783,1.4627,1.4651,1.5164,1.5101,1.4796,1.5293,1.5221,1.4862,0.0,0.0,0.0,0.0,0.0,0.0,0.0,0.0,0.0,0.0,0.0,0.0,0.0,0.0,0.0,0.0,0.0,0.0,0.0,0.0,-2.9644,-2.9644,-2.9357,-2.9056,-2.8767,-2.8676,-2.8399,-2.7915,-2.5704,-2.4309,-2.363,-2.3308,-2.292,-2.2542,-2.3361,-2.3636,-2.3414,-2.3692,-2.3976,-2.4208,-2.4392,-2.4355,-2.4208,-2.4392,-2.4142,0.0,0.0,0.0,0.0,0.0,0.0,0.0,-1.7356,-1.5695,-1.3971,-1.2076,-0.9658,-0.7492,-0.6951,-0.5243,-0.3616,-0.3589,-0.316,-0.2521,-0.1633,-0.2377,-0.3247,-0.283,-0.2752,-0.2699,-0.2512,-0.2001,-0.1332,-0.0612,0.0167,0.1109,0.2504,0.3379,0.4464,0.5941,0.7382,0.9034,1.1079,1.2484,1.3861,1.5285,1.7675,1.9336,1.9933,2.2194,2.3781,2.4492,2.4954,2.524,2.5362,2.4516,2.3457,0.0,2.1161,2.0047,1.8831,1.8332,1.753,1.6502,1.6182,1.5896,1.5639,1.5551,1.5522,1.5551,1.5762,1.5499,1.5051,1.527,1.5294,1.5176,0.0,0.0,0.0,0.0,0.0,0.0,0.0,0.0,0.0,0.0,0.0,0.0,0.0,0.0,0.0,0.0,0.0,0.0,0.0,0.0,-2.9765,-2.9551,-2.9454,-2.9267,-2.9017,-2.8815,-2.859,-2.8394,-2.6528,-2.5121,-2.4207,-2.3981,-2.3475,-2.2764,-2.3495,-2.3756,-2.3692,-2.3876,-2.4036,-2.419,-2.419,-2.419,-2.419,-2.419,-2.4094,-2.3917,-2.3774,0.0,0.0,0.0,0.0,0.0,0.0,0.0,-1.5035,-1.3179,-1.0922,-0.8835,-0.7694,-0.5677,-0.3661,-0.2668,-0.1825,-0.1192,-0.0679,-0.0973,-0.1258,-0.1178,-0.1427,-0.1445,-0.0778,-0.0333,0.0222,0.0946,0.194,0.2934,0.3776,0.5341,0.6742,0.7499,0.912,1.0705,1.2067,1.3642,1.5048,1.628,1.8289,1.9821,2.0639,2.2289,2.3587,2.4372,2.4884,2.5236,2.5457,2.4445,2.3419,2.2327,2.1226,2.0065,1.8877,1.8249,1.7519,1.6773,1.6607,1.6448,1.6274,1.6123,1.6039,1.6042,1.5935,1.5576,1.5117,1.5181,1.5249,1.5298,0.0,0.0,0.0,0.0,0.0,0.0,0.0,0.0,0.0,0.0,0.0,0.0,0.0,0.0,0.0,0.0,0.0,0.0,0.0,0.0,0.0,-2.9513,-2.9474,-2.9332,-2.9067,-2.8707,-2.8496,-2.8496,-2.7557,-2.6498,-2.5377,-2.4664,-2.394,-2.3256,-2.344,-2.3692,-2.3937,-2.4074,-2.4113,-2.4113,-2.417,-2.419,-2.419,-2.419,-2.419,-2.417,-2.3896,-2.3356,-2.2718,-2.2337,0.0,0.0,0.0,0.0,-1.6388,-1.436,-1.2359,-1.0436,-0.8597,-0.6217,-0.3719,-0.1469,-0.0446,0.0,0.0,0.0124,0.0237,0.0354,-0.0228,-0.0333,0.0888,0.1386,0.1885,0.2504,0.3825,0.4809,0.491,0.7116,0.8829,0.9179,1.0872,1.2337,1.3195,1.4733,1.6102,1.7247,1.8815,2.0224,2.1507,2.2427,2.3425,2.4425,2.4898,2.5173,2.5252,2.4306,2.3381,2.2455,2.1339,2.0249,1.921,1.835,1.7742,1.7351,1.7085,1.6901,1.6789,1.6501,1.6382,1.6355,1.6011,1.5653,1.53,1.5255,1.5296,1.5379,0.0,0.0,0.0,0.0,0.0,0.0,0.0,0.0,0.0,0.0,0.0,0.0,0.0,0.0,0.0,0.0,0.0,0.0,-3.0398,0.0,0.0,-2.9939,-2.9746,-2.9551,-2.9351,-2.9071,-2.8929,-2.8929,-2.8431,-2.7629,-2.6543,-2.4839,-2.3801,-2.3363,-2.2981,-2.2873,-2.2947,-2.3522,-2.3774,-2.3795,-2.4074,-2.419,-2.419,-2.419,-2.419,-2.419,-2.4151,-2.3878,-2.3441,-2.2768,-2.2194,0.0,0.0,0.0,-1.7791,-1.5163,-1.2963,-1.0995,-0.9315,-0.6293,-0.3054,-0.0729,-0.0067,0.0,0.0,0.0502,0.1153,0.1769,0.1314,0.0893,0.106,0.2664,0.3981,0.4097,0.5366,0.6514,0.7068,0.8029,0.932,1.1079,1.2134,1.3328,1.5073,1.586,1.6722,1.7798,1.9286,2.0591,2.1692,2.2648,2.365,2.4708,2.4815,2.4668,2.43,2.3514,2.2611,2.1564,2.0484,1.9751,1.9369,1.9112,1.8501,1.7648,1.7603,1.7271,1.6789,1.6738,1.6738,1.6686,1.6367,1.6176,1.6093,1.5812,1.5727,1.5743,0.0,0.0,0.0,0.0,0.0,0.0,0.0,0.0,0.0,0.0,0.0,0.0,0.0,0.0,0.0,-3.0398,-3.0398,-3.0398,-3.0398,-3.0398,-3.0267,-3.0013,-2.9924,-2.9763,-2.957,-2.9353,-2.9225,-2.9225,-2.8892,-2.8377,-2.7665,-2.6251,-2.4888,-2.3704,-2.3821,-2.3661,-2.33,-2.3774,-2.3976,-2.3996,-2.4151,-2.419,-2.419,-2.419,-2.419,-2.419,-2.419,-2.3996,-2.3653,-2.3333,-2.2835,-2.2221,-2.1297,0.0,0.0,0.0,-1.4838,-1.2349,-0.8587,-0.5608,-0.3011,-0.1111,-0.0329,0.0131,0.0647,0.0932,0.1313,0.2175,0.2677,0.3051,0.3495,0.4375,0.5249,0.6044,0.7079,0.7994,0.8697,1.0074,1.1347,1.2222,1.3223,1.4424,1.5915,1.6536,1.7301,1.8416,1.9858,2.0926,2.1599,2.2625,2.3361,2.3663,2.3973,2.3866,2.3321,2.2628,2.1767,2.0776,2.0193,1.9852,1.973,1.9601,1.9078,1.8311,1.8243,1.8035,1.7776,1.7436,1.7294,1.7247,1.6773,1.6581,1.6528,1.6191,1.6191,1.6301,0.0,0.0,0.0,0.0,0.0,0.0,0.0,0.0,0.0,0.0,0.0,0.0,0.0,0.0,0.0,0.0,-3.0398,-3.0398,-3.0398,-3.0398,-3.0311,-3.0103,-3.0047,-2.9939,-2.978,-2.957,-2.9454,-2.9412,-2.9097,-2.8713,-2.8246,-2.7351,-2.5991,-2.4356,-2.4392,-2.4147,-2.3625,-2.3761,-2.3816,-2.3816,-2.3917,-2.4065,-2.4226,-2.4326,-2.4494,-2.4641,-2.4537,-2.4386,-2.419,-2.4064,-2.3544,-2.2915,-2.2623,-2.1606,0.0,0.0,0.0,-1.2732,-0.7841,-0.5159,-0.3283,-0.1538,-0.0389,0.052,0.1097,0.1676,0.2266,0.2876,0.4113,0.5356,0.6185,0.6288,0.6656,0.7712,0.8665,0.9548,1.0394,1.18,1.2956,1.347,1.447,1.552,1.6519,1.7233,1.8076,1.9133,2.0317,2.1243,2.1778,2.2694,2.3092,2.2849,2.3328,2.3202,2.243,2.1714,2.1015,2.0332,2.0172,2.0078,2.0069,1.9922,1.9557,1.9031,1.8841,1.8698,1.8566,1.8097,1.7928,1.7885,1.7247,1.7035,1.6986,1.6581,1.6581,1.6738,0.0,0.0,0.0,0.0,0.0,0.0,0.0,0.0,0.0,0.0,0.0,0.0,-3.0398,-3.0398,-3.0398,-3.0398,-3.0398,-3.0398,-3.0398,-3.0398,-3.0398,-3.0367,-3.0136,0.0,-2.9984,-2.978,-2.9589,-2.9412,-2.8986,-2.8499,-2.7926,-2.7465,-2.6633,-2.5454,-2.4062,-2.3447,-2.3391,-2.2945,-2.2772,-2.2822,-2.3117,-2.3673,-2.4346,-2.4721,-2.5298,-2.5863,-2.5463,-2.5466,-2.5523,-2.5005,-2.4442,-2.3903,-2.3759,-2.2911,-2.1499,0.0,0.0,0.0,-0.7499,-0.5474,-0.3856,-0.1656,0.0066,0.1196,0.1101,0.3062,0.4807,0.4358,0.5743,0.7271,0.8362,0.8521,0.8574,0.8626,0.9769,1.1149,1.2473,1.2715,1.348,1.5252,1.5959,1.6562,1.7175,1.821,1.917,2.007,2.0684,2.1472,2.2574,2.2996,2.3142,2.298,2.3322,2.2911,2.168,2.0876,2.0449,2.0389,2.0311,2.0285,2.0277,2.0069,1.9893,1.9743,1.9331,1.8943,1.8585,1.8566,1.8547,1.8491,1.7907,1.7648,1.758,1.6986,1.6789,1.6789,0.0,0.0,0.0,0.0,0.0,0.0,0.0,0.0,0.0,0.0,0.0,0.0,0.0,-3.0398,-3.0398,-3.0398,-3.0398,-3.0398,-3.0398,-3.0398,-3.0398,-3.0398,-3.0311,-3.0254,-3.0254,-3.0018,-2.9796,-2.9589,-2.9318,-2.8847,-2.821,-2.7851,-2.7068,-2.5932,-2.4871,-2.415,-2.368,-2.3222,-2.3277,-2.3751,-2.3851,-2.4378,-2.5128,-2.5458,-2.578,-2.602,-2.614,-2.6234,-2.6256,-2.6069,-2.585,-2.5521,-2.4746,-2.3892,-2.2519,-1.9007,-1.5847,-1.2875,-0.9951,-0.7494,-0.5219,-0.3058,-0.0988,0.082,0.2306,0.3843,0.5196,0.5855,0.733,0.849,0.8679,0.8678,0.9141,1.0477,1.1481,1.2385,1.3321,1.41,1.4959,1.6003,1.6604,1.7327,1.8263,1.8939,1.9606,2.0234,2.0959,2.1668,2.2289,2.288,2.3044,2.2701,2.2685,2.2052,2.0784,2.0487,2.0357,2.0391,2.0324,2.0308,2.0304,2.0233,2.0097,1.9922,1.97,1.9364,1.9031,1.8913,1.8861,1.8807,1.8434,1.8173,1.7963,1.7528,1.7399,1.7384,0.0,0.0,0.0,0.0,0.0,0.0,0.0,0.0,0.0,-3.0398,0.0,0.0,0.0,0.0,-3.0402,-3.0439,-3.0414,-3.0402,-3.0439,-3.0414,-3.0398,-3.0398,-3.0398,-3.0398,-3.0398,-3.0241,-3.0018,-2.9796,-2.9607,-2.9175,-2.8517,-2.7861,-2.7045,-2.6143,-2.4976,-2.4196,-2.3698,-2.3389,-2.3563,-2.4025,-2.4286,-2.4833,-2.5586,-2.6081,-2.6419,-2.6666,-2.6918,-2.7061,-2.7085,-2.7019,-2.6878,-2.6604,-2.6034,-2.4708,-2.2668,-1.9304,-1.6617,-1.4225,-1.1646,-0.8996,-0.6303,-0.3886,-0.144,0.0864,0.266,0.4414,0.5889,0.6629,0.8288,0.9526,0.9413,0.9754,1.0554,1.1895,1.2686,1.3453,1.4261,1.5252,1.6102,1.6646,1.7354,1.8145,1.8817,1.9492,2.0008,2.0516,2.1197,0.0,2.2164,2.2805,2.2914,2.2335,2.2025,2.1335,2.0216,2.0263,2.0312,2.0375,2.0347,2.0313,2.0295,2.0292,2.0197,2.0003,1.9912,1.9695,1.9398,1.9182,1.9084,1.9086,1.8825,1.8641,1.843,1.8115,1.7963,1.7883,0.0,0.0,0.0,0.0,0.0,0.0,0.0,0.0,-3.0398,-3.0398,0.0,0.0,0.0,0.0,0.0,-3.049,-3.0441,-3.0419,-3.0498,-3.0441,-3.0421,-3.0421,-3.0421,-3.0421,-3.0421,-3.039,-3.0267,-3.0013,-2.9813,-2.94,-2.8773,-2.7438,-2.6591,-2.6091,-2.4245,-2.3422,-2.3393,-2.3393,-2.341,-2.3494,-2.4222,-2.4966,-2.5722,-2.6503,-2.7288,-2.7875,-2.7851,-2.7938,-2.8104,-2.7893,-2.7461,-2.7045,-2.7595,-2.5348,-2.2075,-1.9993,-1.7525,-1.4931,0.0,0.0,0.0,-0.4128,-0.1153,0.119,0.2016,0.4817,0.7158,0.6728,0.8613,1.0417,1.0734,1.1895,1.2822,1.287,1.3416,1.4272,1.5454,1.6089,1.6646,1.7258,1.8263,1.8893,1.893,1.9778,2.0516,2.0991,2.1399,2.1823,2.2282,2.2857,2.2815,2.2015,2.1501,2.083,2.0012,2.0197,2.0285,2.0292,2.0375,2.0368,2.0297,2.0295,2.0186,2.0012,1.9993,1.9858,1.9596,1.9394,1.9305,1.9289,1.9102,1.9019,1.8966,1.8715,1.845,1.8208,0.0,0.0,0.0,0.0,0.0,0.0,0.0,-3.0491,-3.0398,0.0,0.0,0.0,-3.0398,-3.0441,-3.0482,-3.0498,-3.0521,-3.054,-3.0568,-3.0547,-3.0545,-3.0545,-3.0545,-3.0545,-3.0545,-3.049,-3.0364,0.0,0.0,0.0,0.0,0.0,-2.6677,-2.5368,-2.4247,-2.3636,-2.3393,-2.3393,-2.3697,-2.4269,-2.5,-2.5744,-2.6453,-2.6961,-2.7473,-2.7918,-2.8142,-2.845,-2.8739,-2.8691,-2.8566,-2.829,-2.7638,-2.6108,-2.4053,-2.181,-1.9679,-1.7384,-1.4474,0.0,0.0,0.0,0.0,0.0,0.1561,0.4307,0.6559,0.7236,0.9307,1.0987,1.0836,1.2288,1.3663,1.4122,1.4721,1.5231,1.5531,1.6446,1.7244,1.7814,1.8496,1.9177,1.9849,2.0434,2.0991,0.0,2.184,2.2163,2.2282,2.2857,2.2729,2.1675,2.1726,2.1205,2.0003,2.006,2.0161,2.0292,2.0327,2.0339,2.0368,2.0324,2.0266,2.0205,2.0109,2.0002,1.988,1.9612,1.9513,1.9499,1.9308,1.9117,1.8984,1.8914,1.8715,1.8489,0.0,0.0,0.0,0.0,0.0,0.0,-3.0606,-3.0491,-3.0398,0.0,0.0,0.0,-3.043,-3.0472,-3.0521,-3.0581,-3.06,-3.0617,-3.0648,-3.0623,-3.0606,-3.0606,-3.0606,-3.0606,-3.0606,-3.0537,-3.0443,0.0,0.0,0.0,0.0,0.0,0.0,0.0,-2.4731,-2.4109,-2.3642,-2.4113,-2.456,-2.5017,-2.5761,-2.6319,-2.6758,-2.7147,-2.753,-2.7936,-2.829,-2.8658,-2.8994,-2.8994,-2.8994,-2.8805,-2.7775,-2.676,-2.5455,-2.3294,-2.1483,-1.9497,-1.6334,-1.3863,-1.1469,-0.8296,0.0,0.0,0.0563,0.3554,0.6091,0.7036,0.9302,1.1017,1.0854,1.2628,1.4283,1.4652,1.5421,1.6039,1.6275,1.7079,1.7827,1.838,1.8893,1.9522,2.0246,2.0715,2.115,2.1552,2.2032,2.2349,2.2463,2.2789,2.2508,2.1443,2.1656,2.115,1.9843,1.9934,2.006,2.0188,2.027,2.032,2.0359,2.035,2.0324,2.0299,2.026,2.0195,2.0106,1.9893,1.9767,1.9669,1.9495,1.9335,1.923,1.915,1.8966,1.877,0.0,0.0,0.0,0.0,0.0,0.0,0.0,-3.0498,-3.0417,0.0,-3.0417,-3.0451,-3.0507,-3.0513,-3.0568,-3.069,-3.0661,-3.0652,-3.0718,-3.0661,-3.0628,-3.0628,-3.0628,-3.0628,-3.0628,-3.0567,-3.0521,0.0,0.0,0.0,0.0,0.0,0.0,0.0,0.0,-2.4667,-2.4078,-2.5053,-2.5542,-2.5713,-2.6437,-2.6691,-2.6758,-2.7083,-2.75,-2.7926,-2.821,-2.859,-2.8994,-2.8994,-2.9017,-2.8897,-2.8092,-2.744,-2.656,-2.4602,-2.3105,-2.1385,-1.8134,-1.5959,-1.3715,-0.9945,-0.6483,0.0,-0.0937,0.2462,0.5391,0.6298,0.8717,1.0704,1.0762,1.2946,1.4698,1.4698,1.5744,1.6752,1.7229,1.7747,1.8302,1.8855,1.9369,1.9874,2.0314,2.0731,2.1118,2.1628,2.2061,2.2398,2.2634,2.2695,2.2282,2.1353,2.1424,2.0904,1.9704,1.9862,1.9964,1.9993,2.0169,2.0276,2.0297,2.0352,2.0351,2.0306,2.0369,2.0364,2.0292,2.0165,2.0002,1.9802,1.9669,1.9623,1.9596,1.9394,1.923,1.9069,-3.0501,0.0,0.0,0.0,0.0,0.0,0.0,-3.0617,-3.0554,-3.0554,-3.0554,-3.0581,-3.0581,-3.0638,-3.0677,-3.0693,-3.079,-3.0856,-3.0858,-3.0857,-3.0835,-3.0835,-3.0835,-3.0835,-3.0835,-3.071,-3.0669,0.0,0.0,0.0,0.0,0.0,0.0,0.0,0.0,-2.4611,-2.4787,-2.4743,-2.5178,-2.5957,-2.6488,-2.6691,-2.6725,-2.6791,-2.7272,-2.7869,-2.7619,-2.8156,-2.8994,-2.8994,-2.9156,-2.9251,-2.8864,-2.8581,-2.8082,-2.655,-2.4758,-2.2818,-2.0752,-1.8271,-1.5666,-1.3037,-0.9772,0.0,-0.3456,0.0166,0.3403,0.5333,0.7939,1.0105,1.0704,1.2946,1.4698,1.4698,1.6058,1.7188,1.7312,1.7747,1.8302,1.8855,1.9369,2.0015,2.0797,2.0583,2.091,2.2077,2.2254,2.2321,2.2388,2.2634,2.2382,2.1475,2.1375,2.0953,2.017,1.9829,1.9797,1.9993,2.0031,2.0131,2.0306,2.0308,2.0303,2.0302,2.0369,2.0363,2.0294,2.0276,2.0133,1.9953,1.9802,1.9762,1.9738,1.9609,1.9513,1.9456,-3.0458,-3.0575,0.0,0.0,0.0,0.0,0.0,0.0,-3.0606,-3.0606,-3.0606,-3.0617,-3.0652,-3.068,-3.0721,-3.0793,-3.0858,-3.0898,-3.0898,-3.0898,-3.0898,-3.0898,-3.0837,-3.0836,-3.0898,-3.0739,-3.0671,0.0,0.0,0.0,0.0,0.0,0.0,0.0,0.0,-2.603,-2.5552,-2.5564,-2.5899,-2.6367,-2.6624,-2.6556,-2.6367,-2.6624,-2.7083,-2.756,-2.7348,-2.789,-2.8725,-2.8929,-2.9178,-2.9394,-2.9355,-2.9235,-2.8886,-2.7843,-2.6543,-2.5062,-2.3287,-2.0884,-1.8427,-1.6393,-1.2807,0.0,0.0,-0.2205,0.1301,0.3887,0.6934,0.938,1.0105,1.2676,1.4698,1.4698,1.6176,1.7394,1.7666,1.8185,1.8688,1.9244,1.953,1.9945,2.0599,2.0449,2.0682,2.1584,2.184,2.1957,2.1957,2.2343,2.2228,2.1505,2.16,2.1173,2.0209,2.0203,2.0049,1.979,1.9869,1.9992,2.0152,2.0184,2.0243,2.0293,2.0374,2.0371,2.0341,2.0357,2.0294,2.0182,1.9982,1.9901,1.989,1.975,1.9707,1.9682,-3.0424,-3.0547,0.0,0.0,0.0,0.0,0.0,0.0,-3.0662,-3.0662,-3.0633,-3.0648,-3.069,-3.0687,-3.0716,-3.0834,-3.0835,-3.0856,-3.0858,-3.0858,-3.0859,-3.0858,-3.0767,-3.0743,-3.0835,-3.0701,-3.0644,0.0,0.0,0.0,0.0,0.0,0.0,0.0,-2.7966,-2.7344,-2.6278,-2.6429,-2.6522,-2.659,-2.6657,-2.647,-2.6191,-2.6556,-2.6971,-2.7334,-2.747,-2.7862,-2.8394,-2.8892,-2.9228,-2.9437,-2.9643,-2.957,-2.9307,-2.8789,-2.8031,-2.7037,-2.545,-2.334,-2.1181,-1.9358,-1.5649,-1.1721,0.0,0.0,0.0,0.1843,0.5422,0.8332,0.9468,1.2436,1.4744,1.4835,1.6348,1.7626,1.8027,1.865,1.9207,1.9639,1.9854,2.0035,2.028,2.0382,2.0583,2.0959,2.1368,2.1658,2.1718,2.2106,2.2116,2.167,2.1819,2.1432,2.0492,2.0596,2.0385,1.9838,1.9776,1.9824,1.9954,2.003,2.012,2.0241,2.0304,2.0355,2.038,2.0387,2.0384,2.0386,2.015,2.006,2.005,1.989,1.9836,1.9813,-3.0395,-3.0547,-3.0628,0.0,0.0,0.0,0.0,0.0,-3.0877,-3.0877,-3.0765,-3.069,-3.0693,-3.0652,-3.0623,-3.0628,-3.0628,-3.0657,-3.0718,-3.0721,-3.0719,-3.0723,-3.0716,-3.0677,-3.0633,-3.0661,-3.0684,-3.0706,0.0,0.0,0.0,0.0,0.0,0.0,-2.7703,-2.7114,-2.6841,-2.6061,-2.5849,-2.612,-2.6539,-2.6657,-2.6624,-2.6691,-2.6971,-2.7378,-2.8057,-2.8156,-2.8102,-2.9038,-2.94,-2.9509,-2.9658,-2.9602,-2.949,-2.9544,-2.8651,-2.7485,-2.6746,-2.5179,-2.3223,-2.1011,-1.8384,-1.5503,-1.2183,0.0,-0.5272,-0.1329,0.0,0.6442,0.9048,0.0,0.0,1.541,1.6928,1.8027,1.8106,1.8968,1.9639,1.969,2.0379,2.0698,2.0348,2.0698,2.0926,2.1007,2.1368,2.1794,2.2209,2.2282,2.226,2.2203,2.179,2.1644,2.1768,2.0727,2.0346,2.0662,1.9963,1.9695,1.9813,1.9836,1.9912,2.0031,2.009,2.02,2.0314,2.0305,2.0346,2.0381,2.0289,2.0269,2.0241,2.005,1.9983,1.9963,-3.0139,-3.0421,-3.0617,-3.0643,0.0,0.0,0.0,0.0,-3.1641,-3.1641,-3.201,-3.2261,-3.2261,-3.1823,-3.1496,-3.141,-3.1022,-3.0757,-3.0696,-3.0701,-3.0698,-3.0696,-3.0638,-3.0594,-3.0606,-3.0594,-3.0614,-3.0696,-3.0698,0.0,0.0,0.0,0.0,0.0,-2.8428,-2.8027,-2.7974,-2.6739,-2.6556,-2.7021,-2.6792,-2.6691,-2.6691,-2.6691,-2.6808,-2.7019,-2.7572,-2.7823,-2.7992,-2.8603,-2.9182,-2.9603,-2.9533,-2.9658,-2.9813,-2.9952,-2.9478,-2.8917,-2.8853,-2.6711,-2.442,-2.3979,-2.1116,-1.7928,-1.61,-1.3643,-1.0795,-0.7485,0.0,0.0,0.0,0.0,0.0,0.0,1.7424,1.8531,1.8574,1.9854,2.0616,2.0089,2.0507,0.0,2.0537,2.0562,2.0499,2.0277,2.0616,2.0927,2.115,2.1628,2.1899,2.1899,2.2105,2.2044,2.1707,2.1084,2.0662,2.04,1.9737,1.9509,1.9682,1.9682,1.9762,1.9901,2.0012,2.0093,2.0196,2.027,2.0366,2.0445,2.0382,2.0351,2.0342,2.0263,2.0227,2.0218,-2.9893,-3.0265,-3.0575,-3.06,0.0,0.0,0.0,-3.1797,-3.2207,-3.2207,-3.287,-3.3279,-3.3045,-3.2452,-3.2065,-3.1987,-3.1243,-3.076,-3.0696,-3.0683,-3.0684,-3.0696,-3.0575,-3.0521,-3.0568,-3.0521,-3.0559,-3.0657,0.0,0.0,0.0,0.0,0.0,0.0,-2.9144,-2.8927,-2.8971,-2.7705,-2.7538,-2.8078,-2.7317,-2.6877,-2.6691,-2.6691,-2.6691,-2.6758,-2.7147,-2.756,-2.7964,-2.8358,-2.9015,0.0,-2.9514,-2.966,-2.9897,-3.0021,-2.9899,-2.9673,-2.958,-2.7574,-2.5535,-2.5728,-2.3157,-2.0358,-1.9434,-1.7725,-1.555,-1.2902,-0.8383,0.0,0.0,0.0,1.1729,1.6661,0.0,1.92,1.9244,2.052,2.1165,2.0382,2.0645,2.0903,0.0,2.065,2.0345,2.0146,2.0231,2.0348,2.0483,2.1102,2.143,2.143,2.2057,2.2158,2.1679,2.1273,2.0827,2.0407,1.9606,1.932,1.9513,1.9513,1.9604,1.975,1.9847,1.9955,2.009,2.0186,2.0307,2.0446,2.0408,2.0416,2.0435,2.0405,2.0411,2.0392,-2.9713,-3.0132,-3.0521,-3.0587,-3.0665,-3.104,0.0,-3.2187,-3.2207,-3.2207,-3.2844,-3.2985,-3.2143,-3.1909,-3.1833,-3.1896,-3.1045,-3.0561,-3.069,-3.0641,-3.0622,-3.0696,-3.0575,-3.0498,-3.0507,-3.0498,-3.0507,-3.0516,0.0,0.0,0.0,0.0,0.0,0.0,-2.9621,-2.9401,-2.9702,-2.8753,-2.8579,-2.8873,-2.8095,-2.7351,-2.6691,-2.6691,-2.6691,-2.6758,-2.7147,0.0,0.0,-2.8579,-2.9109,0.0,0.0,0.0,0.0,0.0,-2.957,-2.9158,0.0,0.0,0.0,-2.5153,-2.4149,-2.319,-2.1722,-2.0351,-1.8698,-1.6331,-1.3359,-0.8074,0.2182,0.5483,0.9617,1.8714,2.0152,0.0,0.0,2.0651,2.0829,2.0348,2.0883,2.1479,2.1911,2.1188,2.0835,2.1234,2.0651,2.0483,2.0959,2.0991,2.1023,2.1023,2.143,2.1786,2.209,2.0992,2.0714,2.1255,1.9741,1.9101,1.9305,1.9305,1.9409,1.9614,1.9609,1.9762,1.9993,2.0012,2.0124,2.0308,2.0386,2.0445,2.0486,2.0419,2.0402,2.0402,-3.0526,-3.0807,-3.0917,-3.0602,-3.0638,-3.1038,-3.205,-3.2656,-3.2987,-3.292,-3.3654,-3.3812,-3.2898,-3.2289,-3.1924,-3.1902,-3.1196,-3.0752,-3.0696,-3.0637,-3.0638,-3.0693,-3.0529,-3.0452,-3.0498,-3.0452,-3.0452,-3.0498,-3.0521,0.0,0.0,0.0,0.0,0.0,0.0,-2.9891,-3.0446,-2.9183,-2.8795,-2.8873,-2.7588,-2.6911,-2.6691,0.0,-2.6691,-2.6725,-2.6841,-2.7317,0.0,-2.7531,-2.794,-2.8465,-2.7845,-2.7829,-2.8029,-2.7991,-2.8036,0.0,0.0,0.0,-2.5424,-2.5894,0.0,0.0,0.0,-2.289,-2.1877,-2.089,-1.7121,-1.2349,-0.689,0.0313,0.7399,1.3432,1.7966,2.0919,0.0,2.1665,2.1782,2.1893,2.1913,2.2021,2.2196,2.1405,2.0887,2.0894,2.0288,1.998,2.0139,2.0398,2.055,2.055,2.0975,2.1383,2.1774,2.0608,2.0237,2.0692,1.9367,1.8861,1.9084,1.9084,1.9214,1.9394,1.9541,1.9707,1.988,1.9954,2.0115,2.0292,2.032,2.0391,2.0566,2.1167,2.1027,2.0537,-3.0772,-3.1101,-3.1317,-3.1381,-3.1501,-3.1913,-3.2902,-3.3237,-3.3359,-3.33,-3.3782,-3.3793,-3.2859,-3.2283,-3.198,-3.2003,-3.1274,-3.0816,-3.0771,-3.0684,-3.0669,-3.0769,-3.0581,-3.0498,-3.0568,-3.0482,-3.0452,-3.0498,-3.0472,-3.0498,0.0,0.0,0.0,0.0,0.0,-3.0395,-3.1099,-2.9899,-2.9481,-2.9484,-2.7759,-2.6928,-2.6691,0.0,-2.6691,-2.6691,0.0,-2.6843,-2.7197,-2.6641,-2.6874,-2.729,-2.6762,-2.6821,-2.7042,-2.6948,-2.7059,-2.7219,-2.7189,-2.6129,0.0,-2.6038,-2.4956,0.0,-2.4686,0.0,-2.3602,-2.3359,-2.0357,-1.594,-0.9925,-0.3573,0.3545,1.1972,1.8374,2.2395,0.0,2.2669,2.2617,2.2678,2.253,2.2403,2.2429,2.1647,2.1084,2.0909,2.0169,1.9694,1.969,1.9945,2.0089,2.0089,2.0516,2.0878,2.1134,2.0146,1.9841,2.0164,1.9003,1.8585,1.8861,1.8949,1.9069,1.9196,1.9413,1.9599,1.9821,1.9901,2.0079,2.0312,2.0312,2.0377,2.0533,2.1169,2.1055,2.0644,-3.0546,-3.1146,-3.1809,-3.2888,-3.3125,-3.3511,-3.4445,-3.3867,-3.3307,-3.3307,-3.3258,-3.2904,-3.202,-3.1885,-3.1913,-3.2109,-3.126,-3.0769,-3.0898,-3.0771,-3.0767,-3.0898,-3.0712,-3.0638,-3.0693,-3.0568,-3.0498,-3.0498,-3.0419,0.0,0.0,0.0,0.0,0.0,-3.0424,-3.081,-3.159,-3.0729,-3.0437,-3.0404,-2.8492,-2.7299,-2.6657,-2.6691,-2.6641,-2.6539,-2.621,-2.61,-2.6121,-2.5961,-2.5961,-2.6072,-2.638,-2.6463,-2.6463,-2.6484,-2.6631,-2.6654,-2.6171,-2.6104,-2.6044,-2.5516,0.0,0.0,0.0,0.0,-2.3895,0.0,0.0,-1.8524,-0.7577,-0.5963,-0.1355,1.3793,2.0928,2.4355,2.3763,2.3584,2.3338,2.2788,2.2651,2.2586,2.2556,2.1817,2.1302,2.126,2.0268,1.9711,1.972,1.972,1.9683,1.9639,2.0054,2.028,2.028,1.9675,1.9497,1.9739,1.8694,1.8325,1.8566,1.8825,1.8966,1.9001,1.9214,1.949,1.9797,1.9797,1.9991,2.0285,2.0285,2.0331,2.041,2.0488,2.0605,2.084,-3.218,-3.3318,-3.4079,-3.3917,-3.343,-3.3378,-3.4374,-3.3823,-3.328,-3.3223,-3.2704,-3.1975,-3.1052,-3.0992,-3.1038,-3.1077,-3.0931,-3.0858,-3.0898,-3.0771,-3.0767,-3.0898,-3.0712,-3.0638,-3.0693,-3.0568,-3.0498,-3.0498,-3.0419,0.0,-3.0428,0.0,0.0,0.0,0.0,-3.0637,-3.0766,-3.0211,-2.9402,-2.8458,-2.7385,-2.6655,-2.6227,0.0,-2.593,-2.4928,-2.5495,-2.5592,-2.5321,-2.489,-2.48,-2.4813,-2.4819,-2.4636,-2.4496,-2.4736,-2.4949,-2.5089,-2.4944,-2.4746,-2.4651,-2.4889,-2.4512,-2.4077,0.0,0.0,0.0,0.0,0.0,0.0,0.0,0.0,0.0906,0.641,1.6704,2.4165,2.4648,2.4273,2.379,2.3338,2.291,2.2546,2.2182,2.1186,2.066,2.0835,2.0118,1.9711,1.972,0.0,1.9537,1.9109,1.9573,1.9823,1.9763,1.9429,1.9211,1.913,1.8557,1.8168,1.795,1.8255,1.8623,1.9001,1.9052,1.9308,1.9643,1.9643,1.9821,2.0078,2.0078,2.0169,2.0355,2.0516,2.1406,2.2461,-3.2594,-3.384,-3.468,-3.4623,-3.3895,-3.3608,-3.4384,-3.4069,-3.3624,-3.3281,-3.2495,-3.176,-3.1265,-3.0915,-3.0721,-3.0772,-3.0507,-3.0488,-3.0879,-3.0465,-3.0425,-3.0879,-3.0784,-3.0755,-3.0792,-3.0652,-3.0575,-3.0533,-3.0472,0.0,-3.041,0.0,0.0,0.0,0.0,-3.0721,-3.0879,-2.9992,-2.9016,-2.7964,-2.7063,-2.6252,0.0,-2.5864,-2.4824,-2.3374,-2.4083,-2.4197,-2.4018,-2.3884,-2.3763,-2.37,-2.3901,-2.3735,-2.3544,-2.3896,-2.4117,-2.4282,-2.4282,-2.4316,-2.4393,-2.4542,-2.4209,-2.3817,-2.3781,-2.3573,-2.3251,0.0,-1.8971,-1.4996,0.0,0.0,-0.2017,0.9555,1.8087,2.3621,2.4647,2.456,2.4171,2.3578,2.2814,2.2141,2.16,2.0767,2.0358,2.0565,1.9845,1.939,0.0,0.0,1.9091,1.8549,1.8855,1.9118,1.931,1.9011,1.8743,1.86,1.8394,1.8038,1.7528,1.7984,1.8371,1.866,1.8896,1.9148,1.9434,1.9555,1.9762,2.0012,2.0106,2.0188,2.0353,2.0895,2.1715,2.2578,-3.257,-3.3562,-3.4383,-3.498,-3.438,-3.3911,-3.4292,-3.4135,-3.3777,-3.32,-3.2342,-3.1757,-3.1682,-3.1014,-3.0595,-3.0723,-2.9922,-2.9805,-3.0664,-3.0019,-2.9883,-3.0527,-3.0781,-3.0859,-3.0723,-3.0706,-3.0665,-3.0606,-3.0521,0.0,0.0,0.0,0.0,0.0,-3.0582,-3.0788,-3.1047,-2.9783,-2.8816,-2.8077,-2.6944,-2.5832,-2.489,-2.4791,-2.3582,-2.1981,-2.2443,-2.2554,-2.2543,-2.2989,-2.283,-2.2626,-2.3392,-2.3369,-2.3124,-2.3522,-2.3826,-2.3988,-2.3911,-2.4298,-2.4613,-2.4258,-2.3989,-2.3731,-2.3393,-2.3428,-2.3075,-2.1493,-1.7734,-1.2454,0.0,0.0,-0.3934,1.7616,2.2007,2.307,2.4158,2.4562,2.4382,2.3401,2.2478,0.0,2.0975,2.0401,2.0093,2.0182,1.9472,0.0,0.0,0.0,1.8645,1.8001,1.8066,1.8302,1.8688,0.0,1.831,1.8037,1.8211,1.7918,1.7231,1.781,1.8125,1.8229,1.8697,1.8998,1.9185,1.9438,1.9713,1.9993,2.0188,2.0334,2.0534,2.1248,2.1768,2.2221,-3.3654,-3.4059,-3.4383,-3.498,-3.438,-3.3719,-3.3468,-3.2797,-3.231,-3.2241,-3.1559,-3.0801,-3.0097,-2.9882,-2.9804,-2.9824,-2.9023,-2.8906,-2.9766,-2.9687,-2.9355,-2.8789,-3.0137,-3.0566,-2.9844,-3.0349,-3.0617,-3.0606,-3.0472,-3.0414,0.0,0.0,0.0,0.0,-3.0533,-3.0019,-2.9145,-2.8629,0.0,-2.691,-2.5765,-2.4919,-2.4297,-2.3716,-2.2449,-2.1051,-2.1895,-2.1811,-2.1453,-2.2449,-2.2124,-2.1532,-2.2863,-2.2838,-2.2407,-2.31,-2.3623,-2.3911,-2.345,-2.3731,-2.4026,-2.352,-2.3124,-2.2755,-2.2432,-2.2754,-2.0878,-1.3067,-0.9311,-0.5289,0.1719,0.0,0.0,2.0311,2.2608,2.34,2.3782,2.4246,2.3941,2.2289,2.2082,2.1645,2.0534,1.9654,1.9136,1.915,1.9053,0.0,0.0,0.0,1.8508,0.0,1.7867,0.0,0.0,0.0,1.8238,1.7127,1.7853,1.7764,1.6917,1.728,1.7721,1.8208,1.829,1.8586,1.9034,1.9086,1.9387,1.9847,1.9993,2.0563,2.1235,2.0727,2.1918,2.3818,-3.3817,-3.3986,-3.4041,-3.4188,-3.3505,-3.2829,-3.2511,-3.1753,-3.1437,-3.2036,-3.1337,-3.0658,-3.0312,-2.9473,-2.8926,-2.8926,-2.8125,-2.8008,-2.8867,-2.8496,-2.8242,-2.8256,-2.9485,-2.9968,-2.9503,-3.021,-3.0522,-3.0393,-3.0323,-3.0209,-3.0037,0.0,0.0,-3.0346,-3.0338,-2.9963,-2.9276,0.0,0.0,-2.7238,-2.6268,-2.5007,-2.3658,-2.332,-2.1941,-2.0279,-2.0914,-2.0646,-2.0097,-2.1409,-2.1458,-2.1197,-2.23,-2.2135,-2.1665,-2.2407,-2.281,-2.297,-2.2702,-2.294,-2.3181,-2.2728,-2.2319,-2.2071,-2.2246,-1.9292,-1.5366,-1.138,-0.459,0.2783,0.9841,1.5106,0.0,0.0,0.0,2.2798,2.3266,2.3573,2.3221,2.1851,2.1295,2.0607,1.9632,1.8646,1.8309,1.8869,1.8698,1.8364,0.0,0.0,1.8074,0.0,0.0,0.0,0.0,0.0,0.0,1.7338,1.7911,1.763,1.6554,1.7076,1.7462,1.7743,1.8065,1.8351,1.8604,1.8964,1.9343,1.9732,1.9933,2.0298,2.0736,2.0864,2.2032,2.3546,-3.3451,-3.3566,-3.3543,-3.3259,-3.2506,-3.1901,-3.1816,-3.113,-3.0906,-3.1774,-3.1062,-3.0435,-3.0351,-2.8965,-2.8027,-2.8027,-2.7226,-2.709,-2.7948,-2.7362,-2.7163,-2.7605,-2.8831,-2.9375,-2.9132,-2.9907,-3.0199,-3.0004,-2.9936,0.0,0.0,0.0,0.0,0.0,0.0,0.0,0.0,0.0,-2.786,-2.7417,-2.6368,-2.4791,-2.2984,-2.2489,-2.1137,-1.9551,-1.9743,-1.928,-1.8698,-1.9808,-2.0187,-2.0389,-2.1513,-2.1067,-2.0311,-2.1217,-2.1562,-2.1603,-2.1532,-2.1922,-2.2285,-2.1967,-2.1026,-2.0095,-1.9717,-1.4267,-0.8757,-0.6795,0.2613,1.2228,1.7881,2.1244,0.0,0.0,0.0,0.0,2.2943,2.2825,2.2353,2.1301,2.0336,1.9426,1.8536,1.7652,1.7439,1.8235,1.8125,1.779,1.7225,0.0,0.0,0.0,0.0,1.6824,1.7558,0.0,1.7838,1.7372,1.7847,1.7469,1.6328,1.6926,1.7224,1.7344,1.7871,1.8166,1.833,1.891,1.9328,1.9623,1.9824,2.0058,2.0365,2.1166,2.2188,2.3163,-3.2537,-3.2773,-3.2966,-3.2646,-3.1914,-3.1475,-3.1748,-3.113,-3.0653,-3.081,-3.017,-2.9414,-2.8633,-2.7695,-2.7129,-2.7129,-2.6328,-2.617,-2.6976,-2.6954,-2.6568,-2.5795,-2.8092,-2.904,-2.8251,-2.8953,-2.9326,-2.9289,-2.9051,-2.8907,0.0,0.0,0.0,0.0,0.0,0.0,0.0,-2.7853,-2.7078,-2.6007,-2.4218,-2.3092,-2.2257,-2.0132,-1.9182,-1.893,-1.8482,-1.7892,-1.737,-1.7518,-1.7558,-1.7968,-2.0356,-1.9366,-1.7589,-1.9105,-1.9765,-1.995,-1.9642,-2.056,-2.1513,-2.118,-1.8519,-1.4951,-1.1135,-0.7744,-0.2126,0.9536,1.8315,2.41,2.4762,2.4779,2.4778,0.0,0.0,0.0,2.3064,2.2332,2.1324,1.9943,1.9279,1.8484,1.7451,1.6831,1.6461,1.6356,1.7066,1.72,0.0,0.0,0.0,1.57,0.0,1.6281,1.584,1.7341,1.7498,1.6261,1.729,1.7228,1.6313,1.6686,1.7002,1.732,1.7681,1.8103,1.8585,1.8896,1.9246,1.9596,1.9623,2.0269,2.1195,2.1281,2.246,2.3995,-3.1759,-3.2027,-3.2107,-3.1617,-3.1409,0.0,0.0,-3.0277,-2.977,-2.9803,-2.9235,-2.8496,-2.7617,-2.6716,-2.6163,-2.6163,-2.5798,-2.572,-2.6034,-2.6054,-2.5872,-2.546,-2.6935,-2.7605,-2.7213,-2.8,-2.8357,-2.8241,-2.8613,0.0,0.0,0.0,0.0,0.0,0.0,-2.9251,-2.855,-2.7674,-2.6682,-2.5547,-2.3947,-2.2555,-2.1205,-1.9575,-1.8512,-1.7799,-1.7234,-1.638,-1.5615,-1.5936,-1.6051,-1.6363,-1.803,-1.7354,-1.5936,-1.5954,-1.6049,-1.5841,-1.4381,-1.4447,-1.4878,-1.472,-1.338,-1.1386,-0.8555,-0.3093,0.3191,0.9456,1.7985,2.4609,2.5527,2.4773,2.4116,0.0,0.0,0.0,0.0,2.1055,1.9848,1.9531,1.8551,1.745,1.6366,1.6373,1.6113,1.5303,1.655,0.0,0.0,0.0,0.0,1.5463,0.0,1.6355,1.6089,1.701,1.7176,1.6578,1.6943,1.6713,1.6011,1.6554,1.7076,1.7612,1.7726,1.8103,1.8604,1.8715,1.9016,1.9423,1.9555,1.9894,2.0351,2.1056,2.2114,2.3284,-3.0917,0.0,-3.1171,0.0,-3.0343,-3.027,-2.966,-2.9109,-2.8692,-2.8485,-2.8115,-2.7629,-2.7004,-2.6127,-2.5567,-2.5567,-2.5535,-2.5493,-2.5493,-2.5473,-2.5453,-2.5398,-2.6231,0.0,-2.6641,-2.7248,-2.7508,-2.7354,-2.7854,0.0,0.0,0.0,0.0,0.0,-2.9515,-2.9085,-2.8517,-2.7081,-2.5944,-2.4963,-2.3069,-2.1469,-2.0026,-1.8331,-1.7167,-1.6308,-1.5516,-1.4283,-1.3073,-1.3472,-1.262,-1.1927,-1.465,-1.4181,-1.2473,-1.1435,-1.1098,-1.0602,-0.8297,-0.7881,-0.8091,-0.7924,-0.6925,-0.537,-0.279,0.3454,0.9504,1.232,1.8745,2.4118,2.5024,2.4465,2.3879,2.3971,0.0,0.0,0.0,2.0237,1.8786,1.9349,1.8034,1.66,1.5454,1.5744,1.5582,1.4667,1.5946,0.0,0.0,0.0,0.0,0.0,0.0,0.0,0.0,1.6665,1.683,1.6648,1.6582,1.6277,1.5827,1.6474,1.7117,1.7658,1.7766,1.8103,1.8585,1.8585,1.8877,1.9305,1.9456,1.969,2.0103,2.1195,2.2174,2.3106,-2.9958,-3.029,-3.0183,-2.8772,-2.852,-2.8335,-2.7725,-2.767,-2.748,-2.6815,-2.6773,-2.6807,-2.6807,-2.6024,-2.5493,-2.5493,-2.5493,-2.5493,-2.5493,-2.5441,-2.5406,0.0,0.0,-2.6695,-2.6688,-2.678,-2.6815,-2.6815,0.0,0.0,-2.7744,0.0,-3.0019,-2.9667,-2.8943,-2.8352,-2.777,-2.5845,-2.4699,-2.3946,-2.1008,-1.9523,-1.8687,-1.5696,-1.4541,-1.436,-1.3158,-1.1376,-0.9572,-0.9572,-0.6334,-0.3521,-1.0094,-0.9585,-0.6334,-0.5312,-0.5004,-0.4416,-0.1657,-0.175,-0.2463,-0.1877,0.0716,0.4256,0.8588,1.2892,1.7463,2.2749,2.4379,2.4712,2.4143,2.4483,2.467,2.4109,0.0,0.0,0.0,2.0174,1.8355,1.9298,1.7692,1.6064,1.4846,1.4709,1.462,1.4398,0.0,0.0,0.0,0.0,0.0,1.5611,1.6194,0.0,1.5632,1.6194,1.638,1.6118,1.6094,1.6003,1.5827,1.6474,1.6977,1.732,1.7658,1.8103,1.8585,1.8585,1.8877,1.9305,1.9305,1.9922,2.0914,2.1915,2.293,2.3934,-2.8196,-2.85,-2.8576,-2.7586,-2.7667,-2.7818,-2.7624,-2.7236,-2.6872,-2.6651,-2.6137,-2.5777,-2.5777,-2.5575,-2.5434,0.0,-2.5434,-2.5434,0.0,-2.5446,-2.5477,-2.5477,-2.5723,-2.5879,-2.5879,-2.5901,-2.5935,-2.599,0.0,0.0,0.0,-2.9295,-2.9483,-2.9418,-2.9099,-2.8123,-2.6655,-2.5379,-2.3603,-2.1406,-1.8987,-1.7205,-1.5596,-1.2339,-1.1103,-1.0851,-0.9033,-0.7019,-0.5211,-0.5211,-0.2241,0.1194,-0.0499,-0.1195,-0.1107,0.0248,0.0932,0.1753,0.4094,0.4809,0.5051,0.5919,0.6893,0.8677,1.2654,1.6049,1.9133,2.1859,2.2586,2.2971,2.3829,2.4005,2.3946,2.3755,2.2428,0.0,2.2708,0.0,1.8355,1.9277,1.7303,1.5732,1.5365,1.4926,0.0,0.0,0.0,0.0,0.0,0.0,0.0,0.0,1.5912,0.0,1.4458,1.5341,1.5718,1.5538,1.5471,1.5684,1.6163,1.6607,1.6977,1.732,1.7641,1.8103,1.8585,1.8585,1.8877,1.9305,1.9305,1.95,1.9919,2.1067,2.2035,2.2942,-2.6844,-2.7086,-2.7128,-2.6469,-2.6573,-2.6692,-2.6464,-2.6136,-2.5941,-2.5979,-2.559,-2.5303,-2.5303,-2.5363,0.0,-2.5352,-2.5391,-2.5408,-2.5441,-2.5488,-2.5503,-2.5543,-2.5543,-2.5543,-2.5543,-2.5561,0.0,-2.5636,-2.6447,-2.7342,-2.8327,-2.8549,-2.8531,-2.833,-2.7871,-2.6627,-2.4797,-2.3178,-2.1196,-1.8849,-1.5828,-1.3928,-1.2496,-0.8607,-0.7155,-0.6843,-0.4759,-0.2639,-0.0789,-0.0789,0.2474,0.6591,0.6942,0.7144,0.7138,0.6493,0.6827,0.7916,1.0309,1.1555,1.2355,1.3281,1.3515,1.4257,1.7093,1.9071,2.0671,2.1993,2.2441,2.2832,2.3564,2.3756,2.3654,2.3307,2.2152,2.1587,2.2422,0.0,1.8073,1.9284,0.0,0.0,0.0,1.505,1.456,0.0,0.0,0.0,0.0,0.0,0.0,1.524,1.6046,0.0,1.4908,1.5337,1.5511,1.5383,1.5191,1.5359,1.5853,1.6512,1.6917,1.715,1.7612,1.8057,1.845,1.8547,1.8843,1.918,1.9259,1.9473,1.9887,2.1017,2.2003,2.2906,-2.5847,-2.5984,-2.5823,0.0,-2.5311,0.0,-2.4572,-2.4685,-2.4869,-2.4986,-2.5192,-2.5303,-2.5303,-2.5354,-2.536,-2.5313,0.0,0.0,0.0,-2.5503,-2.5547,-2.5603,-2.5607,-2.5588,-2.557,-2.5644,-2.5662,-2.5643,-2.6388,-2.671,-2.6635,-2.7268,-2.7241,-2.6599,-2.5553,-2.4116,-2.2321,-1.9628,-1.7759,-1.6213,-1.1818,-0.9979,-0.9369,-0.4595,-0.2801,-0.2536,-0.0369,0.1845,0.3644,0.3644,0.7444,1.2213,1.2248,1.4767,1.6916,1.3055,1.2549,1.3845,1.6499,1.7852,1.8782,1.971,2.0044,2.0448,2.1597,2.1905,2.2194,2.3053,2.3691,2.389,2.3295,2.3647,2.3754,2.2849,2.1961,2.1603,2.2164,1.9408,1.7797,0.0,0.0,0.0,0.0,1.505,1.4652,0.0,0.0,0.0,0.0,0.0,1.6372,1.6436,1.6466,1.6454,1.6373,1.5865,1.5567,1.5391,1.5203,1.5104,1.5134,1.6282,1.6789,1.6841,1.7519,1.7949,1.8208,1.8469,1.8734,1.9018,1.9214,1.9751,2.0535,2.1544,2.2539,2.3547,0.0,0.0,-2.4741,-2.4514,-2.4392,-2.4376,-2.4479,-2.4766,-2.4962,-2.4998,-2.5192,-2.5303,-2.5303,-2.5313,-2.5339,-2.5379,-2.5473,-2.5558,-2.5587,-2.5611,-2.566,-2.5682,-2.5623,-2.5533,-2.5372,-2.5338,-2.5234,-2.5089,-2.5279,-2.5534,-2.5869,-2.6018,-2.5817,-2.5212,-2.3562,-2.1843,-2.002,-1.7651,-1.5028,-1.2165,-0.9074,-0.7007,-0.5188,-0.021,0.1321,0.1221,0.3928,0.6241,0.8012,0.8012,1.082,1.4444,1.492,1.6545,1.8031,1.6572,1.6639,1.7317,1.7983,1.8672,1.9416,2.0348,2.1412,2.2349,2.2653,2.3025,2.3394,2.3608,2.3771,2.3702,2.3152,2.3365,2.3441,2.2805,2.2513,2.2228,2.1824,2.0442,1.923,0.0,1.7166,1.6236,1.6269,1.4915,1.419,0.0,0.0,0.0,0.0,1.5482,1.5808,1.582,1.6238,1.6095,1.5211,1.5141,1.4826,1.4311,1.483,1.5104,1.5134,1.6282,1.6789,1.6841,1.7519,1.7949,1.8208,1.827,1.8566,1.9001,1.9052,1.9275,1.9706,2.0697,2.1614,2.2534,-2.3273,-2.3611,-2.3886,-2.3948,-2.4039,-2.4174,-2.4461,-2.4723,-2.4924,-2.4998,-2.5099,-2.5215,-2.5329,-2.5299,-2.5325,-2.5488,-2.5535,-2.5564,-2.5601,-2.5661,-2.5643,-2.5527,-2.5489,-2.5289,-2.4935,-2.4906,-2.4743,-2.4436,-2.4436,-2.4193,-2.3711,-2.3631,-2.2959,-2.1746,-1.9504,-1.7553,-1.5799,-1.2363,-0.9573,-0.713,-0.3742,-0.1804,-0.037,0.401,0.5609,0.5751,0.8018,0.9961,1.1474,1.1709,1.3815,1.6417,1.701,1.8304,1.9645,1.9648,1.9626,1.9565,1.9565,2.0133,2.0863,2.1507,2.2401,2.3077,2.3077,2.3316,2.3515,2.3515,2.3515,2.3448,2.3147,2.3239,2.3234,2.278,2.2695,2.2436,2.1698,2.0566,1.9495,1.8647,1.7515,1.6751,1.6527,1.5576,1.5028,1.5096,1.4824,0.0,1.5096,1.5688,1.6008,1.6008,1.6324,1.62,1.5605,1.5119,1.4699,1.4264,1.4639,1.4907,1.5134,1.6117,1.6659,1.6815,1.7361,1.7732,1.8035,1.8146,1.8371,1.8659,1.8914,1.9069,1.9344,2.0744,2.1584,2.2189,-2.191,-2.2513,-2.3076,-2.3482,-2.3795,-2.4095,-2.4338,-2.4556,-2.4747,-2.4936,-2.5003,-2.5118,-2.5394,-2.5318,-2.5313,-2.5476,-2.5366,-2.5344,-2.5483,-2.5547,-2.542,-2.5027,-2.5007,-2.4743,-2.4174,-2.395,-2.3686,-2.3345,-2.2848,-2.1882,-2.0473,-1.9965,-1.8687,-1.6676,-1.4081,-1.2032,-1.03,-0.5985,-0.3434,-0.1896,0.2099,0.3795,0.4383,0.8018,0.9625,1.0145,1.163,1.2964,1.4057,1.4631,1.6254,1.8124,1.8656,1.994,2.1306,2.196,2.1602,2.1036,2.1082,2.1694,2.2426,2.2712,2.3052,2.331,2.331,2.3361,2.3428,2.3428,2.3428,2.3424,2.3333,2.3287,2.3124,2.2772,2.2686,2.2337,2.1462,0.0,1.946,1.8775,1.8047,1.7411,1.6786,1.6532,1.6219,1.5752,1.5632,1.5588,1.5588,1.6194,1.6522,1.6522,1.6522,1.6471,1.6396,1.5379,1.4802,1.462,1.4531,1.469,1.5043,1.5924,1.6474,1.6815,1.715,1.7502,1.7833,1.8057,1.8166,1.8249,1.8715,1.8931,1.9217,2.1059,2.1849,2.2207,-2.1376,-2.1724,-2.204,-2.2667,-2.2923,-2.3218,-2.3738,-2.3986,-2.429,-2.4765,-2.4979,-2.5194,-2.5463,-2.5473,-2.532,-2.4963,-2.4549,-2.4501,-2.4971,-2.5018,-2.4623,-2.3719,-2.3643,-2.3308,-2.2668,-2.1481,-2.0855,-2.0763,-1.799,-1.6383,-1.5797,-1.3939,-1.1951,-0.9771,-0.7792,-0.5914,-0.4004,-0.174,0.0367,0.2423,0.4829,0.6574,0.8082,1.1571,1.2579,1.2282,1.3721,1.471,1.5386,1.5922,1.7464,1.9248,1.9802,2.0927,2.2106,2.222,2.2175,2.2113,2.2344,2.2521,2.2712,2.3045,2.3498,2.3871,2.3871,2.4227,2.4551,2.4551,2.4551,2.44,2.3969,2.3635,2.3289,2.278,2.25,2.1864,2.0447,0.0,2.049,1.8373,1.8792,1.8869,1.7933,1.6983,1.6391,1.6293,1.584,1.5588,1.5588,1.6194,1.6522,1.6522,1.6522,1.6296,1.5831,1.5191,1.4664,1.4181,1.4399,1.4533,1.4627,1.5781,1.6474,1.6815,1.715,1.7502,1.7811,1.7839,1.7992,1.8208,1.829,1.8604,1.9199,2.0843,2.1625,2.209,-2.0686,-2.1556,-2.2361,-2.2845,-2.3117,-2.3432,-2.3787,-2.4205,-2.4511,-2.4726,-2.4966,-2.5051,-2.4784,-2.4647,-2.4329,-2.3717,-2.1854,-2.0669,-2.0601,-2.2554,-2.2638,-2.0254,-2.0154,-1.9003,-1.6605,-1.5728,-1.5288,-1.5288,-1.3768,-1.1946,-0.9849,-0.9187,-0.7109,-0.3737,-0.2142,-0.0694,0.0695,0.3799,0.5705,0.6826,0.9294,1.0685,1.1522,1.3502,1.4242,1.4325,1.5262,1.6003,1.6646,1.7464,1.8373,1.9273,2.0012,2.0716,2.1368,2.1994,2.226,2.2338,2.2436,2.2473,2.2527,2.2686,2.3003,2.3302,2.3302,2.3487,2.3676,2.3676,2.3551,2.3392,2.313,2.2628,2.2293,2.2459,2.1691,0.0,0.0,2.0941,2.0546,1.9339,1.963,1.957,1.8555,1.7773,1.719,1.6912,1.6386,1.6095,1.6095,1.6337,1.6522,1.6522,1.6522,1.6107,1.5266,1.5029,1.4686,1.4332,1.4446,1.4752,1.5225,1.5953,1.6474,1.6815,1.715,1.7502,1.7811,1.7811,1.7861,1.7992,1.8146,1.8351,1.8746,2.0208,2.1116,2.179,-2.0001,-2.1158,-2.2265,-2.2737,-2.3117,-2.349,-2.3857,-2.4257,-2.4607,-2.4819,-2.4858,-2.4678,-2.4187,-2.3091,-2.2109,-2.1406,-1.8259,-1.5836,-1.4749,-1.7361,-1.7989,-1.5889,-1.5195,-1.3487,-1.0519,-0.9435,-0.8974,-0.916,-0.8209,-0.6406,-0.3785,-0.3646,-0.1599,0.2078,0.3312,0.4368,0.5408,0.8813,1.0343,1.0697,1.2969,1.4057,1.4391,1.4903,1.5576,1.6219,1.6519,1.7066,1.78,1.875,1.9185,1.9483,2.0351,2.0682,2.0959,2.1857,2.2226,2.2293,2.2388,2.2371,2.2426,2.2588,2.2781,2.2947,2.3021,2.2996,2.2923,2.2923,2.2583,2.2302,2.2473,2.1702,2.1275,2.2014,0.0,0.0,0.0,2.0638,2.0205,1.9703,1.9997,1.9813,1.8863,1.846,1.8145,1.7706,1.7076,1.6752,1.6879,1.6637,1.6459,1.6333,1.6321,1.5919,1.5104,1.4917,1.4735,1.4547,1.4602,1.4982,1.5639,1.6108,1.6474,1.6815,1.715,1.7502,1.7811,1.7811,1.7811,1.7833,1.8035,1.8187,1.8438,1.9664,2.0698,2.1625,-1.9375,-2.0051,-2.067,-2.1549,-2.2101,-2.2686,-2.3504,-2.3658,-2.4073,-2.5118,-2.4472,-2.3986,-2.4171,-2.0631,-1.8007,-1.7366,-1.398,-1.0754,-0.817,-0.7861,-0.8733,-1.0899,-0.8676,-0.7278,-0.6988,-0.3943,-0.2698,-0.3303,0.034,0.1964,0.1687,0.4227,0.6349,0.7973,0.8666,0.9772,1.1144,1.2089,1.2809,1.3476,1.4209,1.5182,1.6207,1.6312,1.7021,1.7854,1.7381,1.7853,1.8792,1.9339,2.0035,2.0767,2.1336,2.1794,2.218,2.2265,2.231,2.2332,2.2599,2.2669,2.2822,2.3455,2.3628,2.3714,2.4016,2.3837,2.3628,2.3628,2.2816,2.2311,2.2994,2.1709,2.0807,2.1527,0.0,0.0,1.9166,1.9639,1.9534,1.8159,1.9128,1.9609,1.8796,1.8783,1.8817,1.8779,1.7827,1.7463,1.7947,1.7034,1.6283,1.5768,1.5756,1.5718,1.563,1.5051,1.4717,1.4695,1.4938,1.5104,1.5165,1.5953,1.6474,1.6815,1.715,1.7502,1.7811,1.7811,1.7811,1.7811,1.7833,1.8125,1.8654,1.953,2.0642,2.1878,-1.7951,-1.8936,-2.0188,-2.171,-2.2114,-2.2669,-2.3952,-1.992,-1.775,-2.0636,-1.6334,-1.3836,-1.6022,-1.4818,-1.3484,-1.262,-0.8182,-0.4929,-0.3901,-0.0531,0.0097,-0.2928,-0.0144,0.1481,0.1481,0.2688,0.321,0.2923,0.4448,0.5942,0.7448,0.8056,0.9772,1.2378,1.2167,1.2646,1.3611,1.4231,1.4665,1.4926,1.5564,1.6058,1.6441,1.6509,1.6951,1.7626,1.7747,1.8249,1.8999,1.9763,2.0234,2.0619,2.1383,2.1718,2.1928,2.2209,2.231,2.2321,2.2426,2.2436,2.2517,2.2764,2.3105,2.3369,2.33,2.3346,2.3249,2.2763,2.2054,2.152,2.1464,2.039,1.9747,2.0499,0.0,1.8853,1.9502,1.9435,1.9194,1.8876,1.9119,1.923,1.9144,1.8638,1.8461,1.8864,1.8224,1.7907,1.8106,1.7316,1.6784,1.6571,1.583,1.5349,1.5066,1.5079,1.5039,1.4943,1.5051,1.5359,1.5853,1.6394,1.6773,1.7126,1.7455,1.7681,1.7811,1.7811,1.7811,1.7811,1.7811,1.7927,1.818,1.8806,2.0021,2.1402,-1.6905,-1.5381,-1.4637,-1.6325,-1.5547,-1.557,-1.8165,-1.3878,-1.1546,-1.4917,-1.0271,-0.7277,-0.8885,-0.7869,-0.6857,-0.6355,-0.1752,0.1442,0.2124,0.6268,0.7029,0.3205,0.6036,0.7608,0.7419,0.8286,0.8599,0.8402,0.8832,0.9899,1.1553,1.1252,1.2388,1.4698,1.4424,1.4562,1.5017,1.5644,1.5864,1.5952,1.6539,1.6837,1.6993,1.6993,1.7422,1.8066,1.8302,1.8788,1.9419,2.0093,2.0416,2.0616,2.1228,2.1491,2.1658,2.2003,2.218,2.231,2.231,2.231,2.2321,2.2398,2.273,2.3021,2.2898,2.2755,2.2535,2.2002,2.1142,2.0442,2.0309,1.9318,1.8809,1.9529,1.8512,1.8034,1.9157,1.8764,1.8492,1.879,1.8664,1.8593,1.8734,1.819,1.8019,1.8506,1.8214,1.8054,1.8092,1.7602,1.7186,1.6858,1.5958,1.5316,1.4823,1.509,1.5205,1.5104,1.5255,1.5667,1.6313,1.6659,1.6977,1.732,1.7641,1.7811,1.7811,1.7811,1.7811,1.7811,1.7811,1.7856,1.8005,1.8592,1.981,2.1209,-1.631,-0.8821,-0.2868,-0.414,-0.1019,0.0043,-0.4849,-0.5537,-0.624,-0.8347,-0.7679,-0.6231,-0.4119,-0.0121,0.2189,0.1611,0.5093,0.8252,1.0499,1.2656,1.1607,0.6686,0.9127,1.0335,0.9668,1.2378,1.3474,1.2812,1.4075,1.4354,1.3742,1.44,1.4698,1.4744,1.532,1.5588,1.5632,1.6238,1.6522,1.6552,1.7076,1.7626,1.8106,1.8106,1.8765,1.9603,1.9095,1.9492,2.0314,2.0299,2.0616,2.1007,2.1007,2.1275,2.1628,2.1628,2.1928,2.231,2.231,2.231,2.236,2.2634,2.2678,2.278,2.3117,2.2352,2.1593,2.1593,2.0137,1.9113,1.9849,1.8785,1.8048,1.8775,1.7993,1.7415,1.7766,1.7526,1.7296,1.7296,1.7591,1.7662,1.7337,1.7531,1.7682,1.7697,1.7821,1.7959,1.8104,1.7978,1.7405,1.6346,1.6123,1.5705,1.5104,1.5104,1.5104,1.5104,1.558,1.5983,1.6328,1.6659,1.6977,1.732,1.7658,1.7811,1.7811,1.7811,1.7811,1.7811,1.7811,1.7971,1.8291,1.9035,2.0191,2.1512,-0.1154,0.0829,0.1673,-0.0864,-0.0306,-0.0723,-0.4341,0.0247,0.2822,-0.086,0.4224,0.7268,0.4909,0.5794,0.6265,0.5644,0.8028,1.0548,1.2714,1.4253,1.4198,1.2301,1.2627,1.2962,1.3189,1.3986,1.4318,1.4122,1.4514,1.4824,1.5016,1.5219,1.5555,1.5976,1.6151,1.6238,1.6281,1.6824,1.7076,1.7118,1.7666,1.7947,1.8106,1.8106,1.8535,1.9132,1.8968,1.9492,2.027,2.0082,2.0637,2.146,2.1811,2.2003,2.2106,2.2106,2.218,2.231,2.231,2.231,2.2338,2.2415,2.2168,2.1908,2.1816,2.1288,2.0674,2.0114,1.9395,1.888,1.8756,1.8234,1.7879,1.8099,1.7855,1.7681,1.7789,1.7704,1.7479,1.7018,1.7246,1.7295,1.6924,1.7435,1.7744,1.7685,1.8178,1.8484,1.8534,1.8037,1.7596,1.7305,1.6377,1.5773,1.558,1.558,1.558,1.561,1.5968,1.6328,1.6659,1.7002,1.732,1.7658,1.7766,1.7811,1.7811,1.7811,1.8115,1.8572,1.8572,1.8941,1.9512,1.9906,2.0691,2.1603,1.1081,1.1727,1.0912,0.8221,0.8084,0.7146,0.3585,0.746,0.9683,0.6402,1.0542,1.3148,1.1375,1.0985,1.0674,1.0279,1.1673,1.3107,1.4435,1.5174,1.5454,1.505,1.4687,1.4549,1.4698,1.4926,1.505,1.505,1.5287,1.5599,1.5952,1.5952,1.6139,1.6522,1.671,1.671,1.6552,1.7076,1.7312,1.7353,1.7867,1.8224,1.8458,1.865,1.893,1.9207,1.9207,1.9394,1.971,1.9969,2.0639,2.1399,2.1691,2.1915,2.2032,2.2032,2.2135,2.2243,2.1938,2.1854,2.1786,2.1454,2.142,2.1327,2.084,2.0286,1.9728,1.9241,1.8773,1.8381,1.8082,1.7905,1.7811,1.7811,1.7681,1.7658,1.7789,1.7681,1.7502,1.724,1.7248,1.7164,1.6774,1.7018,1.7299,1.7516,1.8137,1.8637,1.8876,1.814,1.7697,1.7697,1.6443,1.5799,1.5799,1.5926,1.6011,1.6011,1.6191,1.6554,1.7002,1.7199,1.7462,1.7811,1.7811,1.7811,1.7811,1.7811,1.8234,1.8894,1.8894,1.935,2.0061,2.055,2.1101,2.167,2.0065,2.1945,2.1957,1.9997,2.0349,1.9513,1.5487,1.486,1.437,1.294,1.2848,1.36,1.5496,1.5264,1.496,1.4789,1.5276,1.5588,1.5588,1.5632,1.5676,1.5676,1.5676,1.541,1.488,1.5421,1.5676,1.5676,1.6238,1.6522,1.6522,1.6522,1.6522,1.6522,1.6993,1.6993,1.6595,1.7146,1.7394,1.7504,1.8027,1.8535,1.9006,1.953,1.969,1.9675,1.9615,1.9246,1.8914,1.9986,2.0588,2.0974,2.107,2.1385,2.1658,2.1658,2.1924,2.2057,2.1363,2.1153,2.0889,2.0086,2.045,2.0788,2.0052,1.9333,1.8792,1.8792,1.8268,1.7811,1.7811,1.7811,1.7811,1.7811,1.7549,1.7439,1.7766,1.7526,1.7439,1.7726,1.7526,1.7199,1.6841,1.6501,1.658,1.729,1.7852,1.8423,1.9037,1.8253,1.7757,1.7697,1.6623,1.6021,1.6021,1.6376,1.6495,1.6406,1.646,1.6849,1.7502,1.7411,1.7612,1.7974,1.7884,1.7901,1.7997,1.7929,1.8386,1.9096,1.9029,1.9502,2.0289,2.1025,2.1438,2.1769,2.1695,2.1834,2.1181,2.0306,1.9678,1.8558,1.6423,1.6093,1.5988,1.5644,1.6292,1.6651,1.6343,1.6902,1.678,1.5531,1.5543,1.5588,1.5588,1.6051,1.6281,1.6281,1.6281,1.6238,1.6107,1.6238,1.6281,1.6281,1.6423,1.6522,1.6522,1.6522,1.6522,1.6522,1.6637,1.6837,1.7146,1.7706,1.8185,1.8612,1.9132,1.9406,1.953,1.9639,1.969,1.9615,1.9106,1.9061,1.9369,2.0233,2.058,2.0767,2.1732,2.2077,2.2152,2.2152,2.1815,2.1397,2.1254,2.0737,2.0094,1.9333,1.9266,1.935,1.9181,1.8572,1.8048,1.8048,1.7912,1.7811,1.7811,1.7811,1.7811,1.7811,1.7743,1.7704,1.7789,1.7743,1.7618,1.7415,1.7572,1.7455,1.6866,1.6501,1.669,1.7614,1.7746,1.7857,1.8007,1.8317,1.8253,1.7712,1.7776,1.7852,1.7852,1.8232,1.8003,1.7174,1.7695,1.8329,1.9012,1.8425,1.8668,1.9495,1.8626,1.8751,1.9478,1.891,1.9469,2.0636,2.001,2.0593,2.1809,2.2006,2.2112,2.2167,2.144,2.0678,1.9697,1.8644,1.804,1.7578,1.7284,1.6811,1.6655,1.7149,1.7259,1.7079,1.6552,1.6731,1.6511,1.5664,1.5864,1.6051,1.6051,1.6337,1.6522,1.6522,1.6522,1.6637,1.6879,1.6637,1.6637,1.6879,1.6637,1.6637,1.6879,1.6637,1.6522,1.6509,1.6708,1.6782,1.6836,1.7322,1.7865,1.8446,1.8717,1.9176,1.969,1.969,1.969,1.963,1.9286,1.9599,2.0226,2.0512,2.0931,2.1485,2.2119,2.2073,2.1786,2.1786,2.1498,2.1136,2.0737,2.0331,1.9816,1.908,1.864,1.8386,1.8386,1.8082,1.7811,1.7811,1.7811,1.7811,1.7811,1.7811,1.7811,1.7811,1.7811,1.7811,1.7811,1.7811,1.7726,1.7549,1.7681,1.7612,1.7076,1.7024,1.7227,1.7757,1.8177,1.8409,1.8409,1.8609,1.8639,1.8522,1.8234,1.8192,1.8408,1.8556,1.8525,1.836,1.8746,1.9118,1.9437,1.9258,1.9462,1.9968,1.9403,1.9479,1.9968,1.9562,2.0128,2.117,2.0737,2.1278,2.231,2.231,2.231,2.231,2.061,1.9473,1.8296,1.7183,1.674,1.6782,1.7625,1.7037,1.6811,1.7746,1.73,1.6824,1.668,1.6083,1.5764,1.5764,1.6194,1.6522,1.6522,1.6522,1.6522,1.6522,1.6522,1.671,1.7146,1.671,1.6752,1.7312,1.6752,1.6752,1.7312,1.6752,1.6502,1.6515,1.6837,1.6715,1.6244,1.6723,1.7327,1.7957,1.8028,1.8708,1.969,1.969,1.969,1.9675,1.9555,2.0005,2.0607,2.0446,2.1094,2.1974,2.2135,2.1686,2.1107,2.1177,2.1119,2.0822,2.0044,1.9799,1.9613,1.8894,1.8251,1.7811,1.7811,1.7811,1.7811,1.7811,1.7811,1.7811,1.7811,1.7811,1.7811,1.7811,1.7811,1.7811,1.7811,1.7811,1.7811,1.7811,1.7844,1.7733,1.7429,1.7748,1.8012,1.8038,1.8781,1.9208,1.9109,1.9031,1.9079,1.9256,1.8631,1.8402,1.8703,1.8703,1.9014,1.9671,1.9783,1.9816,1.9778,1.9987,2.0203,2.0373,2.0187,2.0203,2.0373,2.0255,2.067,2.139,2.1254,2.1651,2.231,2.231,2.231,2.231,2.0616,1.9332,1.8302,1.8891,1.7612,1.6552,1.6655,1.6595,1.671,1.734,1.8037,1.8154,1.7312,1.6697,1.638,1.638,1.6466,1.6522,1.6522,1.6522,1.6522,1.6522,1.6522,1.6522,1.6595,1.6552,1.6752,1.7312,1.6752,1.6752,1.7312,1.6752,1.6497,1.6507,1.6542,1.6292,1.5841,1.6705,1.7458,1.81,1.8446,1.9021,1.969,1.969,1.969,1.9615,1.9031,1.8891,1.9079,1.9434,2.0001,2.0699,2.146,2.1193,2.0683,2.108,2.0703,1.9985,1.9249,1.9046,1.8877,1.8132,1.7879,1.7811,1.7811,1.7811,1.7811,1.7811,1.7811,1.7811,1.7811,1.7811,1.7811,1.7811,1.7811,1.7811,1.7811,1.7811,1.7811,1.7811,1.8069,1.8091,1.7765,1.8335,1.8815,1.9013,1.9245,1.919,1.8805,1.9611,1.9691,1.882,1.9935,2.0382,2.0051,2.0414,2.0671,2.0799,2.1154,2.1302,2.1269,2.0775,2.1055,2.1927,2.0961,2.1072,2.1955,2.1295,2.1481,2.209,2.1448,2.1651,2.231,2.231,2.231,2.231,1.9277,1.8124,1.7369,1.8113,1.7545,1.7146,1.7693,1.7327,1.7146,1.7612,1.7572,1.7477,1.7312,1.7076,1.6837,1.6522,1.6522,1.6637,1.6909,1.668,1.6637,1.6909,1.668,1.6637,1.6951,1.6951,1.7076,1.7312,1.6752,1.6909,1.7747,1.6879,1.6667,1.6929,1.6863,1.6885,1.694,1.6978,1.7555,1.8411,1.8291,1.883,1.969,1.969,1.969,1.9717,1.9903,1.998,2.0094,2.0776,2.1201,2.1477,2.1869,2.1485,2.0938,2.115,2.094,2.0602,2.0264,1.9858,1.9452,1.9106,1.8397,1.7811,1.7811,1.7811,1.7811,1.7811,1.7811,1.7811,1.7811,1.7811,1.7811,1.7811,1.7811,1.7811,1.7811,1.7811,1.7963,1.8369,1.8548,1.8735,1.8996,1.9273,1.9585,1.9903,1.9924,1.9929,1.9995,2.0193,2.0208,1.9995,2.019,2.0261,2.0314,2.0261,2.0413,2.0616,2.0797,2.1134,2.1612,2.1566,2.1832,2.2265,2.1754,2.1832,2.2276,2.1955,2.2006,2.2276,2.1938,2.2023,2.231,2.231,2.231,2.231]},{"header":{"parameterUnit":"m.s-1","parameterCategory":1,"la1":30.6,"la2":28.766,"lo1":-90.7593,"lo2":-88.6598,"dy":0.0162,"dx":0.0183,"nx":116,"ny":114,"refTime":"2023-08-10T12:00:00:Z","depth":0,"parameterNumber":3,"parameterNumberName":"V-component_of_WINDS"},"data":[0.0,0.0,0.0,0.0,0.0,0.0,0.0,0.0,0.0,0.0,0.0,0.0,0.0,0.0,0.0,0.0,0.0,0.0,0.0,0.0,0.0,0.0,0.0,0.0,0.0,0.0,0.0,0.0,0.0,0.0,0.0,0.0,0.0,0.0,0.0,0.0,0.0,0.0,0.0,0.0,0.0,0.0,0.0,0.0,0.0,0.0,0.0,0.0,0.0,0.0,0.0,0.0,0.0,0.0,0.0,0.0,0.0,0.0,0.0,0.0,0.0,0.0,0.0,0.0,0.0,0.0,0.0,0.0,0.0,0.0,0.0,0.0,0.0,0.0,0.0,0.0,0.0,0.0,0.0,0.0,0.0,0.0,0.0,0.0,0.0,0.0,0.0,0.0,0.0,0.0,0.0,0.0,0.0,0.0,0.0,0.0,0.0,0.0,0.0,0.0,0.0,0.0,0.0,0.0,0.0,0.0,0.0,0.0,0.0,0.0,0.0,0.0,0.0,0.0,0.0,0.0,0.0,0.0,0.0,0.0,0.0,0.0,0.0,0.0,0.0,0.0,0.0,0.0,0.0,0.0,0.0,0.0,0.0,0.0,0.0,0.0,0.0,0.0,0.0,0.0,0.0,0.0,0.0,0.0,0.0,0.0,0.0,0.0,0.0,0.0,0.0,0.0,0.0,0.0,0.0,0.0,0.0,0.0,0.0,0.0,0.0,0.0,0.0,0.0,0.0,0.0,0.0,0.0,0.0,0.0,0.0,0.0,0.0,0.0,0.0,0.0,0.0,0.0,0.0,0.0,0.0,0.0,0.0,0.0,0.0,0.0,0.0,0.0,0.0,0.0,0.0,0.0,0.0,0.0,0.0,0.0,0.0,0.0,0.0,0.0,0.0,0.0,0.0,0.0,0.0,0.0,0.0,0.0,0.0,0.0,0.0,0.0,0.0,0.0,0.0,0.0,0.0,0.0,0.0,0.0,0.0,0.0,0.0,0.0,0.0,0.0,0.0,0.0,0.0,0.0,0.0,0.0,0.0,0.0,0.0,0.0,0.0,0.0,0.0,0.0,0.0,0.0,0.0,0.0,0.0,0.0,0.0,0.0,0.0,0.0,0.0,0.0,0.0,0.0,0.0,0.0,0.0,0.0,0.0,0.0,0.0,0.0,0.0,0.0,0.0,0.0,0.0,0.0,0.0,0.0,0.0,0.0,0.0,0.0,0.0,0.0,0.0,0.0,0.0,0.0,0.0,0.0,0.0,0.0,0.0,0.0,0.0,0.0,0.0,0.0,0.0,0.0,0.0,0.0,0.0,0.0,0.0,0.0,0.0,0.0,0.0,0.0,0.0,0.0,0.0,0.0,0.0,0.0,0.0,0.0,0.0,0.0,0.0,0.0,0.0,0.0,0.0,0.0,0.0,0.0,0.0,0.0,0.0,0.0,0.0,0.0,0.0,0.0,0.0,0.0,0.0,0.0,0.0,0.0,0.0,0.0,0.0,0.0,0.0,0.0,0.0,0.0,0.0,0.0,0.0,0.0,0.0,0.0,0.0,0.0,0.0,0.0,0.0,0.0,0.0,0.0,0.0,0.0,0.0,0.0,0.0,0.0,0.0,0.0,0.0,0.0,0.0,0.0,0.0,0.0,0.0,0.0,0.0,0.0,0.0,0.0,0.0,0.0,0.0,0.0,0.0,0.0,0.0,0.0,0.0,0.0,0.0,0.0,0.0,0.0,0.0,0.0,0.0,0.0,0.0,0.0,0.0,0.0,0.0,0.0,0.0,0.0,0.0,0.0,0.0,0.0,0.0,0.0,0.0,0.0,0.0,0.0,0.0,0.0,0.0,0.0,0.0,0.0,0.0,0.0,0.0,0.0,0.0,0.0,0.0,0.0,0.0,0.0,0.0,0.0,0.0,0.0,0.0,0.0,0.0,0.0,0.0,0.0,0.0,0.0,0.0,0.0,0.0,0.0,0.0,0.0,0.0,0.0,0.0,0.0,0.0,0.0,0.0,0.0,0.0,0.0,0.0,0.0,0.0,0.0,0.0,0.0,0.0,0.0,0.0,0.0,0.0,0.0,0.0,0.0,0.0,0.0,0.0,0.0,0.0,0.0,0.0,0.0,0.0,0.0,0.0,0.0,0.0,0.0,0.0,0.0,0.0,0.0,0.0,0.0,0.0,0.0,0.0,0.0,0.0,0.0,0.0,0.0,0.0,0.0,0.0,0.0,0.0,0.0,0.0,0.0,0.0,0.0,0.0,0.0,0.0,0.0,0.0,0.0,0.0,0.0,0.0,0.0,0.0,0.0,0.0,0.0,0.0,0.0,0.0,0.0,0.0,0.0,0.0,0.0,0.0,0.0,0.0,0.0,0.0,0.0,0.0,0.0,0.0,0.0,0.0,0.0,0.0,0.0,0.0,0.0,0.0,0.0,0.0,0.0,0.0,0.0,0.0,0.0,0.0,0.0,0.0,0.0,0.0,0.0,0.0,0.0,0.0,0.0,0.0,0.0,0.0,0.0,0.0,0.0,0.0,0.0,0.0,0.0,0.0,0.0,0.0,0.0,0.0,0.0,0.0,0.0,0.0,0.0,0.0,0.0,0.0,0.0,0.0,0.0,0.0,0.0,0.0,0.0,0.0,0.0,0.0,0.0,0.0,0.0,0.0,0.0,0.0,0.0,0.0,0.0,0.0,0.0,0.0,0.0,0.0,0.0,0.0,0.0,0.0,0.0,0.0,0.0,0.0,0.0,0.0,0.0,0.0,0.0,0.0,0.0,0.0,0.0,0.0,0.0,0.0,0.0,0.0,0.0,0.0,0.0,0.0,0.0,0.0,0.0,0.0,0.0,0.0,0.0,0.0,0.0,0.0,0.0,0.0,0.0,0.0,0.0,0.0,0.0,0.0,0.0,0.0,0.0,0.0,0.0,0.0,0.0,0.0,0.0,0.0,0.0,0.0,0.0,0.0,0.0,0.0,0.0,0.0,0.0,0.0,0.0,0.0,0.0,0.0,0.0,0.0,0.0,0.0,0.0,0.0,0.0,0.0,0.0,0.0,0.0,0.0,0.0,0.0,0.0,0.0,0.0,0.0,0.0,0.0,0.0,0.0,0.0,0.0,0.0,0.0,0.0,0.0,0.0,0.0,0.0,0.0,0.0,0.0,0.0,0.0,0.0,0.0,0.0,0.0,0.0,0.0,0.0,0.0,0.0,0.0,0.0,0.0,0.0,0.0,0.0,0.0,0.0,0.0,0.0,0.0,0.0,0.0,0.0,0.0,0.0,0.0,0.0,0.0,0.0,0.0,0.0,0.0,0.0,0.0,0.0,0.0,0.0,0.0,0.0,0.0,0.0,0.0,0.0,0.0,0.0,0.0,0.0,0.0,0.0,0.0,0.0,0.0,0.0,0.0,0.0,0.0,0.0,0.0,0.0,0.0,0.0,0.0,0.0,0.0,0.0,0.0,0.0,0.0,0.0,0.0,0.0,0.0,0.0,0.0,0.0,0.0,0.0,0.0,0.0,0.0,0.0,0.0,0.0,0.0,0.0,0.0,0.0,0.0,0.0,0.0,0.0,0.0,0.0,0.0,0.0,0.0,0.0,0.0,0.0,0.0,0.0,0.0,0.0,0.0,0.0,0.0,0.0,0.0,0.0,0.0,0.0,0.0,0.0,0.0,0.0,0.0,0.0,0.0,0.0,0.0,0.0,0.0,0.0,0.0,0.0,0.0,0.0,0.0,0.0,0.0,0.0,0.0,0.0,0.0,0.0,0.0,0.0,0.0,0.0,0.0,0.0,0.0,0.0,0.0,0.0,0.0,0.0,0.0,0.0,0.0,0.0,0.0,0.0,0.0,0.0,0.0,0.0,0.0,0.0,0.0,0.0,0.0,0.0,0.0,0.0,0.0,0.0,0.0,0.0,0.0,0.0,0.0,0.0,0.0,0.0,0.0,0.0,0.0,0.0,0.0,0.0,0.0,0.0,0.0,0.0,0.0,0.0,0.0,0.0,0.0,0.0,0.0,0.0,0.0,0.0,0.0,0.0,0.0,0.0,0.0,0.0,0.0,0.0,0.0,0.0,0.0,0.0,0.0,0.0,0.0,0.0,0.0,0.0,0.0,0.0,0.0,0.0,0.0,0.0,0.0,0.0,0.0,0.0,0.0,0.0,0.0,0.0,0.0,0.0,0.0,0.0,0.0,0.0,0.0,0.0,0.0,0.0,0.0,0.0,0.0,0.0,0.0,0.0,0.0,0.0,0.0,0.0,0.0,0.0,0.0,0.0,0.0,0.0,0.0,0.0,0.0,0.0,0.0,0.0,0.0,0.0,0.0,0.0,0.0,0.0,0.0,0.0,0.0,0.0,0.0,0.0,0.0,0.0,0.0,0.0,0.0,0.0,0.0,0.0,0.0,0.0,0.0,0.0,0.0,0.0,0.0,0.0,0.0,0.0,0.0,0.0,0.0,0.0,0.0,0.0,0.0,0.0,0.0,0.0,0.0,0.0,0.0,0.0,0.0,0.0,0.0,0.0,0.0,0.0,0.0,0.0,0.0,0.0,0.0,0.0,0.0,0.0,0.0,0.0,0.0,0.0,0.0,0.0,0.0,0.0,0.0,0.0,0.0,0.0,0.0,0.0,0.0,0.0,0.0,0.0,0.0,0.0,0.0,0.0,0.0,0.0,0.0,0.0,0.0,0.0,0.0,0.0,0.0,0.0,0.0,0.0,0.0,0.0,0.0,0.0,0.0,0.0,0.0,0.0,0.0,0.0,0.0,0.0,0.0,0.0,0.0,0.0,0.0,0.0,0.0,0.0,0.0,0.0,0.0,0.0,0.0,0.0,0.0,0.0,0.0,0.0,0.0,0.0,0.0,0.0,0.0,0.0,0.0,0.0,0.0,0.0,0.0,0.0,0.0,0.0,0.0,0.0,0.0,0.0,0.0,0.0,0.0,0.0,0.0,0.0,0.0,0.0,0.0,0.0,0.0,0.0,0.0,0.0,0.0,0.0,0.0,0.0,0.0,0.0,0.0,0.0,0.0,0.0,0.0,0.0,0.0,0.0,0.0,0.0,0.0,0.0,0.0,0.0,0.0,0.0,0.0,0.0,0.0,0.0,0.0,0.0,0.0,0.0,0.0,0.0,0.0,0.0,0.0,0.0,0.0,0.0,0.0,0.0,0.0,0.0,0.0,0.0,0.0,0.0,0.0,0.0,0.0,0.0,0.0,0.0,0.0,0.0,0.0,0.0,0.0,0.0,0.0,0.0,0.0,0.0,0.0,0.0,0.0,0.0,0.0,0.0,0.0,0.0,0.0,0.0,0.0,0.0,0.0,0.0,0.0,0.0,0.0,0.0,0.0,0.0,0.0,0.0,0.0,0.0,0.0,0.0,0.0,0.0,0.0,0.0,0.0,0.0,0.0,0.0,0.0,0.0,0.0,0.0,0.0,0.0,0.0,0.0,0.0,0.0,0.0,0.0,0.0,0.0,0.0,0.0,0.0,0.0,0.0,0.0,0.0,0.0,0.0,0.0,0.0,0.0,0.0,0.0,0.0,0.0,0.0,0.0,0.0,0.0,0.0,0.0,0.0,0.0,0.0,0.0,0.0,0.0,0.0,0.0,0.0,0.0,0.0,0.0,0.0,0.0,0.0,0.0,0.0,0.0,0.0,0.0,0.0,0.0,0.0,0.0,0.0,0.0,0.0,0.0,0.0,0.0,0.0,0.0,0.0,0.0,0.0,0.0,0.0,0.0,0.0,0.0,0.0,0.0,0.0,0.0,0.0,0.0,0.0,0.0,0.0,0.0,0.0,0.0,0.0,0.0,0.0,0.0,0.0,0.0,0.0,0.0,0.0,0.0,0.0,0.0,0.0,0.0,0.0,0.0,0.0,0.0,0.0,0.0,0.0,0.0,0.0,0.0,0.0,0.0,0.0,0.0,0.0,0.0,0.0,0.0,0.0,0.0,0.0,0.0,0.0,0.0,0.0,0.0,0.0,0.0,0.0,0.0,0.0,0.0,0.0,0.0,0.0,0.0,0.0,0.0,0.0,0.0,0.0,0.0,0.0,0.0,0.0,0.0,0.0,0.0,0.0,0.0,0.0,0.0,0.0,0.0,-0.7648,-0.8458,0.0,0.0,0.0,0.0,0.0,0.0,0.0,0.0,0.0,0.0,0.0,0.0,0.0,0.0,0.0,0.0,0.0,0.0,0.0,0.0,0.0,0.0,0.0,0.0,0.0,0.0,0.0,0.0,0.0,0.0,0.0,0.0,0.0,0.0,0.0,0.0,0.0,0.0,0.0,0.0,0.0,0.0,0.0,0.0,0.0,0.0,0.0,0.0,0.0,0.0,0.0,0.0,0.0,0.0,0.0,0.0,0.0,0.0,0.0,0.0,0.0,0.0,0.0,0.0,0.0,0.0,0.0,0.0,0.0,0.0,0.0,0.0,0.0,0.0,0.0,0.0,0.0,0.0,0.0,0.0,0.0,0.0,0.0,0.0,0.0,0.0,0.0,0.0,0.0,0.0,0.0,0.0,0.0,0.0,0.0,0.0,0.0,0.0,0.0,0.0,0.0,0.0,0.0,0.0,0.0,0.0,0.0,0.0,0.0,0.0,0.0,0.0,0.0,0.0,-0.9297,-0.947,0.0,0.0,0.0,0.0,0.0,0.0,0.0,0.0,0.0,0.0,0.0,0.0,0.0,0.0,0.0,0.0,0.0,0.0,0.0,0.0,0.0,0.0,0.0,0.0,0.0,0.0,0.0,0.0,0.0,0.0,0.0,0.0,0.0,0.0,0.0,0.0,0.0,0.0,0.0,0.0,0.0,0.0,0.0,0.0,0.0,0.0,0.0,0.0,0.0,0.0,0.0,0.0,0.0,0.0,0.0,0.0,0.0,0.0,0.0,0.0,0.0,0.0,0.0,0.0,0.0,0.0,0.0,0.0,0.0,0.0,0.0,0.0,0.0,0.0,0.0,0.0,0.0,0.0,0.0,0.0,0.0,0.0,0.0,0.0,0.0,0.0,0.0,0.0,0.0,0.0,0.0,0.0,0.0,0.0,0.0,0.0,0.0,0.0,0.0,0.0,0.0,0.0,0.0,0.0,0.0,0.0,0.0,0.0,-0.7389,-0.8158,-0.945,-0.949,-1.0552,-1.2296,-1.1256,-1.0852,-1.0939,-1.2556,0.0,0.0,0.0,0.0,0.0,0.0,0.0,0.0,0.0,0.0,0.0,0.0,0.0,0.0,0.0,0.0,0.0,0.0,0.0,0.0,0.0,0.0,0.0,0.0,0.0,0.0,0.0,0.0,0.0,0.0,0.0,0.0,0.0,0.0,0.0,0.0,0.0,0.0,-1.4213,-1.3494,-1.4305,-1.6379,0.0,0.0,0.0,0.0,0.0,0.0,0.0,0.0,0.0,0.0,0.0,0.0,0.0,0.0,0.0,0.0,0.0,0.0,0.0,0.0,0.0,0.0,0.0,0.0,0.0,0.0,0.0,0.0,0.0,0.0,0.0,0.0,0.0,0.0,0.0,0.0,0.0,0.0,0.0,0.0,0.0,0.0,0.0,0.0,-0.1488,-0.2561,0.0,0.0,0.0,0.0,0.0,0.0,0.0,0.0,0.0,0.0,0.0,0.0,0.0,-0.6803,-0.6671,-0.7078,-0.7841,-0.8852,-0.9246,-0.9868,-1.0815,-1.0925,-1.1192,-1.1546,-1.2192,0.0,-1.3136,-1.3437,0.0,0.0,0.0,0.0,0.0,0.0,0.0,0.0,0.0,0.0,0.0,0.0,0.0,0.0,0.0,0.0,0.0,0.0,0.0,0.0,0.0,0.0,0.0,0.0,0.0,0.0,0.0,0.0,0.0,0.0,0.0,0.0,0.0,0.0,0.0,0.0,-1.022,-1.1351,-1.287,-1.294,-1.4227,-1.6476,-1.7224,-1.8155,-1.9218,-2.032,0.0,0.0,0.0,0.0,0.0,0.0,0.0,0.0,0.0,0.0,0.0,0.0,0.0,0.0,0.0,0.0,0.0,0.0,0.0,0.0,0.0,0.0,0.0,0.0,0.0,0.0,0.0,0.0,0.0,0.0,0.0,0.0,0.0,0.0,0.0,0.0,0.0,0.0,0.0,-0.3357,-0.3737,-0.3765,-0.4162,-0.4786,0.0,0.0,0.0,0.0,0.0,0.0,0.0,0.0,0.0,-0.66,-0.7476,-0.7901,-0.7823,-0.8744,-0.9456,-1.0102,-1.0285,-1.1019,-1.2125,-1.2235,-1.2655,-1.3387,-1.3817,-1.4409,-1.4929,-1.4198,-1.4117,-1.4432,0.0,0.0,0.0,0.0,-1.6542,-1.6936,0.0,0.0,0.0,0.0,0.0,0.0,0.0,0.0,0.0,0.0,0.0,0.0,0.0,0.0,0.0,0.0,0.0,0.0,0.0,0.0,0.0,0.0,0.0,0.0,0.0,0.0,0.0,0.0,-0.9792,-1.0795,-1.2012,-1.2716,-1.4218,-1.6455,-1.7423,-1.8454,-1.9569,-2.0607,-2.1486,0.0,0.0,0.0,0.0,0.0,0.0,0.0,0.0,0.0,0.0,0.0,0.0,0.0,0.0,0.0,0.0,0.0,0.0,0.0,0.0,0.0,0.0,0.0,0.0,0.0,0.0,0.0,0.0,0.0,0.0,0.0,0.0,0.0,0.0,0.0,0.0,0.0,0.0,-0.4397,-0.5087,-0.4592,-0.5093,-0.5597,0.0,0.0,0.0,0.0,0.0,0.0,-0.6298,-0.6454,-0.676,-0.7163,-0.8203,-0.8893,-0.9186,-1.0207,-1.0921,-1.13,-1.13,-1.202,-1.3369,-1.3236,-1.3755,-1.473,-1.4831,-1.5262,-1.576,-1.4874,-1.5,-1.5782,-1.5748,-1.628,-1.7132,-1.7381,-1.7921,-1.8387,0.0,0.0,0.0,0.0,0.0,0.0,0.0,0.0,0.0,0.0,0.0,0.0,0.0,0.0,0.0,0.0,0.0,0.0,0.0,0.0,0.0,0.0,0.0,0.0,0.0,0.0,0.0,-0.8628,-0.895,-1.0282,-1.2572,-1.2852,-1.4246,-1.6539,-1.7924,-1.9674,-2.1554,-2.1602,-2.2363,-2.3508,0.0,0.0,0.0,0.0,0.0,0.0,0.0,0.0,0.0,0.0,0.0,0.0,0.0,0.0,0.0,0.0,0.0,0.0,0.0,0.0,0.0,0.0,0.0,0.0,0.0,0.0,0.0,0.0,0.0,0.0,0.0,0.0,0.0,0.0,0.0,0.0,0.0,0.0,0.0,-0.4633,-0.4632,0.0,0.0,0.0,0.0,-0.5932,-0.6017,-0.6149,-0.6444,-0.6607,-0.7253,-0.8586,-0.8941,-0.9571,-1.0509,-1.084,-1.1589,-1.2715,-1.2545,-1.3179,-1.4429,-1.3794,-1.3778,-1.4179,-1.4467,-1.4835,-1.5131,-1.5502,-1.6265,-1.7268,-1.8013,-1.856,-1.8891,-1.9079,-1.9403,-1.9642,0.0,0.0,0.0,0.0,0.0,0.0,0.0,0.0,0.0,0.0,0.0,0.0,0.0,0.0,0.0,0.0,0.0,0.0,0.0,0.0,0.0,0.0,0.0,0.0,0.0,0.0,-0.6068,-0.6904,-0.8139,-0.9157,-1.0034,-1.1592,-1.3206,-1.4932,-1.7185,-1.9293,-2.1232,-2.1992,-2.2786,-2.3578,-2.3975,-2.4307,0.0,0.0,0.0,0.0,0.0,0.0,0.0,0.0,0.0,0.0,0.0,0.0,0.0,0.0,0.0,0.0,0.0,0.0,0.0,0.0,0.0,0.0,0.0,0.0,0.0,0.0,0.0,0.0,0.0,0.0,0.0,0.0,0.0,0.0,0.0,0.0,0.0,-0.5679,-0.5667,0.0,-0.6173,-0.5735,-0.5635,-0.6166,-0.6088,-0.6159,-0.6458,-0.7159,-0.7833,-0.8338,-0.9883,-1.0845,-1.1178,-1.2034,-1.2671,-1.308,-1.2997,-1.3251,-1.3667,-1.346,-1.3728,-1.4438,-1.4516,-1.5405,-1.675,-1.664,-1.6962,-1.7569,-1.7886,-1.846,-1.9164,-1.9248,-1.9561,-1.9829,0.0,0.0,0.0,0.0,0.0,0.0,0.0,0.0,0.0,0.0,0.0,0.0,0.0,0.0,0.0,0.0,0.0,0.0,0.0,0.0,0.0,0.0,0.0,0.0,0.0,-0.3107,-0.4565,-0.5823,-0.7359,-0.8582,-0.9599,-1.1368,-1.3032,-1.4676,-1.7126,-1.9261,-2.1161,-2.2396,-2.3283,-2.3846,-2.4251,-2.4712,-2.5269,0.0,0.0,0.0,0.0,0.0,0.0,0.0,0.0,0.0,0.0,0.0,0.0,0.0,0.0,0.0,0.0,0.0,0.0,0.0,0.0,0.0,0.0,0.0,0.0,0.0,0.0,0.0,0.0,0.0,0.0,0.0,0.0,0.0,0.0,-0.5844,-0.5973,-0.623,-0.6338,-0.6338,-0.6338,-0.6169,-0.6301,-0.6788,-0.6692,-0.6896,-0.7482,-0.8124,-0.8763,-0.9294,-1.0756,-1.165,-1.2062,-1.2797,-1.3213,-1.3213,-1.3106,-1.3053,-1.3046,-1.3153,-1.3499,-1.4149,-1.4615,-1.5591,-1.6884,-1.6903,-1.7097,-1.7374,-1.7722,-1.8266,-1.8909,-1.8963,-1.9188,-1.9416,0.0,0.0,0.0,0.0,0.0,0.0,0.0,0.0,0.0,0.0,0.0,0.0,0.0,0.0,0.0,0.0,0.0,0.0,0.0,0.0,0.0,0.0,0.0,0.0,0.0167,-0.1329,-0.3199,-0.5387,-0.65,-0.8552,-1.1447,-1.235,-1.3883,-1.5981,-1.7962,-1.9778,-2.1483,-2.2833,-2.3818,-2.4465,-2.4455,-2.4776,-2.5319,0.0,0.0,0.0,0.0,0.0,0.0,0.0,0.0,0.0,0.0,0.0,0.0,0.0,0.0,0.0,0.0,0.0,0.0,0.0,0.0,0.0,0.0,0.0,0.0,0.0,0.0,0.0,0.0,0.0,0.0,0.0,0.0,0.0,-0.5789,-0.5935,-0.6088,-0.6318,-0.6338,-0.6338,-0.6338,-0.6338,-0.6718,-0.7706,-0.7774,-0.8304,-0.9423,-0.9506,-1.0074,-1.1443,-1.1523,-1.2013,-1.3166,-1.316,-1.3153,-1.3153,-1.2846,-1.2782,-1.2837,-1.2971,-1.3112,-1.3229,-1.4695,-1.5321,-1.5386,-1.631,-1.6709,-1.6797,-1.7637,-1.7969,-1.7978,-1.8322,-1.8532,-1.8585,0.0,0.0,0.0,0.0,0.0,0.0,0.0,0.0,0.0,0.0,0.0,0.0,0.0,0.0,0.0,0.0,0.0,0.0,0.0,0.0,0.0,0.0,0.0,0.0,0.316,0.0661,-0.1439,-0.309,-0.4999,-0.7133,-0.9429,-1.1595,-1.3628,-1.5657,-1.8242,-2.002,-2.1242,-2.3363,-2.4757,-2.5497,-2.5828,-2.6251,-2.6756,0.0,0.0,0.0,0.0,0.0,0.0,0.0,0.0,0.0,0.0,0.0,0.0,0.0,0.0,0.0,0.0,0.0,0.0,0.0,0.0,0.0,0.0,0.0,0.0,0.0,0.0,0.0,0.0,0.0,0.0,0.0,-0.8638,-0.7654,-0.618,-0.6003,-0.631,-0.7306,-0.6718,-0.6567,-0.7326,-0.6718,-0.6718,-0.7706,-0.7572,-0.7882,-0.8971,-0.9483,-1.0086,-1.0713,-1.1203,-1.1716,-1.2238,-1.2024,-1.1917,-1.1911,-1.183,-1.2136,-1.2697,-1.2792,-1.351,-1.4752,-1.5106,-1.5725,-1.63,-1.6253,-1.6607,-1.7083,-1.7056,-1.708,-1.7125,-1.7728,-1.8707,-1.9667,0.0,0.0,0.0,0.0,0.0,0.0,0.0,0.0,0.0,0.0,0.0,0.0,0.0,0.0,0.0,0.0,0.0,0.0,0.0,0.0,0.0,0.0,0.0,0.7986,0.6242,0.3021,0.0164,-0.2187,-0.47,-0.7402,-1.0276,-1.2349,-1.4563,-1.6846,-1.886,-2.0632,-2.2165,-2.3701,-2.5184,-2.6526,-2.6944,-2.7338,-2.7717,-2.7931,-2.8031,-2.8066,-2.8415,-2.8568,-2.862,-2.9062,0.0,0.0,0.0,0.0,0.0,0.0,0.0,0.0,0.0,0.0,0.0,0.0,0.0,0.0,0.0,0.0,0.0,0.0,0.0,0.0,0.0,0.0,0.0,0.0,-0.9504,-0.87,-0.753,-0.7393,-0.7656,-0.8376,-0.7936,-0.7749,-0.8187,-0.7656,-0.7701,-0.8577,-0.852,-0.8806,-0.9805,-1.0311,-1.0653,-1.0808,-1.1233,-1.151,-1.1683,-1.1854,-1.1969,-1.1969,-1.2294,-1.2624,-1.3026,-1.3346,-1.4034,-1.4836,-1.521,-1.5662,-1.6152,-1.6247,-1.655,0.0,0.0,0.0,0.0,0.0,-1.8495,-1.9308,0.0,0.0,0.0,0.0,0.0,0.0,0.0,0.0,0.0,0.0,0.0,0.0,0.0,0.0,0.0,0.0,0.0,0.0,0.0,0.0,0.0,1.612,1.3899,1.1785,0.978,0.6041,0.2332,-0.1329,-0.4534,-0.8278,-1.2385,-1.4138,-1.6376,-1.895,-1.9937,-2.1552,-2.3554,-2.3993,-2.5383,-2.7333,-2.7837,-2.8154,-2.8334,-2.8372,-2.8397,-2.8488,-2.9188,-2.9541,-2.9751,-3.0245,0.0,0.0,0.0,0.0,0.0,0.0,0.0,0.0,0.0,0.0,0.0,0.0,0.0,0.0,0.0,0.0,0.0,0.0,0.0,0.0,0.0,0.0,0.0,0.0,-1.0014,-0.95,-0.9611,-0.9557,-0.9557,-0.9406,-0.9311,-0.9134,-0.8922,-0.8829,-0.9036,-0.9823,-0.9852,-1.0323,-1.1308,-1.1349,0.0,0.0,0.0,-1.1343,-1.1376,-1.2147,-1.2602,-1.2602,-1.3383,-1.3664,-1.3542,-1.4302,-1.4529,-1.4328,-1.509,-1.5428,-1.5436,-1.6167,-1.6525,-1.6623,-1.6578,-1.7003,-1.765,-1.7779,-1.8032,-1.8286,0.0,0.0,0.0,0.0,0.0,0.0,0.0,0.0,0.0,0.0,0.0,0.0,0.0,0.0,0.0,0.0,0.0,0.0,0.0,0.0,2.0144,1.9332,1.7578,1.6064,1.4905,1.1494,0.7863,0.4111,-0.112,-0.6357,-1.1616,-1.5737,-1.8803,-2.0916,-2.2126,-2.3045,-2.3746,-2.4832,-2.6074,-2.7352,-2.8048,-2.8601,-2.9053,-2.9433,-2.957,-2.9589,-2.9675,-3.0188,-3.0847,-3.1164,-3.1358,-3.1529,-3.152,0.0,0.0,0.0,0.0,0.0,0.0,0.0,0.0,0.0,0.0,0.0,0.0,0.0,0.0,0.0,0.0,0.0,0.0,0.0,0.0,-1.3215,-1.2337,-1.1633,-1.1389,-1.1369,-1.1075,-1.026,-0.9216,-0.8867,-0.96,-0.8962,-0.8871,-0.9811,-0.969,-1.005,-1.1009,-1.0855,-1.0835,-1.1069,-1.0848,-1.0842,-1.1076,-1.166,-1.1966,-1.1966,0.0,0.0,-1.402,-1.4201,-1.4409,-1.4733,-1.5386,-1.5468,-1.5192,-1.5847,-1.6681,-1.7566,-1.6986,-1.7198,-1.7808,-1.7402,-1.7931,-1.88,0.0,0.0,0.0,0.0,0.0,0.0,0.0,0.0,0.0,0.0,0.0,0.0,0.0,0.0,0.0,0.0,0.0,0.0,0.0,2.2748,2.2231,2.1876,2.0061,1.8768,1.8206,1.4697,1.1347,0.8308,0.2771,-0.3231,-0.969,-1.6302,-2.0242,-2.1792,-2.2772,-2.3436,-2.3907,-2.4713,-2.5898,-2.7285,-2.7693,-2.8513,-2.9544,-2.9913,-3.0074,-3.0148,-3.0515,-3.0959,-3.1411,-3.1796,-3.2354,-3.2824,-3.2683,-3.2072,-3.1435,0.0,0.0,0.0,0.0,0.0,0.0,0.0,0.0,0.0,0.0,0.0,0.0,0.0,0.0,-1.6957,-1.6684,0.0,-1.4458,-1.3901,-1.3251,-1.2599,-1.1962,-1.1617,-1.1339,-1.0911,-1.0305,-1.0036,-1.0393,-0.9968,-0.9841,-1.0188,-1.0124,-1.0244,-1.0775,-1.0641,-1.0876,-1.139,-1.1248,-1.1486,-1.2026,-1.2653,-1.2992,-1.2992,-1.3846,-1.4392,-1.4805,-1.4879,-1.5064,-1.5255,-1.5658,-1.5741,-1.5628,-1.6266,-1.7504,-1.8833,-1.7885,-1.7715,-1.802,-1.7728,-1.7856,-1.8156,0.0,0.0,0.0,0.0,0.0,0.0,0.0,0.0,0.0,0.0,0.0,0.0,0.0,0.0,0.0,0.0,0.0,0.0,0.0,2.3997,2.3749,2.3493,2.1822,2.0764,2.0461,1.7187,1.412,1.1336,0.6107,-0.0214,-0.7637,-1.6053,-2.0506,-2.1484,-2.2304,-2.3064,-2.3734,-2.4105,-2.5325,-2.7025,-2.7073,-2.8093,-2.9612,-2.9919,-3.0147,-3.0384,-3.1016,-3.1425,-3.1703,-3.2145,-3.2966,-3.3756,-3.3459,-3.3468,-3.3583,-3.3481,-3.1654,0.0,0.0,0.0,0.0,0.0,0.0,0.0,0.0,-2.2553,-2.1741,-2.095,-1.9511,-1.8228,-1.7805,-1.6769,-1.566,-1.4569,-1.3932,-1.3229,-1.241,-1.1857,-1.1511,-1.1692,-1.1451,-1.1169,-1.0929,-1.0909,-1.0815,-1.0645,-1.0744,-1.08,-1.08,-1.0989,-1.1358,-1.202,-1.2012,-1.2328,-1.3009,-1.3786,-1.4213,-1.4204,-1.4915,-1.5351,-1.5436,-1.5557,-1.5624,-1.5605,-1.5835,-1.606,-1.6293,-1.6884,-1.8197,-1.9674,-1.8622,-1.8218,-1.8311,-1.8218,-1.7931,-1.7666,0.0,0.0,0.0,0.0,0.0,0.0,0.0,0.0,0.0,0.0,0.0,0.0,0.0,0.0,0.0,0.0,0.0,0.0,2.4646,2.448,2.411,2.3434,2.2963,2.2391,2.1707,2.0175,1.7128,1.2518,0.7629,0.1306,-0.6388,-1.4661,-1.8729,-1.915,-2.0535,-2.1714,-2.2692,-2.3215,-2.4577,-2.6403,-2.635,-2.7337,-2.888,-2.9246,-2.9786,-3.0292,-3.0333,-3.0966,-3.1797,-3.1841,-3.2409,-3.307,-3.2936,-3.242,-3.2012,-3.2674,-3.1218,-2.9687,-3.1173,-3.0097,-2.8434,-2.7895,-2.7025,-2.63,0.0,-2.4957,-2.343,-2.3173,-2.1275,-1.9693,-1.9599,-1.79,-1.656,-1.6759,-1.5424,-1.4239,-1.3923,-1.3404,-1.306,-1.2857,-1.1585,-1.0705,-1.0672,-1.0672,-1.0658,-1.0624,-1.1288,-1.1648,-1.1648,-1.2328,-1.2765,-1.2887,-1.2887,-1.2887,-1.3009,-1.3786,-1.4213,-1.4204,-1.462,-1.5123,-1.5646,-1.5309,-1.5222,-1.5366,-1.5568,-1.623,-1.7148,-1.7245,-1.7954,-1.8974,-1.8344,-1.8413,-1.8738,-1.8316,-1.8358,-1.8727,0.0,0.0,0.0,0.0,0.0,0.0,0.0,0.0,0.0,0.0,0.0,0.0,0.0,0.0,0.0,0.0,0.0,0.0,2.3977,2.3599,2.3182,2.2718,2.2038,2.164,2.1621,2.0322,1.8249,1.5379,1.1202,0.5592,-0.1455,-0.8889,-1.4088,-1.7144,-1.7944,-1.9173,-2.0732,-2.1275,-2.2694,-2.4597,-2.5208,-2.6391,-2.779,-2.7827,-2.8093,-2.8574,-2.9627,-3.0318,0.0,0.0,-3.1487,-3.2185,-3.2206,-3.2346,-3.2494,-3.264,-3.1621,-3.0399,-3.0125,-3.0018,-2.9748,-2.8715,-2.8255,-2.7965,-2.7729,-2.6484,-2.5168,-2.4553,-2.2992,-2.1406,-2.049,-1.9127,-1.7852,-1.7003,-1.6058,-1.5093,-1.4206,-1.3768,-1.3216,-1.2428,-1.1717,-1.1469,-1.1973,-1.1973,-1.1973,-1.1973,-1.2328,-1.2512,-1.2512,-1.2826,-1.3183,-1.3666,-1.3726,-1.3906,-1.4392,-1.4522,-1.4573,-1.4573,-1.483,-1.5106,-1.5352,-1.5647,-1.6032,-1.6453,-1.6534,-1.7037,-1.7787,-1.7787,-1.8425,-1.9426,-1.8829,-1.9127,-1.9825,-1.8892,-1.8688,-1.893,0.0,0.0,0.0,0.0,0.0,0.0,0.0,0.0,0.0,0.0,0.0,0.0,0.0,0.0,0.0,0.0,0.0,0.0,0.0,2.2752,2.2173,2.1496,2.078,0.0,2.0473,1.9366,1.7974,1.6242,1.3377,0.8675,0.2311,-0.3798,-0.9051,-1.3365,-1.4725,-1.6284,-1.7977,-1.9079,-2.0675,-2.2579,-2.3351,-2.4639,-2.6034,-2.5824,-2.5928,-2.6419,-2.8183,-2.8932,0.0,0.0,-3.0171,-3.0834,-3.1181,-3.1708,-3.2224,-3.2263,-3.1975,-3.1381,-3.0145,-3.0491,-3.0981,-2.9987,-2.9817,-2.9669,-2.882,-2.7787,-2.6788,-2.5813,-2.4229,-2.2639,-2.1495,-2.0182,-1.889,-1.759,-1.6852,-1.6044,-1.4994,-1.4545,-1.3896,-1.2903,-1.2801,-1.3053,-1.3606,-1.3061,-1.2757,-1.3009,-1.3191,-1.3304,-1.3304,-1.3545,-1.3862,-1.4354,-1.4344,-1.4589,-1.5059,-1.4923,-1.4875,-1.4875,-1.5049,-1.5241,-1.5484,-1.6221,-1.6848,-1.7312,-1.7463,-1.7827,-1.8341,-1.8341,-1.8935,-1.9803,-1.9442,-1.9819,-2.0496,-1.9758,-1.9325,-1.9169,0.0,0.0,0.0,0.0,0.0,0.0,0.0,0.0,0.0,0.0,0.0,0.0,0.0,0.0,0.0,0.0,0.0,0.0,0.0,2.241,2.139,1.9753,1.9626,1.9192,1.8221,1.7585,1.6063,1.3627,1.277,0.9255,0.3154,-0.1008,-0.4285,-0.6753,-1.081,-1.3209,-1.4339,-1.6837,-1.8874,-2.0506,-2.0572,-2.1765,-2.3409,-2.3203,-2.3428,-2.4092,-2.5577,0.0,0.0,0.0,-2.8402,-2.8837,-2.9685,-2.9973,-3.0193,-3.1144,-3.1929,-3.2444,-3.2396,-3.2317,-3.2322,-3.2518,-3.2179,-3.1466,-3.009,-2.903,-2.8077,-2.7245,-2.4895,-2.3,-2.294,-2.0968,-1.9299,-1.9233,-1.8157,-1.7161,-1.666,-1.6276,-1.5838,-1.5342,-1.5294,-1.5294,-1.5294,-1.3226,-1.2143,-1.2948,-1.3726,-1.4154,-1.4154,-1.4874,-1.5167,-1.4814,-1.4805,-1.46,-1.4116,-1.4797,-1.5102,-1.5102,-1.5252,-1.5652,-1.6279,-1.6964,-1.7284,-1.7353,-1.7867,-1.838,-1.8893,-1.8893,-1.9221,-1.9741,-2.0089,-2.0296,-2.0379,-2.0764,-2.0398,-1.969,0.0,0.0,0.0,0.0,0.0,0.0,0.0,0.0,0.0,0.0,0.0,0.0,0.0,0.0,0.0,0.0,0.0,0.0,0.0,2.1586,2.0685,1.92,1.8774,1.809,1.7011,1.6421,1.4868,1.231,1.163,0.9497,0.5932,0.2553,-0.1131,-0.5055,-0.7195,-0.9485,-1.1949,-1.44,-1.6536,-1.8377,-1.9475,-2.0822,-2.2144,-2.1591,-2.1435,-2.1672,0.0,0.0,0.0,-2.609,-2.6527,-2.6945,-2.7381,-2.7884,-2.8502,-2.9563,-3.021,-3.0594,-3.0634,-3.1584,-3.245,-3.1995,-3.2206,-3.2282,-3.144,-3.0328,-2.9243,-2.8466,-2.7018,-2.545,-2.3874,-2.2153,-2.0565,-1.9486,-1.8475,-1.7549,-1.6826,-1.6602,-1.6046,-1.4771,-1.4628,-1.4628,-1.4628,-1.4382,-1.4323,-1.4569,-1.4815,-1.4991,-1.4991,-1.5225,-1.5387,-1.5385,-1.5375,-1.5368,-1.536,-1.5304,-1.5241,-1.523,-1.5404,-1.6017,-1.6964,-1.7196,-1.7706,-1.838,-1.8535,-1.893,-1.9442,-1.9722,-1.9934,-2.0158,-2.0599,-2.0748,-2.0797,-2.0926,-2.0797,-2.0565,0.0,0.0,0.0,0.0,0.0,0.0,0.0,0.0,0.0,0.0,0.0,0.0,0.0,0.0,0.0,0.0,0.0,0.0,0.0,0.0,1.9939,1.8688,1.788,1.7053,1.6133,1.5342,1.3882,1.1702,1.1031,0.9482,0.7052,0.4566,0.1418,-0.2346,-0.4456,-0.7014,-0.9859,-1.2009,-1.4242,-1.6355,-1.7177,-1.8598,-2.0154,-1.928,-1.9127,0.0,0.0,0.0,0.0,-2.3693,-2.4354,-2.4787,-2.5207,-2.605,-2.7042,-2.7925,-2.8648,-2.9292,-2.9816,-3.0975,-3.2002,-3.1797,-3.2291,-3.2736,-3.2344,-3.1467,-3.0531,-2.9566,-2.8252,-2.6688,-2.4749,-2.2968,-2.1348,-1.9966,-1.9044,-1.8078,-1.7061,-1.6836,-1.6268,-1.4995,-1.4721,-1.4628,-1.4628,-1.5108,-1.541,-1.541,-1.541,-1.541,-1.541,-1.541,-1.5432,-1.5475,-1.5465,-1.5509,-1.5552,-1.5457,-1.5614,-1.6006,-1.613,-1.6701,-1.7585,-1.7787,-1.8327,-1.9163,-1.9325,-1.9687,-2.0174,-2.0431,-2.055,-2.0583,-2.1039,-2.1213,-2.1244,-2.1385,-2.1462,-2.1432,0.0,0.0,0.0,0.0,0.0,0.0,0.0,0.0,0.0,0.0,0.0,0.0,0.0,0.0,0.0,0.0,0.0,0.0,0.0,0.0,0.0,1.8131,1.7011,1.6133,1.5588,1.4411,1.311,1.1653,1.1099,0.9356,0.6588,0.5159,0.346,0.133,-0.2619,-0.5668,-0.7979,-0.9859,-1.2219,-1.4625,-1.399,-1.5275,-1.7431,-1.646,0.0,0.0,0.0,0.0,0.0,-2.0782,-2.1965,-2.2372,-2.3218,-2.4392,-2.5579,-2.6207,-2.7255,-2.8522,-2.9845,-3.05,-3.1018,-3.1894,-3.2482,-3.2811,-3.2711,-3.2418,-3.1796,-3.0517,-2.8626,-2.6796,-2.5537,-2.3594,-2.182,-2.0871,-1.9933,-1.8878,-1.7599,-1.6992,-1.6562,-1.6084,-1.5664,-1.541,-1.541,-1.541,-1.541,-1.541,-1.541,-1.541,-1.5468,-1.5449,-1.5329,-1.5216,-1.5164,-1.5053,-1.4801,-1.541,-1.6232,-1.7353,-1.7353,-1.7626,-1.8185,-1.8688,-1.92,-1.9656,-2.0128,-2.0583,-2.0991,-2.1023,-2.1023,-2.1055,-2.146,-2.1658,-2.1688,-2.2163,-2.2321,-2.2192,0.0,0.0,0.0,0.0,0.0,0.0,0.0,0.0,0.0,0.0,0.0,0.0,0.0,0.0,0.0,0.0,0.0,0.0,0.0,0.0,0.0,0.0,0.0,0.0,0.0,0.0,0.0,0.0,0.0,0.9356,0.6588,0.6199,0.4419,0.0,-0.1484,-0.4311,-0.7012,-0.9125,-1.1575,-1.3961,0.0,-1.5371,-1.6953,0.0,0.0,0.0,0.0,0.0,-1.6693,-1.8687,-1.9558,-2.0028,-2.1325,-2.2003,-2.2586,-2.4125,-2.5256,-2.621,-2.7219,-2.8537,-2.982,-3.0648,-3.1447,-3.2067,-3.2274,-3.2,-3.1512,-3.0983,-2.9607,-2.8207,-2.7243,-2.5497,-2.3838,-2.2575,-2.1112,-1.9575,-1.8093,-1.7166,-1.6445,-1.5674,-1.5478,-1.541,-1.541,-1.541,-1.541,-1.541,-1.541,-1.5642,-1.6208,-1.5833,-1.5913,-1.6589,-1.6173,-1.601,-1.6032,-1.66,-1.7203,-1.7907,-1.7907,-1.8185,-1.8727,-1.92,-1.9692,-2.0162,-2.0616,-2.0894,-2.1023,-2.1337,-2.143,-2.1491,-2.1928,-2.2106,-2.2147,-2.2483,-2.2599,-2.2582,0.0,0.0,0.0,0.0,0.0,0.0,0.0,0.0,0.0,0.0,0.0,0.0,0.0,0.0,0.0,0.0,0.0,0.0,0.0,0.0,0.0,0.0,0.0,0.0,0.0,0.0,0.0,0.0,0.0,0.0,0.0,0.6603,0.4878,0.1667,-0.0997,-0.3492,-0.5751,0.0,0.0,0.0,0.0,0.0,0.0,0.0,0.0,0.0,0.0,0.0,-1.5437,-1.6128,-1.7087,-1.8182,-1.923,-1.9747,-2.0308,-2.1912,-2.3088,-2.4004,-2.5067,-2.6488,-2.7841,-2.8522,-2.9794,-3.0962,-3.1339,-3.1655,-3.1684,-3.0944,-2.989,-2.8865,-2.7954,-2.6466,-2.4898,-2.3597,-2.2031,-2.0324,-1.85,-1.7567,-1.6689,-1.5801,-1.5693,-1.5625,-1.543,-1.541,-1.5517,-1.5864,-1.5864,-1.5955,-1.6144,-1.6157,-1.6373,-1.6764,-1.648,-1.6478,-1.6837,-1.7394,-1.7907,-1.8458,-1.8458,-1.8826,-1.9528,-1.9798,-2.0249,-2.0894,0.0,-2.1444,-2.1753,-2.1972,-2.2169,-2.2334,-2.2573,-2.2686,-2.2695,-2.2848,-2.2986,-2.31,0.0,0.0,0.0,0.0,0.0,0.0,0.0,0.0,0.0,0.0,0.0,0.0,0.0,0.0,0.0,0.0,0.0,0.0,0.0,0.0,0.0,0.0,0.0,0.0,0.0,0.0,0.0,0.0,0.0,0.0,0.0,0.0,0.0,0.0,0.0,0.0,0.0,0.0,0.0,0.0,0.0,0.0,0.0,0.0,0.0,0.0,0.0,0.0,-1.4204,-1.369,-1.4739,-1.6396,-1.6972,-1.7609,-1.839,-1.9611,-2.0779,-2.1957,-2.3137,-2.4334,-2.543,-2.6004,-2.7673,-2.9318,-2.9851,-3.0979,-3.1616,-3.0529,-2.9775,-2.9032,-2.8167,-2.687,-2.5515,-2.415,-2.2791,-2.1131,-1.8996,-1.7968,-1.7111,-1.6223,-1.6076,-1.583,-1.5449,-1.541,-1.57,-1.6436,-1.6543,-1.6388,-1.603,-1.6521,-1.6711,-1.6429,-1.6486,-1.686,-1.7517,-1.7987,-1.8482,-1.9103,-1.9103,-1.9528,-2.0382,-2.0449,-2.0927,-2.1672,-2.1715,-2.2113,-2.2772,-2.2772,-2.2947,-2.3189,-2.3189,-2.3212,-2.3241,-2.3287,-2.3418,-2.366,0.0,0.0,0.0,0.0,0.0,0.0,0.0,0.0,0.0,0.0,2.4613,2.7001,0.0,0.0,0.0,0.0,0.0,0.0,0.0,0.0,0.0,0.0,0.0,0.0,0.0,0.0,0.0,0.0,0.0,0.0,0.0,0.0,0.0,0.0,0.0,0.0,0.0,0.0,0.0,0.0,0.0,0.0,0.0,0.0,0.0,0.0,0.0,-1.3382,-1.3262,0.0,-1.3322,-1.3782,-1.4508,-1.5264,-1.6064,-1.6883,-1.8524,-2.0226,-2.09,-2.2053,-2.3272,-2.4131,-2.5165,-2.6279,-2.7422,-2.8536,-2.9438,-2.9832,-2.9674,-2.9236,-2.8532,-2.7566,-2.6301,-2.4494,-2.3447,-2.1976,-1.94,-1.8347,-1.7431,-1.6245,-1.5742,-1.5498,-1.542,-1.541,-1.57,-1.6436,-1.6667,-1.6983,-1.7479,-1.7225,-1.7086,-1.7118,-1.7568,-1.8069,-1.8612,-1.8688,-1.92,-2.0058,-2.0058,-2.0348,-2.0894,-2.1228,-2.1609,-2.204,-2.2361,0.0,-2.3117,-2.3117,-2.3141,-2.3189,-2.3189,-2.3298,-2.3469,-2.3773,-2.3989,-2.4204,0.0,0.0,0.0,0.0,0.0,0.0,0.0,0.2441,0.9975,1.4541,2.0241,2.4799,2.7186,2.5456,0.0,0.0,0.0,0.0,0.0,0.0,0.0,0.0,0.0,0.0,0.0,0.0,1.2731,1.0813,0.0,0.9619,0.6588,0.6362,0.4816,0.212,0.0,0.0,0.0,0.0,0.0,0.0,0.0,0.0,0.0,0.0,0.0,0.0,0.0,-1.2435,-1.168,-1.168,-1.1114,-1.0662,-1.2356,-1.2816,-1.2964,-1.4182,-1.5298,-1.6446,-1.7977,-1.9103,-2.0129,-2.1292,-2.2551,-2.3857,-2.504,-2.6508,-2.7886,-2.8906,-2.9154,-2.9094,-2.8813,-2.6974,-2.4845,-2.2804,-2.1095,-1.9104,-1.6567,-1.6233,-1.5826,-1.4644,-1.4441,-1.455,-1.4775,-1.5138,-1.5723,-1.6568,-1.7363,-1.7725,-1.7488,-1.7331,-1.7219,-1.7284,-1.8106,-1.865,-1.8893,-1.9383,-1.9849,-2.0314,-2.055,-2.0991,-2.1592,-2.177,-2.2152,-2.2686,-2.288,-2.3141,-2.3459,-2.3559,-2.3707,-2.3886,-2.3987,-2.4082,-2.4207,-2.4348,-2.4526,-2.47,0.0,0.0,0.0,0.0,0.0,0.0,0.0,-0.2507,0.3843,0.9552,1.6666,2.3134,2.8212,2.6774,2.4864,0.0,0.0,0.0,0.0,0.0,0.0,0.0,0.0,0.0,0.0,0.0,0.0,1.0813,1.099,0.0,0.0,0.0,0.0,0.0,-0.0577,-0.2477,-0.3418,0.0,0.0,0.0,0.0,-0.9771,0.0,0.0,0.0,0.0,0.0,-1.1051,-0.9977,-1.0121,-0.9105,-0.8073,-0.9562,-1.0047,-1.0401,-1.1654,-1.2237,-1.2948,-1.4821,-1.5864,-1.6667,-1.7921,-1.9504,-2.107,-2.2317,-2.421,-2.6083,-2.7567,-2.8089,-2.8249,-2.8127,-2.5304,-2.2133,-1.9509,-1.717,-1.489,-1.2757,-1.3168,-1.3423,-1.2687,-1.2822,-1.3168,-1.3614,-1.4368,-1.5221,-1.6267,-1.7594,-1.8138,-1.7505,-1.7583,-1.7626,-1.7626,-1.8574,-1.9118,-1.9214,-1.9919,-2.0366,-2.0567,-2.1023,-2.1592,-2.2252,-2.2317,-2.2686,-2.3323,-2.3356,-2.3574,-2.3883,-2.41,-2.4316,-2.4575,-2.4746,-2.4832,-2.4842,-2.4865,-2.4968,-2.5096,0.0,0.0,0.0,0.0,0.0,0.0,0.0,-0.3125,0.3843,0.9552,1.7021,2.4069,2.9999,2.7565,2.5018,0.0,0.0,0.0,0.0,0.0,0.0,0.0,0.0,0.0,0.0,0.0,0.0,1.0813,1.0195,0.0,0.0,0.0,0.0,0.0,0.0,-0.3578,-0.5191,-0.5445,0.0,0.0,0.0,0.0,0.0,0.0,0.0,0.0,0.0,-0.8339,-0.8323,-0.8794,-0.8169,-0.6854,-0.5114,-0.6727,-0.9364,-0.9485,-1.054,-1.17,-1.1881,-1.2476,-1.3258,-1.42,-1.5513,-1.7081,-1.8783,-2.1008,-2.3293,-2.5347,-2.6081,-2.6139,-2.5403,-2.2277,-1.8468,-1.4297,-1.2164,-1.0483,-0.8906,-0.9649,-1.0542,-1.1132,-1.1009,-1.117,-1.1835,-1.2643,-1.3623,-1.4808,-1.6434,-1.774,-1.8694,-1.8731,-1.8727,-1.8727,-1.9332,-1.9788,-2.0177,-2.028,-2.0699,-2.1491,-2.1828,-2.2252,-2.2721,-2.2989,-2.3305,-2.3653,-2.3868,-2.4118,0.0,-2.4636,-2.4741,-2.4775,-2.479,-2.4864,-2.4993,-2.5038,-2.5199,-2.537,0.0,0.0,0.0,0.0,0.0,0.0,-1.0566,-0.7882,-0.385,0.3181,1.2212,2.1274,2.9969,2.9221,2.7196,0.0,0.0,0.0,0.0,0.0,0.0,0.0,0.0,0.0,0.0,0.0,1.3226,1.1984,1.0881,0.0,0.0,0.0,0.0,0.0,0.0,-0.2808,-0.5435,-0.5973,0.0,0.0,0.0,0.0,0.0,0.0,0.0,0.0,0.0,0.0,-0.714,-0.6214,-0.4639,-0.2849,-0.2012,-0.2764,-0.419,-0.5546,-0.632,-0.7003,-0.8463,-0.9072,-0.968,-1.1358,-1.2584,-1.3699,-1.5137,-1.7102,-1.9442,-2.2249,-2.357,-2.2825,-1.8364,-1.4875,-1.0911,-0.5585,-0.333,-0.1905,-0.0757,-0.1619,-0.3027,-0.4668,-0.4736,-0.5898,-0.9052,-1.0753,-1.3064,-1.6439,-1.7352,-1.8356,-1.9649,-1.9465,-1.931,-1.931,-2.0074,-2.0565,-2.0715,-2.0975,-2.1366,-2.1915,-2.2324,-2.2815,-2.3341,-2.3577,-2.3868,-2.4192,-2.4385,-2.4559,0.0,-2.4894,-2.5007,-2.504,-2.5165,-2.5244,-2.5308,-2.5324,-2.5389,-2.5453,0.0,0.0,0.0,0.0,0.0,-1.7461,-1.1344,-1.1197,-0.8489,0.0749,0.9801,1.9091,2.8753,2.9802,2.8806,2.6372,0.0,0.0,0.0,0.0,0.0,0.0,0.0,0.0,0.0,0.0,1.3464,1.2822,1.1232,0.9761,0.0,0.0,0.5635,0.4363,0.0,0.0,0.0,0.0,0.0,0.0,0.0,0.0,0.0,0.0,0.0,0.0,0.0,0.0,0.0,0.0,0.0,0.042,0.1245,0.1724,0.0,-0.1859,-0.2684,-0.2868,-0.4586,-0.5321,-0.6,-0.7865,-0.8522,-0.8951,-0.9847,-1.2333,-1.4696,-1.5653,-1.6166,-1.4918,-0.9877,-0.6601,-0.2922,0.0,0.0,0.5839,0.6361,0.5407,0.3828,0.1539,0.1227,-0.0582,-0.5105,-0.8406,-1.21,-1.6475,-1.729,-1.8257,-1.9814,-1.9974,-2.0008,-2.0008,-2.0649,-2.1102,-2.1336,-2.1678,-2.2057,-2.2522,-2.3005,-2.3454,-2.3888,-2.4118,-2.4368,-2.4591,-2.4794,-2.4898,0.0,-2.513,-2.5248,-2.5291,-2.5437,-2.5498,-2.5509,-2.5515,-2.5537,-2.5537,0.0,0.0,0.0,0.0,0.0,0.0,-1.2567,-1.1781,-0.7376,0.4922,1.1712,1.843,2.6378,2.878,2.9224,2.7801,0.0,0.0,0.0,0.0,0.0,0.0,0.0,0.0,0.0,0.0,1.3464,1.2822,1.0739,0.9003,0.7606,0.6176,0.5158,0.4422,0.0,0.0,0.0,0.0,0.0,0.0,0.0,0.0,0.0,0.0,0.0,0.0,0.0,0.0,0.0,0.0,0.0,0.0,0.0,0.6672,0.0,0.0,-0.0311,-0.0254,-0.0254,-0.104,-0.2114,-0.3257,-0.2878,-0.2262,-0.2452,-0.6567,-0.9092,-0.454,-0.2375,-0.1078,-0.0276,0.1961,0.4894,0.86,1.0681,0.0,1.1183,1.0268,0.8751,0.6306,0.588,0.4229,0.0192,-0.5628,-1.0476,-1.3793,-1.5454,-1.7059,-1.8803,-2.023,-2.1007,-2.1007,-2.0991,-2.1366,-2.2079,-2.2279,-2.2757,-2.3476,-2.4026,-2.429,-2.4307,-2.4625,-2.479,-2.4804,-2.5004,-2.5095,0.0,-2.5401,-2.5508,-2.5508,-2.5508,-2.5508,-2.5512,-2.5578,-2.5601,-2.5618,0.0,0.0,0.0,0.0,0.0,0.0,0.0,-0.847,-0.3716,0.5401,1.2615,1.9303,2.5556,2.7682,2.8597,2.847,0.0,0.0,0.0,0.0,0.0,0.0,0.0,0.0,0.0,0.0,1.5656,1.4642,1.3111,1.121,0.9003,0.76,0.6386,0.5338,0.2483,0.0059,0.0,0.0,0.0,0.0,0.0,0.0,-0.5676,0.0,0.0,0.0,0.0,0.0,0.0,0.0,0.0,0.0,0.0,0.0,0.0,0.0,0.5024,0.4005,0.3324,0.2688,0.1924,0.0686,0.0793,0.1288,0.164,0.0624,0.0193,0.2326,0.4851,0.8325,1.3706,1.5569,1.6289,1.628,1.7058,1.7565,1.7386,1.6502,1.4861,1.2051,0.7756,0.3822,0.0658,-0.388,-0.8528,-1.3042,-1.5423,-1.7719,-2.02,-2.1039,-2.1383,-2.1348,-2.1898,-2.2398,-2.2838,-2.3053,-2.3394,-2.3835,-2.4192,-2.4447,-2.465,-2.4934,-2.5064,-2.5073,-2.5232,-2.5327,-2.5383,-2.543,-2.5468,-2.5494,-2.5494,-2.5494,-2.5497,-2.5526,-2.5527,-2.5526,0.0,0.0,0.0,0.0,0.0,0.0,0.0,-0.7214,-0.2151,0.6325,1.3128,1.9111,2.4266,2.6559,2.7899,2.8381,0.0,0.0,0.0,0.0,0.0,0.0,0.0,0.0,0.0,1.8369,1.7457,1.6756,1.5542,1.3501,1.0677,0.9585,0.7906,0.5832,0.384,0.2109,0.0,0.0,0.0,0.0,0.0,0.0,-0.5342,0.0,0.0,0.0,0.0,0.0,0.0,0.0,0.0,0.0,0.0,0.0,0.0,0.0,1.0072,0.8886,0.7128,0.6646,0.6483,0.5818,0.6224,0.7128,0.8346,0.866,0.9055,1.0432,1.2844,1.6178,2.0989,2.1994,2.1797,2.0903,2.112,2.1413,2.1429,2.0517,1.892,1.628,1.0945,0.6686,0.4664,-0.033,-0.5371,-1.0069,-1.3645,-1.6938,-1.994,-2.1178,-2.1864,-2.2027,-2.2548,-2.3077,-2.3611,-2.3833,-2.41,-2.4418,-2.4682,-2.4908,-2.5072,-2.5207,-2.5272,-2.5271,-2.536,-2.5427,0.0,-2.5431,-2.5469,-2.5499,-2.5499,-2.5499,-2.5499,-2.5499,-2.5499,-2.5499,0.0,0.0,0.0,0.0,0.0,0.0,0.0,0.0,-0.1912,0.7588,1.3397,1.8259,2.2521,2.5264,2.6989,2.75,0.0,0.0,0.0,0.0,0.0,0.0,0.0,0.0,0.0,1.967,1.8965,1.8871,1.786,1.5716,1.2556,1.1858,0.9644,0.6201,0.6157,0.4834,0.2589,-0.0172,-0.225,-0.379,-0.4278,-0.4513,0.0,0.0,0.0,0.0,0.0,0.0,0.0,0.0,0.0,0.0,0.0,0.0,0.0,0.0,0.0,0.0,0.0,1.0747,1.1176,1.1506,1.27,1.4419,1.656,1.676,0.0,1.9047,2.0889,2.2283,2.2643,2.25,2.2473,2.2893,2.3338,2.3615,2.3687,2.2583,2.1005,1.9036,1.4974,1.2032,1.1166,0.4746,-0.1103,-0.5329,-1.0445,-1.4911,-1.8285,-2.0814,-2.2407,-2.3029,-2.3111,-2.3515,-2.4325,-2.461,-2.4865,-2.5094,-2.536,-2.5495,-2.5488,-2.5425,-2.5409,0.0,-2.5408,-2.5396,0.0,-2.544,-2.5457,-2.5447,-2.5447,-2.5456,-2.5456,-2.5456,-2.5456,-2.5456,0.0,0.0,0.0,0.0,0.0,0.0,0.0,0.0,0.0,0.0,1.4265,1.8958,2.0923,2.2631,2.4067,0.0,0.0,0.0,0.0,0.0,0.0,0.0,0.0,0.0,0.0,2.1721,2.0724,1.9798,1.9129,1.7237,1.4193,1.317,1.1474,0.9292,0.8417,0.8081,0.8053,0.7601,0.7449,0.7322,0.5656,0.3984,0.0,0.0,0.0,0.0,1.1077,1.2751,0.0,0.0,0.0,0.0,0.0,0.0,0.0,0.0,1.7115,1.709,1.69,0.0,1.3998,1.4264,1.5274,1.6612,0.0,1.9311,2.0586,2.2471,2.3371,2.405,2.4736,2.4649,2.4534,2.4736,2.5637,2.6135,2.5702,2.4163,2.2169,1.985,1.7568,1.5367,1.318,0.9167,0.4307,-0.1575,-0.7277,-1.2481,-1.7063,-2.0563,-2.2988,-2.432,-2.4381,-2.4487,-2.4671,-2.496,-2.5084,-2.5093,-2.5366,-2.5473,-2.5426,-2.5469,-2.5479,-2.5468,-2.541,-2.5395,-2.5393,-2.5203,-2.5115,-2.5103,-2.5,-2.4966,-2.4966,-2.4966,-2.4966,-2.4966,0.0,0.0,0.0,0.0,0.0,0.0,0.0,0.0,0.0,0.0,0.0,0.0,0.0,0.0,0.0,0.0,0.0,0.0,0.0,0.0,0.0,0.0,0.0,2.4758,2.3743,2.3171,2.2602,2.2031,2.1868,2.0378,1.7617,1.7014,1.5575,1.3516,1.2447,1.2189,1.2704,1.4113,1.4967,1.5186,1.3452,0.0,0.0,0.0,0.0,0.0,1.5908,1.6979,0.0,1.7258,1.7379,1.8034,0.0,0.0,0.0,0.0,2.0072,2.0134,2.0502,1.8725,1.6975,1.7893,1.8565,1.9374,2.0673,2.1693,2.2732,2.4088,2.4475,2.4798,2.5465,2.5798,2.5983,2.6039,2.7173,2.7644,2.6634,2.5535,2.3827,2.1164,1.9816,1.8309,1.6305,1.3249,0.9136,0.3699,-0.1954,-0.8923,-1.7567,-2.1145,-2.3436,-2.4573,-2.4526,-2.4678,-2.5069,-2.5255,-2.5296,-2.5244,-2.5325,-2.5344,-2.5305,-2.531,-2.5264,-2.5178,-2.5214,-2.5187,-2.5106,-2.4962,-2.4917,-2.4904,-2.4828,-2.4804,-2.4804,-2.4804,-2.4804,-2.4804,0.0,0.0,0.0,0.0,0.0,0.0,0.0,0.0,0.0,0.0,0.0,0.0,0.0,0.0,0.0,0.0,0.0,0.0,0.0,0.0,0.0,0.0,0.0,2.5526,2.4284,2.4123,2.4072,2.411,2.4256,2.3233,2.1087,2.0894,1.9581,1.732,1.6467,1.604,1.6128,1.8507,1.9571,1.9567,1.8434,0.0,0.0,0.0,0.0,0.0,0.0,0.0,0.0,2.0479,2.0537,2.0907,2.2404,0.0,0.0,0.0,0.0,0.0,2.2812,2.1352,2.0138,2.1383,2.1772,2.2154,2.3253,2.3695,2.4032,2.4697,2.4948,2.5201,2.5697,2.6519,2.7147,2.7235,2.845,2.8858,2.7431,2.6992,2.5787,2.2879,2.1976,2.1075,1.9664,1.707,1.3794,0.9703,0.4478,-0.3776,-1.5809,-1.9616,-2.2301,-2.4184,-2.3844,-2.414,-2.5168,-2.5325,-2.5391,-2.5354,-2.5171,-2.5081,-2.5073,-2.5007,-2.4879,-2.4722,0.0,0.0,-2.4804,-2.4775,-2.4685,-2.4572,-2.4542,-2.4479,-2.4463,-2.4512,-2.4572,-2.4651,0.0,0.0,0.0,0.0,0.0,0.0,0.0,0.0,0.0,0.0,0.0,0.0,0.0,0.0,0.0,0.0,0.0,0.0,0.0,0.0,0.0,0.0,2.5276,2.5798,2.496,2.4486,2.3932,2.3274,2.2864,2.2267,2.1501,2.0511,1.9173,1.7553,1.7398,1.71,1.6802,1.7783,1.7975,1.763,1.7472,0.0,0.0,0.0,0.0,0.0,0.0,0.0,0.0,2.2372,2.2767,2.3182,2.3907,0.0,0.0,0.0,0.0,0.0,2.4179,2.3936,2.3542,2.3123,2.3474,2.4028,2.4408,2.473,2.4957,2.497,2.5557,2.6194,2.6611,2.7509,2.8389,2.9065,3.0208,3.0694,2.9726,2.9221,2.7789,2.4751,2.4437,2.3642,2.1587,2.0805,1.8993,1.5567,1.0847,0.4877,-0.2582,-0.9062,-1.5932,-2.3328,-2.2254,-2.2376,-2.41,-2.471,-2.5034,-2.5152,-2.472,-2.4484,-2.4431,-2.4444,-2.4409,-2.4396,0.0,-2.4832,-2.479,-2.4607,-2.415,-2.3518,-2.3339,-2.3107,-2.2881,-2.318,-2.3529,-2.3903,0.0,0.0,0.0,0.0,0.0,0.0,0.0,0.0,0.0,0.0,0.0,0.0,0.0,0.0,0.0,0.0,0.0,0.0,0.0,0.0,0.0,2.173,2.3584,2.431,2.3644,2.3394,2.3176,2.2935,2.3307,2.3389,2.3146,2.2333,2.1062,1.9482,1.915,1.8887,1.865,1.8081,1.7561,1.7045,0.0,0.0,0.0,0.0,0.0,0.0,0.0,0.0,0.0,0.0,2.3692,2.4118,2.4627,0.0,0.0,0.0,0.0,0.0,2.4938,2.4938,2.4844,2.4522,2.4621,2.4841,2.5087,2.5193,2.5381,2.5835,2.6121,2.6587,2.7539,2.8746,3.002,3.132,3.1101,3.0684,3.0503,2.9722,2.8246,2.5638,2.5602,2.5023,2.3009,2.2805,2.2193,2.0756,1.8144,1.1484,-0.0274,-0.3871,-1.0225,-2.0369,-2.0257,-2.0543,-2.1625,-2.1821,-2.2769,-2.4375,-2.4081,-2.3908,-2.3859,-2.3859,-2.38,-2.3717,0.0,-2.4045,-2.3894,-2.3412,-2.2989,-2.2588,-2.2111,-2.1828,-2.1708,-2.185,-2.2433,-2.3141,0.0,0.0,0.0,0.0,0.0,0.0,0.0,0.0,0.0,0.0,0.0,0.0,0.0,0.0,0.0,0.0,0.0,0.0,0.0,0.0,1.98,1.98,2.134,2.2259,2.236,2.2345,2.2375,2.2392,2.3273,2.3622,2.3498,2.2781,2.1843,2.0678,1.9932,1.9372,1.8909,1.7598,1.6546,1.5698,0.0,0.0,0.0,0.0,0.0,0.0,0.0,0.0,0.0,0.0,0.0,0.0,0.0,0.0,0.0,2.5166,2.5213,2.5213,2.5213,2.5213,2.5227,2.5274,2.5233,2.5271,2.5698,2.5703,2.5861,2.6724,2.6902,2.7138,2.7956,2.9307,3.0746,3.2135,3.1283,3.054,3.0737,2.9765,2.8346,2.6365,2.628,2.5723,2.4118,2.4119,2.4195,2.4169,2.2889,1.6834,0.4681,0.1627,-0.4473,-1.481,-1.6734,-1.8035,-1.8961,-1.8729,-2.0104,-2.3049,-2.2904,-2.29,-2.2987,-2.311,-2.3129,-2.3076,-2.3071,-2.3017,-2.287,-2.2051,-2.1666,-2.1515,-2.0936,-2.0726,-2.0741,-2.105,-2.1586,-2.2262,0.0,0.0,0.0,0.0,0.0,0.0,0.0,0.0,0.0,0.0,0.0,0.0,0.0,0.0,0.0,0.0,0.0,0.0,0.0,0.0,1.7829,1.7829,1.8614,2.0012,2.2188,2.2214,2.1899,2.1231,2.1308,2.1069,2.0494,1.9373,1.9096,1.9451,1.8324,1.6926,1.5428,1.5005,1.3768,1.2127,1.2434,0.0,0.0,0.0,0.0,0.0,0.0,0.0,0.0,0.0,0.0,0.0,0.0,0.0,2.4908,2.4917,2.4925,2.4925,2.4925,2.4925,2.4936,2.4927,2.5171,2.5593,2.6418,2.6614,2.6782,2.74,2.8114,2.8356,2.7444,2.8428,2.9506,2.9814,3.0676,3.1151,3.0683,2.985,2.8742,2.7276,2.6643,2.5891,2.4821,2.4953,2.49,2.4413,2.2135,2.0792,2.0926,1.0705,0.1675,-0.5196,-1.0452,-1.4339,-1.6819,-1.6439,-1.7789,-2.0827,-2.0877,-2.1119,-2.1491,-2.1967,-2.2398,-2.2694,-2.2028,-2.1896,-2.2096,-2.1048,-2.035,-1.9954,-1.9921,-1.9903,-2.0023,-2.1144,-2.1341,-2.1214,0.0,0.0,0.0,0.0,0.0,0.0,0.0,0.0,0.0,0.0,0.0,0.0,0.0,0.0,0.0,0.0,0.0,0.0,0.0,0.0,1.6172,1.6172,1.7379,1.8431,1.9333,2.0233,2.0127,1.8945,1.939,1.931,1.8746,1.8042,1.7271,1.6439,1.5622,1.4888,1.4268,1.3763,1.3123,1.2461,1.2855,1.2953,0.0,0.0,0.0,0.0,0.0,0.0,0.0,0.0,2.1922,2.3182,0.0,0.0,2.4418,2.4752,2.4841,2.4847,2.4935,2.4957,2.4998,2.512,2.5239,2.5519,2.6186,2.6293,2.6612,2.7835,2.8335,2.8588,2.8678,2.9045,2.9316,2.9398,2.9795,2.9857,2.9148,2.8464,2.7702,2.6753,2.6474,2.6068,2.5305,2.5215,2.4796,2.379,2.1786,1.9727,1.7771,1.1595,0.4262,-0.406,-0.7298,-1.0623,-1.4205,-1.4014,-1.4908,-1.6956,-1.8948,-1.995,-2.0151,-2.0655,-2.0778,-2.0521,-2.0598,-2.0427,-2.0118,-1.9252,-1.8776,-1.8624,-1.885,-1.9053,-1.9344,-2.0274,-2.0901,-2.1412,0.0,0.0,0.0,0.0,0.0,0.0,0.0,0.0,0.0,0.0,0.0,0.0,0.0,0.0,0.0,0.0,0.0,0.0,1.2948,1.399,1.4554,1.4554,1.6058,1.6757,1.6543,1.8209,1.8608,1.7578,1.7796,1.7739,1.7372,1.649,1.5517,1.4354,1.3511,1.3024,1.2773,1.2267,1.1926,1.1645,1.2366,1.2283,0.0,0.0,0.0,0.0,0.0,0.0,0.0,0.0,0.0,0.0,0.0,0.0,0.0,0.0,2.457,2.4731,2.4818,2.4885,2.4968,2.5115,2.5329,2.5676,2.6298,2.6475,2.6942,2.8569,2.8556,2.8339,2.8594,2.8455,2.8315,2.8315,2.8503,2.8465,2.8009,2.7395,2.6845,2.6464,2.6249,2.587,2.5269,2.5056,2.4456,2.3304,2.108,1.826,1.4803,1.1751,0.6115,-0.2664,-0.5313,-0.8047,-1.1088,-1.1487,-1.2484,-1.4122,-1.6695,-1.8176,-1.8708,-1.9226,-1.9302,-1.9008,-1.8827,-1.8649,-1.839,-1.7523,-1.7309,-1.7588,-1.8026,-1.8358,-1.8676,-1.9631,-2.0505,-2.1302,0.0,0.0,0.0,0.0,0.0,0.0,0.0,0.0,0.0,0.0,0.0,0.0,0.0,0.0,0.0,0.0,0.0,0.0,1.3009,1.3009,1.3009,1.3009,1.4446,1.4915,1.4204,1.6373,1.7578,1.7567,1.6658,1.6177,1.6154,1.4548,1.3747,1.3648,1.2385,1.139,1.0679,1.0409,0.9753,0.8911,1.0205,1.0342,0.9903,0.0,0.0,0.0,0.0,0.0,0.0,0.0,1.9617,0.0,0.0,0.0,0.0,0.0,2.4079,2.4495,2.4512,2.4654,2.4804,2.4804,2.5389,2.6201,2.7016,2.7361,2.7965,2.9637,2.8868,2.7621,2.6755,2.6381,2.6199,2.6199,2.6748,2.7278,2.7543,2.6828,2.6387,2.6653,2.5971,2.5266,2.4656,2.4473,2.3998,2.3064,1.9909,1.6989,1.4718,1.2156,0.7476,0.0271,-0.4255,-0.683,-0.7372,-0.8868,-1.0673,-1.2812,-1.3979,-1.5441,-1.7089,-1.7641,-1.812,-1.8459,-1.6802,-1.6548,-1.7192,-1.6032,-1.6056,-1.6853,-1.7545,-1.7789,-1.7964,-1.9365,-2.0162,-2.0595,0.0,0.0,0.0,0.0,0.0,0.0,0.0,0.0,0.0,0.0,0.0,0.0,0.0,0.0,0.0,0.0,0.0,0.0,1.1296,1.1841,1.2143,1.2143,1.3158,1.3588,1.3373,1.3999,1.5003,1.6407,1.5288,1.4593,1.4277,1.3821,1.3431,1.3142,1.3055,1.2447,1.1458,1.1378,1.0912,1.0249,1.0961,1.0668,0.9903,0.0,0.0,0.0,0.0,0.0,0.0,0.0,0.0,0.0,0.0,0.0,0.0,2.3508,2.4079,2.4545,2.467,2.4823,2.4962,2.5126,2.534,2.5841,2.7124,2.7342,2.7434,2.7929,2.7319,2.6632,2.6364,2.6257,2.6028,2.5508,2.6067,2.6392,2.5904,2.5771,2.5742,2.578,2.548,2.513,2.4711,2.408,2.3282,2.222,1.9308,1.6862,1.5181,1.1443,0.7407,0.3149,-0.0927,-0.4072,-0.6347,-0.8015,-0.958,-1.0937,-1.264,-1.4015,-1.5012,-1.6323,-1.6362,-1.5402,-1.5583,-1.5531,-1.5291,-1.4966,-1.5122,-1.5667,-1.7136,-1.7604,-1.7657,-1.9363,-2.0042,-2.0178,0.0,0.0,0.0,0.0,0.0,0.0,0.0,0.0,0.0,0.0,0.0,0.0,0.0,0.0,0.0,0.0,0.0,0.0,0.0,1.0338,1.0836,1.0836,1.1888,1.2696,1.3009,1.3304,1.3997,1.5004,1.4045,1.3676,1.375,1.3418,1.2857,1.2067,1.2296,1.1754,1.0618,1.0618,1.0364,1.0043,1.0432,1.0105,0.9494,0.0,0.0,0.0,0.0,0.0,0.0,0.0,0.0,0.0,0.0,0.0,0.0,2.3241,2.3928,2.4487,2.4727,2.4962,2.5143,2.5293,2.5869,2.6698,2.7981,2.8039,2.7665,2.6973,2.6568,2.6247,2.594,2.5874,2.5754,2.534,2.565,2.5777,2.5324,2.5312,2.532,2.5289,2.5043,2.4702,2.4257,2.3472,2.2565,2.147,1.9011,1.6771,1.4943,1.1261,0.7995,0.5296,0.126,-0.2316,-0.5313,-0.6791,-0.814,-0.9392,-1.1102,-1.2029,-1.2241,-1.4109,-1.4499,-1.3754,-1.4517,-1.4651,-1.4278,-1.4438,-1.4631,-1.4949,-1.63,-1.6827,-1.6985,-1.8346,-1.9233,-1.9751,0.0,0.0,0.0,0.0,0.0,0.0,0.0,0.0,0.0,0.0,0.0,0.0,0.0,0.0,0.0,0.0,0.0,0.0,0.0,0.0,0.9204,0.9204,1.071,1.1958,1.2765,1.3485,1.3738,1.3451,1.3137,1.334,1.4009,1.3301,1.2243,1.0973,1.0956,1.0198,0.8956,0.891,0.8857,0.8831,0.9044,0.9045,0.8838,0.9044,0.0,0.0,0.0,0.0,0.0,0.0,0.0,0.0,0.0,2.0719,2.1641,2.282,2.3678,2.4393,2.4802,2.5163,2.5466,2.5588,2.6885,2.8306,2.901,2.8946,2.8288,2.6677,2.6429,2.6284,2.5534,2.5401,2.5415,2.5498,2.5431,2.5422,2.5487,2.5269,2.5079,2.5063,2.4645,2.4102,2.3461,2.2751,2.1887,2.0846,1.8819,1.6662,1.4325,1.1544,0.9016,0.6712,0.2487,-0.1164,-0.422,-0.5233,-0.6555,-0.8158,-0.9452,-0.9765,-0.9325,-1.1539,-1.2789,-1.3261,-1.3603,-1.3802,-1.3868,-1.4214,-1.4374,-1.4461,-1.5164,-1.5637,-1.6006,-1.669,-1.7822,-1.9023,0.0,0.0,0.0,0.0,0.0,0.0,0.0,0.0,0.0,0.0,0.0,0.0,0.0,0.0,0.0,0.0,0.0,0.0,0.0,0.0,0.8291,0.8291,0.9256,1.0218,1.1115,1.1296,1.1618,1.221,1.3309,1.3753,1.3643,1.3457,1.3034,1.2431,1.2226,1.1464,1.0364,0.9814,0.9263,0.8811,0.8878,0.8864,0.8811,0.8878,0.9267,0.0,0.0,0.0,0.0,0.0,0.0,0.0,1.8612,1.9909,2.1108,2.2357,2.3461,2.4505,2.5495,2.606,2.6571,2.7265,2.8281,2.8816,2.7686,2.7868,2.7957,2.6922,2.6184,2.5679,2.5502,2.5429,2.5414,2.5481,2.5449,2.5405,2.5424,2.5243,2.4995,2.4746,2.4335,2.3687,2.2716,2.2065,2.1343,2.0469,1.8065,1.6153,1.5089,1.1677,0.8951,0.7197,0.4008,0.0826,-0.2107,-0.3773,-0.5362,0.0,-0.7702,-0.8304,-0.8881,-1.1015,-1.2217,-1.2663,-1.2757,-1.2988,-1.3357,-1.3459,-1.3493,-1.3578,-1.457,-1.4708,-1.4471,-1.5472,-1.6047,-1.6346,0.0,0.0,0.0,0.0,0.0,0.0,0.0,0.0,0.0,0.0,0.0,0.0,0.0,0.0,0.0,0.0,0.0,0.0,0.0,0.0,0.7767,0.8613,0.9075,0.9722,1.0561,1.0989,1.1406,1.1834,1.2796,1.3287,1.3212,1.2684,1.222,1.185,1.1396,1.0701,0.9814,0.9465,0.9106,0.8804,0.8804,0.8804,0.8804,0.8804,0.9008,0.9361,0.9666,0.0,0.0,0.0,0.0,0.0,0.0,0.0,2.0412,2.1611,2.277,2.3949,2.5363,2.6149,2.69,2.8351,2.8809,2.8745,2.8293,2.7874,2.7432,2.6986,2.6133,2.5447,2.5457,2.5427,2.5429,2.549,2.5356,2.526,2.5266,2.4862,2.452,2.434,2.3759,2.3088,2.234,2.1414,2.0523,1.9662,1.7584,1.5837,1.4586,1.1789,0.9291,0.7393,0.495,0.2208,-0.0778,-0.3002,-0.4499,-0.5309,-0.6187,-0.7056,-0.7964,-1.0064,-1.1323,-1.1799,-1.2066,-1.2282,-1.2544,-1.2768,-1.2873,-1.2932,-1.3731,-1.3963,-1.3974,-1.4533,-1.5051,-1.5499,0.0,0.0,0.0,0.0,0.0,0.0,0.0,0.0,0.0,0.0,0.0,0.0,0.0,0.0,0.0,0.0,0.0,0.0,0.0,0.0,0.0,0.8812,0.9011,0.946,1.0364,1.1163,1.1586,1.1586,1.2054,1.2497,1.2791,1.1896,1.1419,1.1217,1.0498,0.9814,0.9309,0.9061,0.8956,0.8956,0.8857,0.8804,0.8804,0.8804,0.8804,0.8857,0.9413,1.0399,1.1513,1.2318,0.0,0.0,0.0,0.0,1.9445,2.0797,2.1956,2.3168,2.4968,2.6146,2.7326,2.926,2.9235,2.8906,2.9473,2.8359,2.7167,2.7009,2.6151,2.5427,2.5434,2.5392,2.536,2.5424,2.5219,2.503,2.4971,2.4414,2.3931,2.3757,2.3053,2.2371,2.1852,2.0751,1.9708,1.874,1.7165,1.5448,1.357,1.1737,0.9643,0.7351,0.5634,0.3314,0.0275,-0.2073,-0.3442,-0.3909,-0.5074,-0.6046,-0.6897,-0.8802,-1.0089,-1.0895,-1.1308,-1.1616,-1.1811,-1.221,-1.2401,-1.2437,-1.2908,-1.331,-1.3656,-1.3735,-1.4326,-1.5113,0.0,0.0,0.0,0.0,0.0,0.0,0.0,0.0,0.0,0.0,0.0,0.0,0.0,0.0,0.0,0.0,0.0,0.0,0.5428,0.0,0.0,0.6981,0.7762,0.8613,0.9466,1.0295,1.0744,1.0744,1.1487,1.2085,1.2448,1.2249,1.2522,1.3084,1.2027,1.1466,1.1316,1.0167,0.9666,0.9614,0.9061,0.8804,0.8804,0.8804,0.8804,0.8804,0.891,0.9406,1.0254,1.1414,1.2493,0.0,0.0,0.0,1.7868,2.0122,2.1468,2.2669,2.475,2.6991,2.9059,3.0382,3.0625,3.0391,2.9746,2.8785,2.7808,2.6993,2.6158,2.557,2.5564,2.5349,2.5136,2.5157,2.4977,2.4743,2.4448,2.417,2.366,2.2716,2.2348,2.1749,2.0651,2.0028,1.9236,1.819,1.6545,1.4755,1.2778,1.1478,0.9555,0.6794,0.6072,0.4294,0.1327,0.0308,-0.1432,-0.3899,-0.487,-0.5663,-0.6247,-0.7051,-0.848,-1.0292,-1.0369,-1.095,-1.1811,-1.1884,-1.1884,-1.1957,-1.2389,-1.2638,-1.2743,-1.3151,-1.3373,-1.3505,0.0,0.0,0.0,0.0,0.0,0.0,0.0,0.0,0.0,0.0,0.0,0.0,0.0,0.0,0.0,0.5428,0.5428,0.5428,0.5428,0.5428,0.5815,0.6654,0.7046,0.7697,0.8549,0.9396,0.9849,0.9849,1.073,1.1465,1.2101,1.2241,1.2545,1.287,1.1619,1.0908,1.0618,0.9666,0.9263,0.9211,0.891,0.8804,0.8804,0.8804,0.8804,0.8804,0.8804,0.9211,0.9858,1.045,1.1323,1.2445,1.3896,0.0,0.0,0.0,2.0144,2.1939,2.4764,2.7261,2.926,2.994,3.0135,3.0058,2.9641,2.8461,2.7332,2.6885,2.6015,2.5305,2.5267,2.513,2.4962,2.4701,2.4485,2.4243,2.3896,2.3307,2.2758,2.2278,2.179,2.1085,2.0008,1.9447,1.8717,1.7706,1.6009,1.4517,1.3236,1.1653,0.9796,0.7632,0.6368,0.4856,0.3019,0.1136,-0.1141,-0.3757,-0.4477,-0.4904,-0.5148,-0.576,-0.7086,-0.8882,-0.9195,-0.964,-1.0108,-1.0685,-1.0912,-1.0987,-1.1799,-1.2102,-1.2174,-1.265,-1.265,-1.2508,0.0,0.0,0.0,0.0,0.0,0.0,0.0,0.0,0.0,0.0,0.0,0.0,0.0,0.0,0.0,0.0,0.5428,0.5428,0.5428,0.5428,0.5686,0.633,0.6593,0.6981,0.7632,0.8549,0.9075,0.9274,1.0161,1.1094,1.2135,1.2609,1.2959,1.3019,1.1831,1.1068,1.0705,0.9903,0.9562,0.9562,0.9361,0.9358,0.9482,0.9277,0.9219,0.9274,0.8991,0.9118,0.9468,0.9783,1.036,1.1115,1.2283,1.3632,0.0,0.0,0.0,2.1832,2.4867,2.7171,2.8817,2.9354,2.9685,2.98,2.9569,2.8427,2.7269,2.6799,2.5965,2.5199,2.4807,2.4761,2.4624,2.4273,2.397,2.3632,2.3209,2.2548,2.1995,2.1661,2.1054,2.0317,1.9513,1.8806,1.7997,1.6928,1.552,1.4261,1.328,1.1688,0.9981,0.8147,0.6579,0.525,0.4157,0.1376,-0.0918,-0.2677,-0.3693,-0.4176,-0.422,-0.4783,-0.5839,-0.721,-0.7949,-0.8423,-0.8756,-0.9521,-0.9836,-0.9914,-1.0987,-1.1383,-1.1457,-1.2102,-1.2102,-1.1884,0.0,0.0,0.0,0.0,0.0,0.0,0.0,0.0,0.0,0.0,0.0,0.0,0.5428,0.5428,0.5428,0.5428,0.5428,0.5428,0.5428,0.5428,0.5428,0.5491,0.6268,0.0,0.6785,0.7632,0.8484,0.9274,1.0123,1.137,1.2948,1.3768,1.431,1.4622,1.3753,1.3333,1.3234,1.2136,1.1665,1.1566,1.0965,1.0976,1.1288,1.0493,1.0479,1.0647,0.9584,0.8769,0.8478,0.985,0.9628,0.9235,1.1524,1.257,1.3434,0.0,0.0,0.0,2.5115,2.6611,2.7879,2.9172,3.0078,3.0445,2.9667,2.9136,2.8345,2.6757,2.6174,2.5568,2.4284,2.4063,2.4044,2.4026,2.3584,2.2986,2.2272,2.2135,2.1678,2.0518,1.9974,1.9477,1.8991,1.7973,1.6886,1.568,1.5028,1.3878,1.2003,1.1216,0.9764,0.7522,0.6743,0.5553,0.392,0.1323,-0.0045,-0.0222,-0.2539,-0.3622,-0.3667,-0.422,-0.4822,-0.5475,-0.6609,-0.7702,-0.8716,-0.8756,-0.8797,-0.8869,-0.9875,-1.0292,-1.0407,-1.1457,-1.1811,-1.1811,0.0,0.0,0.0,0.0,0.0,0.0,0.0,0.0,0.0,0.0,0.0,0.0,0.0,0.5428,0.5428,0.5428,0.5428,0.5428,0.5428,0.5428,0.5428,0.5428,0.5686,0.5881,0.5881,0.6724,0.7567,0.8484,0.9314,1.0571,1.2266,1.3061,1.3644,1.4007,1.3504,1.3113,1.2791,1.1641,1.1353,1.1584,1.1377,1.1497,1.1784,1.1004,1.0744,1.0778,0.9838,0.9354,0.9233,0.9747,0.9665,0.9542,1.0632,1.1653,1.3067,1.645,1.931,2.1748,2.3444,2.5096,2.6542,2.7369,2.8303,2.8914,2.8501,2.8236,2.77,2.641,2.5775,2.519,2.4173,2.4007,2.3814,2.3257,2.2778,2.2344,2.1845,2.1303,2.0685,1.9939,1.9441,1.8826,1.7947,1.7203,1.6378,1.5596,1.4675,1.3606,1.2483,1.1408,1.0139,0.8714,0.7098,0.5447,0.3712,0.2018,0.0755,-0.0,-0.1644,-0.2854,-0.3626,-0.3796,-0.418,-0.4783,-0.5556,-0.6573,-0.7641,-0.8028,-0.8201,-0.8275,-0.8941,-0.946,-0.9855,-1.0532,-1.0819,-1.0916,0.0,0.0,0.0,0.0,0.0,0.0,0.0,0.0,0.0,0.5428,0.0,0.0,0.0,0.0,0.5292,0.4957,0.5226,0.5292,0.4957,0.5226,0.5428,0.5428,0.5428,0.5428,0.5428,0.5947,0.6724,0.7567,0.842,0.9691,1.1377,1.2332,1.3118,1.3609,1.335,1.3069,1.28,1.2046,1.1877,1.2175,1.2308,1.2653,1.2896,1.1817,1.1487,1.1457,1.0265,0.9649,0.9525,0.9767,0.9584,0.9421,1.0059,1.139,1.3353,1.6342,1.8782,2.0795,2.2254,2.4223,2.6005,2.6395,2.7482,2.8288,2.7626,2.748,2.7122,2.5863,2.5319,2.4816,2.3896,2.3548,2.3158,2.2609,2.2197,2.174,2.1243,2.0518,1.9884,1.9405,1.8774,1.8066,1.7394,1.6574,1.5915,1.532,1.4365,0.0,1.2861,1.1557,1.0142,0.8686,0.6786,0.5171,0.3884,0.2893,0.2001,0.1202,-0.0444,-0.1777,-0.2807,-0.335,-0.388,-0.4434,-0.4826,-0.5647,-0.6774,-0.7363,-0.7614,-0.7663,-0.8234,-0.8643,-0.9039,-0.9531,-0.9855,-1.0118,0.0,0.0,0.0,0.0,0.0,0.0,0.0,0.0,0.5428,0.5428,0.0,0.0,0.0,0.0,0.0,0.4082,0.4821,0.4954,0.4015,0.4821,0.5296,0.5296,0.5296,0.5296,0.5296,0.5359,0.5815,0.6654,0.7502,0.8849,1.0544,1.1788,1.2755,1.3582,1.3508,1.3455,1.3506,1.3506,1.3516,1.3564,1.3984,1.4414,1.4627,1.307,1.2652,1.2777,1.0831,0.9688,0.9132,0.9877,0.9455,0.8853,0.984,1.182,1.4131,1.562,1.7911,2.027,0.0,0.0,0.0,2.6437,2.7789,2.8686,2.7132,2.6976,2.6714,2.511,2.4838,2.4541,2.3419,2.2609,2.2096,2.2068,2.1786,2.1259,2.0416,1.9869,1.9405,1.8916,1.7947,1.7312,1.7271,1.6232,1.532,1.4698,1.4097,1.3505,1.2929,1.1584,0.9684,0.7206,0.5711,0.4761,0.4391,0.388,0.3622,0.3578,0.1202,-0.0356,-0.1197,-0.2807,-0.3832,-0.4391,-0.4387,-0.5043,-0.6179,-0.6725,-0.6979,-0.7021,-0.7621,-0.7878,-0.7953,-0.848,-0.8999,-0.9478,0.0,0.0,0.0,0.0,0.0,0.0,0.0,0.4217,0.5428,0.0,0.0,0.0,0.5428,0.4821,0.4284,0.4015,0.368,0.3345,0.3078,0.3278,0.348,0.348,0.348,0.348,0.348,0.4082,0.4809,0.0,0.0,0.0,0.0,0.0,1.153,1.3065,1.2892,1.3035,1.3506,1.3506,1.3682,1.3941,1.4434,1.4863,1.5119,1.411,1.3399,1.287,1.1729,1.085,1.0177,1.0372,1.0256,1.0157,1.0678,1.142,1.2588,1.4642,1.6956,1.9223,2.0671,0.0,0.0,0.0,0.0,0.0,2.6477,2.6448,2.6062,2.4826,2.4566,2.4248,2.3372,2.2398,2.1655,2.1336,2.0927,2.0583,2.0333,1.96,1.8902,1.8366,1.7706,1.6967,1.6145,1.5398,1.4698,0.0,1.3515,1.3055,1.2929,1.1584,0.9883,0.7889,0.6955,0.5831,0.4434,0.4264,0.3965,0.3578,0.2047,0.071,-0.0356,-0.1377,-0.2578,-0.3836,-0.3818,-0.4252,-0.4957,-0.5996,-0.6435,-0.6477,-0.7027,-0.753,-0.7912,-0.8077,-0.848,-0.8918,0.0,0.0,0.0,0.0,0.0,0.0,0.2678,0.4217,0.5428,0.0,0.0,0.0,0.4888,0.435,0.368,0.2945,0.2744,0.2544,0.2143,0.2477,0.2678,0.2678,0.2678,0.2678,0.2678,0.3547,0.4278,0.0,0.0,0.0,0.0,0.0,0.0,0.0,1.2466,1.2819,1.3105,1.3782,1.418,1.4443,1.4873,1.5195,1.5294,1.451,1.3726,1.2879,1.2081,1.1288,1.0624,1.0624,1.0624,1.0627,1.0592,1.1084,1.2006,1.3246,1.5253,1.7401,1.9209,2.0945,2.2631,2.4265,0.0,0.0,2.5795,2.5693,2.5373,2.4742,2.4233,2.3762,2.3277,2.2207,2.1275,2.1023,2.0465,1.9984,1.9743,1.9051,1.838,1.7827,1.7312,1.66,1.5676,1.505,1.4468,1.3862,1.3238,1.2774,1.2452,1.1674,1.0377,0.8501,0.7829,0.677,0.5178,0.4648,0.4264,0.3924,0.2984,0.1912,0.0711,-0.0266,-0.1377,-0.2627,-0.33,-0.3788,-0.4136,-0.4822,-0.5389,-0.5873,-0.6428,-0.6894,-0.7238,-0.7447,-0.7904,-0.8357,0.0,0.0,0.0,0.0,0.0,0.0,0.0,0.4015,0.509,0.0,0.509,0.4755,0.3949,0.3747,0.3078,0.1407,0.1942,0.2076,0.1207,0.1942,0.241,0.241,0.241,0.241,0.241,0.328,0.368,0.0,0.0,0.0,0.0,0.0,0.0,0.0,0.0,1.2636,1.2668,1.4103,1.4821,1.4995,1.5264,1.541,1.5294,1.4628,1.3786,1.2948,1.2266,1.1406,1.0624,1.0624,1.0561,1.0375,1.0017,1.0809,1.1895,1.1933,1.334,1.5324,1.7435,1.9446,2.1322,2.2873,2.4408,0.0,2.5256,2.4996,2.4832,2.4799,2.3951,2.3218,2.3212,2.1978,2.0991,2.0991,2.0243,1.9442,1.8968,1.8458,1.7907,1.7353,1.6837,1.6238,1.5588,1.5062,1.4514,1.3779,1.319,1.2608,1.1972,1.1814,1.0988,0.9229,0.8547,0.7609,0.6355,0.5183,0.4517,0.4387,0.3921,0.3075,0.1954,0.0889,-0.0089,-0.102,-0.2546,-0.3271,-0.335,-0.351,-0.4252,-0.526,-0.5873,-0.6093,-0.6179,-0.6725,-0.7238,-0.7704,-0.334,0.0,0.0,0.0,0.0,0.0,0.0,0.2544,0.3211,0.3211,0.3211,0.3147,0.2945,0.2277,0.1675,0.134,0.0806,0.0471,0.0269,0.0404,0.0538,0.0538,0.0538,0.0538,0.0538,0.1408,0.1809,0.0,0.0,0.0,0.0,0.0,0.0,0.0,0.0,1.2137,1.3041,1.3857,1.4979,1.6141,1.5603,1.541,1.5352,1.5235,1.4273,1.307,1.3545,1.2389,1.0624,1.0624,1.011,0.9646,1.0292,1.0615,1.0991,1.1821,1.3303,1.4889,1.5851,1.749,1.9432,2.1697,2.2883,0.0,2.5391,2.537,2.5004,2.4824,2.4076,2.3378,2.3218,2.1978,2.0991,2.0991,1.9919,1.9006,1.8893,1.8458,1.7907,1.7353,1.6837,1.6064,1.4971,1.5231,1.4778,1.32,1.2978,1.2822,1.2666,1.2098,1.1527,1.0942,0.9517,0.8306,0.7341,0.6347,0.5351,0.4387,0.4303,0.3913,0.3262,0.299,0.2089,0.0665,-0.0267,-0.1067,-0.1775,-0.3075,-0.4005,-0.4652,-0.526,-0.548,-0.5567,-0.6136,-0.6435,-0.6605,-0.3875,-0.3011,0.0,0.0,0.0,0.0,0.0,0.0,0.2678,0.2678,0.2678,0.2544,0.2076,0.1608,0.114,0.0672,0.0269,0.0,0.0,0.0,0.0,0.0,-0.0404,-0.0471,0.0,0.0402,0.087,0.0,0.0,0.0,0.0,0.0,0.0,0.0,0.0,1.2207,1.3515,1.439,1.518,1.5921,1.5526,1.5642,1.5921,1.5526,1.4628,1.3666,1.4085,1.2931,1.117,1.0744,1.0047,0.9268,0.9326,0.957,0.9876,0.9723,1.1199,1.2977,1.3649,1.5383,1.7411,1.9364,2.1106,0.0,0.0,2.4589,2.4829,2.4894,2.4182,2.351,2.3378,2.2067,2.0991,2.0991,1.9798,1.8817,1.8535,1.8027,1.7504,1.6951,1.668,1.6151,1.5242,1.541,1.5096,1.3884,1.3515,1.3324,1.3324,1.2706,1.2069,1.1434,1.0245,0.9152,0.8063,0.6956,0.6034,0.5303,0.5,0.457,0.4008,0.3741,0.3161,0.2357,0.1962,0.0889,-0.0666,-0.1468,-0.2672,-0.406,-0.4613,-0.487,-0.4913,-0.5524,-0.5744,-0.583,-0.4411,-0.3278,0.0,0.0,0.0,0.0,0.0,0.0,0.2211,0.2211,0.2344,0.2143,0.1407,0.1474,0.1274,0.0605,0.0538,0.0471,0.0269,0.0269,0.0067,-0.0269,-0.094,-0.1074,-0.0538,-0.0335,0.0067,0.0,0.0,0.0,0.0,0.0,0.0,0.0,1.0805,1.2246,1.3389,1.4725,1.539,1.5584,1.5468,1.5748,1.6208,1.5642,1.4874,1.4154,1.3846,1.2992,1.1834,1.073,0.9779,0.893,0.8221,0.8479,0.882,0.7714,0.904,1.0924,1.1265,1.3004,1.5038,1.646,1.8816,2.1037,0.0,0.0,0.0,2.4795,2.4205,2.3529,2.3433,2.2092,2.0959,2.0894,1.9656,1.8574,1.8185,1.7544,1.6993,1.6552,1.6293,1.6008,1.5632,1.5499,1.5231,1.4744,1.4143,1.3732,1.3637,1.3152,1.2513,1.1705,1.0997,1.0051,0.8857,0.7598,0.6722,0.6255,0.5717,0.5173,0.4561,0.4121,0.3865,0.3751,0.3626,0.2499,0.0667,0.0356,-0.1024,-0.3001,-0.3917,-0.4264,-0.4308,-0.4913,-0.513,-0.5216,-0.4475,-0.3278,-0.241,0.0,0.0,0.0,0.0,0.0,0.0337,0.0337,0.1007,0.1407,0.134,0.2076,0.2477,0.241,0.241,0.2009,0.1207,0.114,0.0469,-0.1073,-0.1274,-0.1675,-0.2344,-0.1607,-0.1072,-0.1005,0.0,0.0,0.0,0.0,0.0,0.0,0.9471,1.13,1.1741,1.393,1.5455,1.6322,1.5633,1.5468,1.5526,1.541,1.4874,1.4025,1.2565,1.2389,1.2512,1.0212,0.8849,0.8045,0.8016,0.8001,0.804,0.7916,0.8896,0.98,0.8949,1.0046,1.1769,1.3257,1.5495,1.7992,2.0478,0.0,2.3298,2.4339,0.0,2.3427,2.3117,0.0,0.0,2.0449,1.9133,1.8185,1.8106,1.7229,1.6552,1.6522,1.5567,1.5107,1.5543,1.5107,1.4789,1.4709,1.4143,1.3552,1.3017,1.2929,1.2852,1.2754,1.177,1.091,1.0208,0.8905,0.7709,0.6564,0.6247,0.5787,0.5216,0.513,0.4826,0.4303,0.3814,0.3426,0.3081,0.1643,0.0488,-0.0623,-0.2851,-0.3711,-0.3751,-0.4308,-0.4522,-0.4609,-0.5858,-0.4005,-0.2544,-0.221,0.0,0.0,0.0,0.0,0.0,0.0,0.0349,0.0563,0.0563,0.0903,0.1306,0.1852,0.1422,0.1208,0.1273,0.0335,-0.0536,-0.1273,-0.2277,-0.2811,-0.2678,-0.2811,-0.2342,-0.1273,-0.0536,0.0,0.0,0.0,0.0,0.0,0.8691,1.097,1.2749,1.4443,1.5565,1.6236,1.5625,1.541,1.541,1.541,1.5167,1.4746,1.3597,1.3122,1.2757,1.1267,0.9482,0.8071,0.8608,0.8016,0.7089,0.6572,0.7145,0.7613,0.6199,0.8294,1.0745,1.024,1.294,1.5932,1.66,1.7941,1.9474,2.0991,0.0,0.0,0.0,0.0,0.0,0.0,1.8603,1.7585,1.7626,1.6077,1.5186,1.5908,1.6167,0.0,1.663,1.5778,1.5377,1.57,1.5186,1.4721,1.4468,1.3779,1.342,1.342,1.2253,1.1414,1.1001,0.9498,0.8401,0.7678,0.6989,0.6386,0.583,0.583,0.548,0.487,0.4299,0.3906,0.3561,0.2849,0.241,0.1834,-0.0578,-0.2364,-0.3633,-0.3847,-0.3932,-0.3976,-0.7177,-0.4929,-0.3011,-0.2744,0.0,0.0,0.0,0.0,0.0,0.0,0.0215,0.0363,0.036,0.0779,0.126,0.1676,0.1296,0.1141,0.1273,-0.0134,-0.1072,-0.1273,-0.3011,-0.368,-0.3078,-0.368,-0.3347,-0.2009,0.0,0.0,0.0,0.0,0.0,0.0,0.7673,1.0173,1.2672,1.4499,1.566,1.6211,1.5771,1.5518,1.541,1.541,1.541,1.5294,1.451,1.3666,1.2818,1.1819,0.992,0.0,0.8742,0.8086,0.6902,0.6244,0.6628,0.6919,0.4884,0.6875,0.9105,0.7135,0.9474,1.2232,1.1909,1.2819,1.4311,1.6366,1.7576,0.0,0.0,0.0,1.9521,1.9082,0.0,1.6764,1.6802,1.5184,1.4411,1.5499,1.6495,1.7078,0.0,1.6426,1.6183,1.646,1.5949,1.5543,1.5365,1.4503,1.405,1.405,1.2928,1.2156,1.1771,1.0204,0.9164,0.861,0.7674,0.6937,0.6435,0.6435,0.6087,0.5524,0.5087,0.447,0.3814,0.3832,0.3718,0.3376,0.1293,-0.0758,-0.2645,-0.3004,-0.3096,-0.3093,-0.7962,-0.5789,-0.368,-0.2878,-0.1876,-0.0948,0.0,0.0,0.0,0.0,0.0717,0.1224,0.1263,0.2792,0.3557,0.272,0.34,0.3145,0.1407,0.0468,-0.0401,-0.1273,-0.3011,-0.4015,-0.3949,-0.4015,-0.3949,-0.3882,0.0,0.0,0.0,0.0,0.0,0.0,0.5959,0.857,1.0083,1.3484,1.5598,1.667,1.6221,1.5791,1.541,1.541,1.541,1.5294,1.451,0.0,0.0,1.1114,0.9388,0.0,0.0,0.0,0.0,0.0,0.8549,0.8637,0.0,0.0,0.0,0.3871,0.4421,0.5728,0.6641,0.7007,0.7937,1.0606,1.0437,1.0912,1.4603,1.4569,1.4738,1.7073,1.6392,0.0,0.0,1.5073,1.4926,1.5543,1.6097,1.6185,1.5629,1.6628,1.7099,1.6441,1.5918,1.5365,1.4744,1.4698,1.4652,1.4652,1.405,1.3416,1.2754,1.1398,1.0103,0.8859,0.8177,0.7572,0.6979,0.6979,0.6683,0.6184,0.6136,0.548,0.4387,0.4391,0.4049,0.349,0.2233,0.0982,-0.0268,-0.1428,-0.1875,-0.1875,-0.8251,-0.7042,-0.5521,-0.3825,-0.2277,-0.1016,-0.014,0.0,0.0216,0.079,0.1102,0.155,0.2156,0.2187,0.2372,0.2651,0.184,0.1343,0.1273,-0.0669,-0.1673,-0.134,-0.3613,-0.4619,-0.4015,-0.4619,-0.4619,-0.4015,-0.368,0.0,0.0,0.0,0.0,0.0,0.0,0.7591,1.0261,1.2917,1.507,1.667,1.5928,1.5537,1.541,0.0,1.541,1.5352,1.5108,1.4145,0.0,1.2114,1.0377,0.8567,0.898,0.8309,0.7379,0.737,0.712,0.0,0.0,0.0,0.735,0.2893,0.0,0.0,0.0,0.1902,0.2251,0.4488,0.4548,0.4617,0.6096,0.6242,0.69,0.9146,0.9007,0.981,0.0,1.3538,1.3348,1.309,1.3693,1.4784,1.6499,1.6057,1.6028,1.6995,1.6502,1.6107,1.5876,1.5511,1.5276,1.5276,1.4687,1.4086,1.3474,1.2078,1.0988,1.0148,0.898,0.8152,0.7614,0.7614,0.728,0.6725,0.6349,0.5744,0.4957,0.4561,0.4092,0.3578,0.3173,0.1784,-0.0045,-0.0462,-0.0597,-0.0627,-0.8824,-0.7826,-0.6443,-0.448,-0.2964,-0.1603,-0.0718,-0.058,-0.0146,0.1163,0.1327,0.1549,0.2154,0.1975,0.1816,0.1747,0.0956,0.0538,0.0806,-0.1072,-0.1809,-0.0873,-0.3147,-0.4015,-0.3078,-0.4284,-0.4619,-0.4015,-0.435,-0.4015,0.0,0.0,0.0,0.0,0.0,0.6461,0.9508,1.2232,1.4538,1.6343,1.5865,1.5547,1.541,0.0,1.541,1.5332,0.0,1.4123,1.3118,1.2282,1.0858,0.953,0.9674,0.8909,0.801,0.7982,0.7377,0.6347,0.4733,0.6032,0.0,0.2221,0.3009,0.0,-0.0269,0.0,-0.1547,0.0969,-0.0755,-0.1746,0.1373,0.0109,0.0256,0.533,0.4538,0.5273,0.0,1.1738,1.1711,1.1805,1.2812,1.4272,1.6147,1.6091,1.6252,1.7008,1.7074,1.6969,1.6522,1.6151,1.5908,1.5908,1.532,1.4824,1.4457,1.2834,1.1687,1.112,0.9683,0.8716,0.8201,0.7995,0.7704,0.7273,0.6732,0.6039,0.5265,0.487,0.4268,0.3581,0.3581,0.2637,0.1166,0.0323,0.0,0.0,-0.9704,-0.82,-0.6472,-0.4842,-0.3774,-0.2858,-0.1805,-0.1627,-0.0945,0.0945,0.1234,0.1293,0.1398,0.209,0.1952,0.021,0.075,0.0873,0.0067,-0.0806,-0.094,-0.0067,-0.1744,-0.2277,-0.134,-0.3078,-0.4015,-0.4015,-0.4954,0.0,0.0,0.0,0.0,0.0,0.2261,0.5225,0.7803,1.1337,1.4032,1.5912,1.6038,1.5841,1.5468,1.541,1.5459,1.5322,1.4231,1.3732,1.3309,1.1559,1.082,1.06,0.9863,0.9697,0.9697,0.9639,0.9105,0.8213,0.6525,0.5608,0.4475,0.1896,0.0,0.0,0.0,0.0,-0.3146,0.0,0.0,-0.7437,0.0099,-0.3799,-0.5056,0.4382,0.2477,0.2184,0.8944,0.9769,1.0148,1.1548,1.3343,1.4528,1.4648,1.6741,1.7638,1.6536,1.7619,1.7748,1.6547,1.6547,1.659,1.6552,1.5952,1.5632,1.5632,1.3649,1.2362,1.1744,1.0309,0.9337,0.8756,0.8234,0.7953,0.787,0.728,0.638,0.5351,0.5351,0.4661,0.3622,0.3622,0.3585,0.3233,0.0895,0.0,0.0,-1.0301,-0.8772,-0.7166,-0.5828,-0.4773,-0.3803,-0.2856,-0.2069,-0.1162,0.0,0.0856,0.1536,0.2239,0.1963,0.1491,0.1017,0.0607,0.0269,0.0,-0.0806,-0.094,-0.0067,-0.1744,-0.2277,-0.134,-0.3078,-0.4015,-0.4015,-0.4954,0.0,-0.5024,0.0,0.0,0.0,0.0,0.3355,0.7386,0.9598,1.2708,1.6019,1.5731,1.5858,1.6151,0.0,1.5812,1.6266,1.5018,1.3895,1.2901,1.1739,1.1237,1.0918,0.9465,0.9395,0.9649,0.9187,0.853,0.7851,0.7389,0.7507,0.7069,0.4277,0.4047,0.3921,0.0,0.0,0.0,0.0,0.0,0.0,0.0,0.0,-0.9861,-1.2998,-0.7524,-0.0844,0.5127,0.7712,0.9311,1.0148,1.161,1.3214,1.5103,1.5892,1.6508,1.7099,1.7878,1.7748,1.6547,0.0,1.7591,1.7131,1.657,1.6269,1.6219,1.4976,1.383,1.2782,1.1765,1.0755,0.9797,0.9301,0.8635,0.787,0.7746,0.7027,0.5959,0.5959,0.5265,0.4176,0.4176,0.3602,0.2499,0.0672,0.0,0.0,-1.1223,-1.0024,-0.8647,-0.7044,-0.6282,-0.5173,-0.3387,-0.2981,-0.213,0.0145,0.0567,0.104,0.1981,0.162,0.114,0.0739,0.0266,0.0,0.0,-0.0465,-0.0531,0.0,-0.1008,-0.1276,-0.0739,-0.2076,-0.3011,-0.3411,-0.435,0.0,-0.5362,0.0,0.0,0.0,0.0,0.2216,0.6142,0.9384,1.2617,1.5581,1.5468,1.5696,0.0,1.5695,1.5815,1.599,1.4976,1.4182,1.3313,1.1713,1.1335,1.1241,0.9717,0.971,1.0115,0.9413,0.8718,0.8125,0.8125,0.796,0.7458,0.6119,0.6317,0.6271,0.4033,0.2166,0.1524,0.0,0.1868,0.036,0.0,0.0,-1.2217,-1.8652,-1.22,-0.4271,0.1723,0.5445,0.8088,0.9526,1.1189,1.2977,1.4985,1.5863,1.6633,1.7332,1.8669,1.8889,0.0,0.0,1.8356,1.768,1.7353,1.7063,1.6786,1.5811,1.4776,1.3576,1.2407,1.1381,1.0532,0.9815,0.9159,0.8553,0.8118,0.7398,0.655,0.6307,0.548,0.4391,0.4136,0.3605,0.2815,0.2058,0.0996,0.0,-1.1935,-1.123,-1.0185,-0.8156,-0.7622,-0.6515,-0.3529,-0.3889,-0.3178,0.0435,0.0282,0.0139,0.1037,0.1151,0.0801,0.0067,0.0,0.0,0.0,0.0,0.0,0.0,0.0,0.0,0.0,-0.1005,-0.1876,-0.2678,-0.368,0.0,0.0,0.0,0.0,0.0,-0.1202,0.1412,0.4987,0.9965,1.3208,1.5007,1.5322,1.5598,1.5857,1.5794,1.5682,1.5463,1.4784,1.4507,1.4086,1.1713,1.1507,1.1904,1.0415,1.0466,1.0906,1.0167,0.9325,0.8731,0.894,0.7953,0.7058,0.7823,0.8554,0.8579,0.6708,0.466,0.3758,0.5961,0.3127,0.325,0.0,0.0,-1.2767,-1.679,-1.3354,-0.7496,0.0316,0.422,0.7222,0.9753,1.1639,0.0,1.4687,1.63,1.7313,1.739,1.9557,0.0,0.0,0.0,1.8974,1.8238,1.8145,1.7907,1.7504,0.0,1.5432,1.4283,1.2811,1.1748,1.1084,1.0128,0.9637,0.9439,0.8521,0.7724,0.7078,0.6598,0.5653,0.4478,0.3924,0.3677,0.3667,0.389,0.2528,0.0485,-1.1261,-1.0902,-1.0185,-0.8156,-0.7622,-0.6478,-0.3518,-0.3158,-0.2685,-0.1267,-0.0482,0.0,0.0197,0.0196,0.0195,0.0,0.0,0.0,0.0,0.0,0.0,0.0,0.0,0.0,0.0,-0.1591,-0.2544,-0.2678,-0.435,-0.5226,0.0,0.0,0.0,0.0,-0.3411,0.0196,0.6328,1.0138,0.0,1.5303,1.5558,1.6028,1.6543,1.6148,1.6385,1.6895,1.5618,1.492,1.4334,1.2316,1.2773,1.3784,1.1399,1.1449,1.2229,1.0956,0.9725,0.894,1.0136,0.9408,0.8626,0.9923,1.0721,1.1221,1.143,0.9776,0.9241,1.2785,1.181,1.231,1.871,0.0,0.0,-1.2385,-1.3185,-0.8633,0.6095,0.8171,0.919,1.1789,1.2493,1.346,1.5264,1.6565,1.7306,1.7319,1.9558,0.0,0.0,0.0,2.0022,0.0,1.8341,0.0,0.0,0.0,1.6494,1.5421,1.4264,1.2965,1.1627,1.1008,1.0283,0.9478,0.9319,0.8667,0.7739,0.7663,0.6628,0.5087,0.4478,0.4044,0.3744,0.3701,0.357,0.3136,-1.181,-1.162,-1.0896,-0.8842,-0.8276,-0.7128,-0.4136,-0.3197,-0.2336,-0.0979,-0.0821,-0.0602,-0.0066,0.0,0.0,0.0,0.0,0.0,0.0,0.0,-0.0185,-0.0555,-0.0643,-0.085,-0.1288,-0.2245,-0.3141,-0.4069,-0.4938,-0.5804,-0.6728,0.0,0.0,-0.4535,-0.1789,0.1833,0.6089,0.0,0.0,1.4255,1.5166,1.5855,1.6336,1.6103,1.6384,1.6791,1.5832,1.57,1.5772,1.3903,1.3935,1.4365,1.2425,1.2715,1.3538,1.2229,1.1373,1.0956,1.163,1.1065,1.0503,1.158,1.2308,1.2551,1.1828,1.0639,0.9649,0.9591,0.7792,0.8378,1.5522,-0.1455,0.0,0.0,0.0,-0.3103,0.5747,0.9167,1.1201,1.2426,1.3501,1.4767,1.6255,1.7464,1.815,1.8221,2.0139,2.0757,0.0,0.0,2.07,0.0,0.0,0.0,0.0,0.0,0.0,1.5272,1.4504,1.3406,1.2138,1.1356,1.0753,1.0244,0.9707,0.9199,0.8675,0.7807,0.6755,0.5658,0.4739,0.4268,0.4078,0.382,0.3835,0.3782,-1.2424,-1.2051,-1.1223,-0.9067,-0.8558,-0.7512,-0.4613,-0.3341,-0.2093,-0.0485,-0.0881,-0.093,-0.0066,0.0,0.0,0.0,0.0,-0.0059,-0.0244,-0.0239,-0.0533,-0.1326,-0.1448,-0.1861,-0.2485,-0.2814,-0.3574,-0.4954,-0.5346,0.0,0.0,0.0,0.0,0.0,0.0,0.0,0.0,0.0,1.2623,1.3819,1.5071,1.5794,1.6243,1.6264,1.644,1.6625,1.6275,1.676,1.7436,1.604,1.556,1.5295,1.3705,1.4277,1.5236,1.3911,1.3408,1.3303,1.3455,1.2849,1.2289,1.3004,1.3917,1.4071,1.2083,1.1147,0.9985,0.7416,0.3212,0.2074,0.8915,-0.4516,0.0,0.0,0.0,0.0,0.5667,1.0103,1.3233,1.331,1.4775,1.6228,1.7437,1.844,1.9199,1.9555,2.0759,2.1201,2.0528,0.0,0.0,0.0,0.0,1.9354,1.8584,0.0,1.7151,1.5234,1.4582,1.3648,1.2473,1.1579,1.1132,1.0943,1.006,0.9558,0.9239,0.7784,0.6797,0.6093,0.5173,0.4631,0.4422,0.4114,0.3962,0.3824,-1.2246,-1.1365,-1.0079,-0.7838,-0.7368,-0.6547,-0.4533,-0.3341,-0.2345,-0.1345,-0.0592,-0.0128,0.0,0.0,0.0,0.0,0.0,-0.0285,-0.0942,-0.1,-0.1334,-0.2087,-0.2273,-0.2413,-0.2472,-0.3299,-0.3796,-0.3921,-0.5516,-0.6409,0.0,0.0,0.0,0.0,0.0,0.0,0.0,1.1609,1.4096,1.6172,1.603,1.6395,1.7002,1.7118,1.7196,1.7271,1.7693,1.8207,1.8627,1.846,1.8422,1.7968,1.5339,1.6178,1.7821,1.6245,1.5372,1.5034,1.5624,1.4665,1.3705,1.4354,1.6028,1.7049,1.5255,1.4264,1.4019,1.5114,0.7168,0.0263,0.1081,-0.0541,-0.572,0.0,0.0,0.0,1.0939,1.3154,1.514,1.5935,1.6612,1.7464,1.8551,1.9192,1.9969,2.1029,2.0887,2.0498,0.0,0.0,0.0,2.0277,0.0,1.9839,2.0093,1.876,1.7498,1.6332,1.5297,1.4013,1.2461,1.1957,1.1468,1.0981,1.0467,0.9677,0.8716,0.807,0.7196,0.6179,0.6093,0.5478,0.465,0.4621,0.4417,0.4177,-1.1874,-1.095,-0.9816,-0.825,-0.7468,0.0,0.0,-0.4053,-0.3195,-0.287,-0.1149,0.0,0.0,-0.0408,-0.0685,-0.0685,-0.107,-0.1461,-0.1763,-0.1765,-0.2093,-0.2901,-0.3069,-0.3389,-0.3825,-0.4247,-0.4491,-0.4599,-0.5821,0.0,0.0,0.0,0.0,0.0,0.0,0.6018,0.9277,1.2321,1.4262,1.5426,1.6536,1.6997,1.7171,1.7781,1.8112,1.8271,1.8726,1.9349,1.9897,1.9591,1.9471,1.9159,1.7487,1.8049,1.9161,1.8273,1.7824,1.7748,1.8407,1.8082,1.7652,1.7936,1.8933,1.9043,1.609,1.4098,1.2449,1.0878,0.4945,0.0,0.0,0.2113,0.2004,0.0,0.0,0.0,0.0,1.4674,1.6362,1.6316,1.7451,1.8631,1.9591,1.9687,2.0076,2.1063,2.1471,0.0,0.0,0.0,0.0,2.1381,0.0,1.9752,1.9869,1.8401,1.7102,1.601,1.4924,1.39,1.2908,1.2138,1.1356,1.0582,1.039,0.9677,0.8675,0.848,0.7731,0.6641,0.6307,0.594,0.5548,0.491,0.465,0.4579,-1.156,0.0,-0.9604,0.0,-0.7636,-0.6849,-0.5765,-0.4741,-0.3969,-0.375,-0.1966,-0.0663,-0.0648,-0.1141,-0.1396,-0.1396,-0.1898,-0.2174,-0.2174,-0.2397,-0.2788,-0.34,-0.3512,0.0,-0.4339,-0.4255,-0.4234,-0.4332,-0.5225,0.0,0.0,0.0,0.0,0.0,0.4675,0.759,1.045,1.3355,1.4828,1.5297,1.6993,1.7619,1.7717,1.8735,1.9234,1.9435,1.995,2.0685,2.1333,2.0944,2.0899,2.0763,1.953,2.0065,2.0965,2.0212,2.0021,2.0045,2.0156,2.0008,1.9776,1.9612,2.0255,2.0217,1.7612,1.5579,1.3325,1.0111,0.4414,0.0368,0.164,0.5424,0.8339,0.8312,0.0,0.0,0.0,1.5528,1.7139,1.638,1.7956,1.9522,2.0416,2.0243,2.0491,2.144,2.1948,0.0,0.0,0.0,0.0,0.0,0.0,0.0,0.0,1.8267,1.6978,1.5937,1.48,1.3902,1.3163,1.2246,1.133,1.0505,1.0361,0.9677,0.8716,0.8716,0.8013,0.6979,0.6605,0.6398,0.6194,0.5334,0.5017,0.4964,-1.15,-1.0356,-0.9228,-0.7777,-0.7509,-0.713,-0.6147,-0.5253,-0.4414,-0.3709,-0.2755,-0.2169,-0.2169,-0.2162,-0.2174,-0.2174,-0.2174,-0.2174,-0.2174,-0.2899,-0.3345,0.0,0.0,-0.3574,-0.3632,-0.2874,-0.2523,-0.2523,0.0,0.0,-0.3837,0.0,0.0196,0.5298,0.6949,0.9624,1.3097,1.4922,1.6116,1.6845,1.7472,1.8126,1.8933,2.0181,2.0671,2.0797,2.1578,2.2327,2.2968,2.2968,2.3234,2.3211,2.1282,2.2177,2.3639,2.2125,2.1676,2.1464,2.048,1.9511,1.8706,1.8243,1.9284,2.046,2.0606,1.9947,1.8727,1.6604,0.757,0.1295,0.5518,0.9892,1.2842,1.2819,0.0,0.0,0.0,1.5832,1.7571,1.641,1.8321,2.0015,2.091,2.1007,2.1472,2.26,0.0,0.0,0.0,0.0,0.0,2.0345,1.9909,0.0,2.028,1.8711,1.7413,1.6473,1.5273,1.4158,1.3163,1.2246,1.1505,1.0981,1.0505,0.9677,0.8716,0.8716,0.8013,0.6979,0.6979,0.6811,0.6544,0.5975,0.5558,0.5197,-1.1392,-1.0092,-0.8873,-0.8237,-0.722,-0.6358,-0.6061,-0.5233,-0.4617,-0.44,-0.4023,-0.3795,-0.3795,-0.3254,-0.2954,0.0,-0.2954,-0.2954,0.0,-0.2674,-0.2565,-0.2565,-0.2647,-0.2663,-0.2663,-0.2437,-0.2041,-0.1533,0.0,0.0,0.0,-0.032,0.2515,0.7063,0.8207,1.0445,1.3508,1.5024,1.6071,1.6951,1.8659,1.9618,2.0234,2.1698,2.2268,2.2371,2.308,2.3506,2.3751,2.3751,2.3821,2.3779,2.2846,2.2801,2.304,2.2733,2.2461,2.2275,2.2363,2.192,2.1244,2.0307,2.0452,2.0442,1.9028,1.7981,1.6928,1.5736,1.2713,0.9515,0.6889,0.9456,1.1939,1.1973,1.3145,0.0,1.233,0.0,1.7571,1.6464,1.8555,2.0227,2.0483,2.0829,0.0,0.0,0.0,0.0,0.0,0.0,0.0,0.0,2.0458,0.0,2.0083,1.8283,1.6855,1.5811,1.4681,1.3634,1.2685,1.2066,1.1505,1.0981,1.0495,0.9677,0.8716,0.8716,0.8013,0.6979,0.6979,0.6953,0.6762,0.5892,0.5596,0.5508,-1.1188,-1.0262,-0.9341,-0.8792,-0.7871,-0.709,-0.6721,-0.5914,-0.5337,-0.505,-0.4685,-0.4519,-0.4519,-0.379,0.0,-0.3732,-0.3456,-0.3176,-0.2899,-0.2454,-0.2063,-0.1786,-0.1786,-0.1786,-0.1786,-0.1507,0.0,-0.0671,-0.0981,-0.0298,0.1361,0.2184,0.4519,0.8057,0.9461,1.1647,1.4316,1.593,1.7088,1.8044,2.0078,2.1043,2.1427,2.2867,2.3403,2.3476,2.3926,2.4094,2.4108,2.4108,2.3542,2.2797,2.2529,2.1665,2.1028,2.2276,2.2156,2.1603,2.1613,2.1062,2.0261,1.9145,1.8861,1.8331,1.6292,1.5306,1.4609,1.3676,1.3618,1.2591,0.8752,0.9658,1.1156,1.1557,1.2725,1.3293,1.2365,0.0,1.7301,1.6397,0.0,0.0,0.0,2.0715,2.1086,0.0,0.0,0.0,0.0,0.0,0.0,2.1564,2.0354,0.0,1.9874,1.844,1.7151,1.607,1.4606,1.3589,1.301,1.2162,1.1627,1.1244,1.0582,0.9804,0.8999,0.8797,0.8144,0.7314,0.7105,0.7088,0.7091,0.6275,0.5947,0.5817,-1.1038,-1.0763,-1.0433,0.0,-0.915,0.0,-0.7866,-0.702,-0.6258,-0.5597,-0.4897,-0.4519,-0.4519,-0.3846,-0.3677,-0.4349,0.0,0.0,0.0,-0.2063,-0.173,-0.1062,-0.095,-0.0949,-0.0893,-0.0168,0.028,0.028,0.0979,0.2161,0.3862,0.4502,0.6164,0.8707,1.0781,1.3094,1.5557,1.7518,1.8878,1.9844,2.1541,2.2282,2.2481,2.364,2.4115,2.4125,2.4177,2.4109,2.4022,2.4022,2.2574,2.0733,2.0689,1.9245,1.8061,2.0792,2.0782,1.9681,1.8731,1.7697,1.6617,1.5538,1.5104,1.4518,1.2785,1.233,1.1925,1.0872,1.0984,1.1204,1.0863,1.0466,1.0514,1.1642,1.2743,1.3303,1.2861,1.5163,1.6741,0.0,0.0,0.0,0.0,2.0715,2.1023,0.0,0.0,0.0,0.0,0.0,2.0768,1.9762,1.9711,1.9696,1.9687,1.8991,1.8066,1.6944,1.4875,1.3901,1.3868,1.2437,1.1811,1.1737,1.0736,1.0,0.9478,0.8958,0.8439,0.7829,0.728,0.7238,0.7424,0.6948,0.6569,0.6145,0.0,0.0,-1.0694,-0.9166,-0.8878,-0.8572,-0.7836,-0.6578,-0.5706,-0.5542,-0.4897,-0.4519,-0.4519,-0.4349,-0.407,-0.368,-0.2397,-0.1563,-0.1397,-0.0838,-0.0448,-0.028,0.028,0.0836,0.1385,0.2161,0.2819,0.3359,0.3553,0.4445,0.6032,0.6246,0.814,1.1556,1.3128,1.4942,1.6948,1.8845,2.0125,2.0964,2.1906,2.2918,2.3896,2.4042,2.4202,2.4305,2.4116,2.3704,2.3269,2.3269,2.182,1.9973,1.962,1.8375,1.7261,1.8325,1.8158,1.7622,1.7366,1.6887,1.6148,1.5056,1.3315,1.1759,1.1294,1.0372,0.9511,0.924,0.9304,0.9636,1.0612,1.0281,1.0254,1.1557,1.2033,1.2069,1.1665,1.4049,1.5852,0.0,1.7932,1.9521,1.9823,2.0813,2.1337,0.0,0.0,0.0,0.0,2.0639,2.0416,2.0158,1.9874,1.9612,1.9469,1.845,1.7131,1.555,1.4446,1.3901,1.3868,1.2437,1.1811,1.1737,1.0736,1.0,0.9478,0.9359,0.8756,0.787,0.7746,0.7447,0.7075,0.6775,0.666,0.6515,-1.231,-1.1516,-1.0697,-0.9494,-0.8988,-0.8501,-0.783,-0.674,-0.5869,-0.5542,-0.5164,-0.4673,-0.4012,-0.395,-0.3503,-0.2454,-0.1898,-0.1452,-0.1118,-0.0392,0.028,0.1003,0.1392,0.2268,0.3615,0.4056,0.4754,0.581,0.581,0.6823,0.8748,0.9071,1.0889,1.3921,1.5514,1.7249,1.8996,2.0575,2.1756,2.2613,2.2978,2.3583,2.4235,2.3964,2.3821,2.3727,2.3452,2.2909,2.2277,2.2022,2.0578,1.8802,1.8321,1.7143,1.5838,1.5489,1.5611,1.5844,1.5844,1.531,1.454,1.357,1.2036,1.0822,1.0822,1.0199,0.968,0.968,0.968,0.9893,1.0671,1.0468,1.0527,1.1607,1.1814,1.1929,1.2339,1.3937,1.5368,1.6209,1.7592,1.8768,1.9609,2.0299,2.0684,2.0682,2.0878,0.0,2.0682,2.0261,2.0035,2.0035,1.9803,1.9652,1.9531,1.8341,1.6984,1.5566,1.4639,1.4084,1.3868,1.2649,1.1993,1.1774,1.0954,1.0341,0.9843,0.9597,0.9159,0.8602,0.8077,0.7704,0.7377,0.7244,0.7013,0.6784,-1.31,-1.2033,-1.1007,-1.021,-0.9614,-0.8949,-0.8143,-0.7391,-0.6573,-0.5642,-0.5429,-0.4769,-0.3287,-0.3109,-0.2437,-0.0778,-0.1108,-0.1162,-0.05,0.0111,0.1221,0.2907,0.3071,0.4085,0.6139,0.653,0.7298,0.8497,0.8713,0.9915,1.1999,1.2719,1.4146,1.6245,1.8023,1.9634,2.1118,2.2337,2.3323,2.4086,2.399,2.3959,2.3938,2.3452,2.3094,2.2785,2.2461,2.19,2.1238,2.0703,1.92,1.7502,1.7021,1.5719,1.4236,1.313,1.3564,1.4323,1.422,1.349,1.2559,1.1823,1.1057,1.0501,1.0501,1.034,1.0187,1.0187,1.0187,1.0246,1.045,1.0551,1.0906,1.1665,1.1873,1.2318,1.3346,0.0,1.5,1.6537,1.6903,1.764,1.931,1.9528,1.9763,2.0162,2.028,2.0314,2.0314,1.9909,1.969,1.969,1.969,1.963,1.954,1.8328,1.7178,1.6166,1.5047,1.431,1.3967,1.2953,1.2246,1.1774,1.1244,1.0725,1.0244,0.9804,0.9558,0.9399,0.848,0.8036,0.7911,0.7978,0.7576,0.7055,-1.3882,-1.3443,-1.2918,-1.1612,-1.1366,-1.0889,-0.9651,-0.8849,-0.7659,-0.5774,-0.4969,-0.399,-0.2508,-0.2397,-0.1272,0.1363,0.1986,0.2305,0.2514,0.263,0.3845,0.6411,0.7172,0.8197,0.968,1.1724,1.2843,1.3101,1.4374,1.5479,1.643,1.7061,1.7971,1.9177,2.0566,2.1506,2.2141,2.3412,2.4001,2.4058,2.3473,2.3309,2.3306,2.2227,2.1898,2.1932,2.1434,2.0911,2.0418,1.9928,1.8323,1.6439,1.5893,1.4585,1.3152,1.2958,1.2997,1.3025,1.2385,1.2101,1.1823,1.1116,0.9974,0.9044,0.9044,0.8106,0.7272,0.7272,0.7272,0.7635,0.8783,0.9489,1.0308,1.1607,1.2344,1.256,1.2044,0.0,1.4083,1.4614,1.5768,1.699,1.8249,1.9111,1.9621,1.9677,2.0093,2.0314,2.0314,1.9909,1.969,1.969,1.969,1.942,1.8867,1.8104,1.7322,1.6604,1.5173,1.447,1.4374,1.3067,1.2246,1.1774,1.1244,1.0725,1.0283,1.0196,0.9922,0.9478,0.9319,0.8675,0.7953,0.8421,0.8193,0.7714,-1.4824,-1.3601,-1.2395,-1.139,-1.0965,-1.0372,-0.937,-0.7923,-0.6625,-0.5595,-0.4515,-0.2688,0.027,0.0269,0.1488,0.5095,0.6474,0.7625,0.8851,0.7057,0.7246,1.0153,1.0604,1.2048,1.4627,1.6145,1.6905,1.6905,1.7622,1.8395,1.9226,1.9702,2.0357,2.1196,2.2241,2.2724,2.2763,2.3325,2.3537,2.342,2.2576,2.2277,2.2252,2.1503,2.1115,2.094,2.0438,1.9939,1.9405,1.8646,1.7666,1.668,1.5847,1.4982,1.4143,1.315,1.2852,1.2832,1.2501,1.2393,1.2295,1.1999,1.1157,1.0375,1.0375,0.9849,0.9386,0.9386,0.9695,1.0171,1.0847,1.1036,1.1359,1.2258,1.2272,0.0,0.0,1.3149,1.3793,1.4773,1.5544,1.6421,1.7531,1.8324,1.8925,1.92,1.9702,1.9965,1.9965,1.9818,1.969,1.969,1.969,1.9196,1.8194,1.7832,1.6969,1.5504,1.483,1.4246,1.3769,1.2918,1.2246,1.1774,1.1244,1.0725,1.0283,1.0283,1.0157,0.9922,0.9597,0.9199,0.8741,0.8578,0.8424,0.831,-1.5768,-1.4071,-1.2406,-1.1648,-1.0965,-1.0092,-0.886,-0.7301,-0.5851,-0.4768,-0.3162,-0.07,0.2863,0.3657,0.5461,0.9252,1.1135,1.2938,1.4943,1.2556,1.2134,1.4432,1.4546,1.5861,1.8688,1.9345,1.9692,1.9757,2.0065,2.063,2.1466,2.1787,2.2169,2.262,2.3202,2.3285,2.2966,2.281,2.2696,2.2553,2.1692,2.1238,2.1037,2.0797,2.0299,1.9763,1.9513,1.9037,1.8352,1.7409,1.6899,1.6494,1.5475,1.5096,1.4675,1.3263,1.2832,1.2871,1.2666,1.2657,1.2559,1.2264,1.1733,1.1316,1.1166,1.1216,1.1366,1.1366,1.1818,1.2299,1.2393,1.2092,1.1976,1.2455,0.0,0.0,0.0,1.2896,1.3247,1.4646,1.5069,1.569,1.6762,1.7518,1.8066,1.8496,1.9132,1.9442,1.9332,1.9566,1.9615,1.9465,1.945,1.8972,1.7921,1.7543,1.6509,1.4868,1.4538,1.4032,1.3357,1.2756,1.2246,1.1774,1.1244,1.0725,1.0283,1.0283,1.0283,1.0244,0.9843,0.9518,0.9243,0.8704,0.852,0.8518,-1.6621,-1.5736,-1.488,-1.3794,-1.3084,-1.1747,-0.9022,-0.8494,-0.696,-0.2973,-0.0107,0.2151,0.3828,0.756,1.0873,1.3205,1.5323,1.7209,1.8789,1.9216,1.9501,1.9662,1.9718,1.9861,2.0151,2.0523,2.0842,2.115,2.2263,2.3022,2.3396,2.3668,2.3695,2.3488,2.3179,2.2883,2.2597,2.215,2.1855,2.1566,2.1066,2.0424,1.9748,1.9788,1.9155,1.8327,1.8803,1.8246,1.722,1.6663,1.5724,1.4677,1.4122,1.3552,1.3065,1.292,1.2881,1.2764,1.208,1.1864,1.1566,1.032,0.9969,0.9762,0.9159,0.951,0.9969,0.9969,1.0218,1.0523,1.0906,1.0824,1.0831,1.1266,0.0,0.0,1.1177,1.1453,1.197,1.2715,1.3644,1.4643,1.5702,1.6764,1.7394,1.7435,1.838,1.8727,1.8263,1.9169,1.9405,1.8792,1.8777,1.8732,1.8627,1.7012,1.6131,1.5966,1.4615,1.3901,1.3835,1.2918,1.2246,1.1774,1.1244,1.0725,1.0283,1.0283,1.0283,1.0283,1.0244,0.9637,0.8798,0.8952,0.8603,0.8017,-1.7873,-1.6827,-1.5075,-1.2158,-1.145,-1.0212,-0.7095,-0.5712,-0.3571,0.0585,0.3997,0.7591,1.1641,1.3578,1.5581,1.8106,1.9633,2.0731,2.1306,2.2122,2.2168,2.1166,2.207,2.2588,2.2588,2.2713,2.2842,2.2979,2.3429,2.3398,2.2922,2.3233,2.2883,2.199,2.2063,2.1904,2.1573,2.1098,2.0847,2.0733,2.0283,1.9919,1.9681,1.9675,1.9244,1.8574,1.8458,1.7933,1.7107,1.6219,1.5596,1.505,1.4086,1.3637,1.3372,1.3017,1.2881,1.2822,1.2559,1.2501,1.2353,1.185,1.1082,1.0466,1.0618,1.0517,1.0351,1.0194,1.0876,1.1322,1.0877,1.0785,1.0946,1.1363,0.0,1.094,1.126,1.1221,1.1476,1.2317,1.3079,1.3971,1.5024,1.613,1.6916,1.7286,1.7987,1.8302,1.8106,1.8167,1.8078,1.7849,1.7125,1.6824,1.7104,1.617,1.537,1.4749,1.4159,1.3589,1.301,1.2354,1.1799,1.1282,1.0802,1.0467,1.0283,1.0283,1.0283,1.0283,1.0283,1.004,0.9616,0.9071,0.8862,0.881,-1.9362,-1.825,-1.6256,-1.2985,-1.0586,-0.7552,-0.304,-0.1367,0.0909,0.5209,0.8695,1.217,1.5865,1.7469,1.9099,2.1115,2.2255,2.2767,2.2576,2.2989,2.2992,2.2448,2.3132,2.3589,2.371,2.34,2.3308,2.3401,2.3158,2.2765,2.2193,2.2324,2.1895,2.0991,2.1085,2.099,2.0764,2.0296,2.0124,2.0054,1.9624,1.9369,1.9207,1.9207,1.8765,1.8145,1.7907,1.7368,1.6659,1.584,1.5454,1.5186,1.4318,1.3956,1.3732,1.3286,1.3065,1.2881,1.2881,1.2881,1.2822,1.2608,1.1832,1.1166,1.1416,1.1221,1.087,1.0672,1.1242,1.1624,1.1142,1.0874,1.0859,1.1332,1.0904,1.0676,1.1116,1.1053,1.1166,1.1799,1.253,1.3385,1.4246,1.5331,1.6153,1.6517,1.7209,1.7742,1.8092,1.7449,1.7037,1.7006,1.5889,1.5316,1.5417,1.5156,1.462,1.3901,1.3735,1.3263,1.2461,1.1993,1.1505,1.0981,1.0495,1.0283,1.0283,1.0283,1.0283,1.0283,1.0283,1.0205,0.998,0.9371,0.9185,0.9167,-2.1064,-2.0167,-1.8905,-1.7244,-1.1086,-0.3926,0.3255,0.4365,0.6078,1.0828,1.3854,1.5325,1.4728,1.8515,2.1274,2.1678,2.2737,2.3143,2.2516,2.1921,2.2296,2.3907,2.3022,2.2678,2.3055,2.2102,2.1774,2.2079,2.1366,2.118,2.1467,2.1149,2.0991,2.0959,2.0516,2.0314,2.028,1.9874,1.969,1.9639,1.9132,1.8574,1.8106,1.8106,1.7422,1.6595,1.7118,1.6574,1.5588,1.5576,1.5186,1.4709,1.4709,1.4283,1.3779,1.3779,1.3372,1.2881,1.2881,1.2881,1.2715,1.1972,1.1805,1.1607,1.0965,1.1023,1.1181,1.1181,1.1048,1.1035,1.1518,1.09,1.042,1.084,1.0972,1.0829,1.0361,1.0687,1.1019,1.1019,1.1921,1.2773,1.3243,1.4259,1.4903,1.4916,1.5906,1.6968,1.8025,1.7061,1.6445,1.6275,1.53,1.4517,1.3901,1.3901,1.3901,1.3901,1.3425,1.2943,1.2473,1.1993,1.1505,1.0981,1.0505,1.0283,1.0283,1.0283,1.0283,1.0283,1.0283,0.9961,0.9572,0.9962,0.9523,0.8801,-2.2979,-2.2348,-1.8205,-0.7037,-0.3326,0.0387,0.7189,1.031,1.2598,1.4584,1.7766,1.9968,2.0253,2.1438,2.2402,2.2848,2.2829,2.2493,2.191,2.1131,2.105,2.1854,2.187,2.1787,2.1628,2.1332,2.1228,2.1336,2.1118,2.0878,2.0668,2.0567,2.0364,2.0085,1.9945,1.9874,1.9839,1.9354,1.9132,1.9095,1.8535,1.8263,1.8106,1.8106,1.7666,1.7076,1.7229,1.6574,1.5484,1.4792,1.4317,1.4003,1.3563,1.3286,1.3152,1.3152,1.3065,1.2881,1.2881,1.2881,1.2832,1.2618,1.1974,1.1465,1.1722,1.1259,1.0705,1.047,1.0695,1.0736,1.0236,1.0211,1.0322,1.0449,1.0518,1.0467,1.0322,1.0428,1.0764,1.1479,1.1524,1.211,1.3705,1.35,1.3739,1.4839,1.5526,1.6068,1.6397,1.5749,1.5364,1.531,1.4236,1.3591,1.3425,1.3425,1.3425,1.3391,1.2931,1.2473,1.1993,1.1468,1.0981,1.0505,1.0361,1.0283,1.0283,1.0283,1.0459,1.0723,1.0723,1.0826,1.0927,1.0696,1.0543,1.042,-1.5607,-1.5078,-1.1909,-0.2435,0.3965,0.9313,1.386,1.6369,1.7834,1.8204,2.0143,2.1561,2.1735,2.1912,2.213,2.2424,2.1953,2.1494,2.1101,2.0601,2.0416,2.0715,2.0975,2.107,2.0991,2.0829,2.0715,2.0715,2.0565,2.033,2.0054,2.0054,1.9929,1.969,1.9479,1.9479,1.9639,1.9132,1.8893,1.8855,1.8341,1.7987,1.7747,1.7544,1.7271,1.6993,1.6993,1.6418,1.5538,1.4911,1.4451,1.4097,1.3752,1.343,1.3238,1.3238,1.3104,1.2842,1.2666,1.2617,1.2578,1.2449,1.1996,1.164,1.1911,1.1303,1.0656,1.0447,1.0567,1.0506,0.992,1.0079,1.0283,1.0283,1.0467,1.0505,1.0322,1.0467,1.0725,1.1142,1.1094,1.1577,1.3046,1.2824,1.3035,1.4184,1.4752,1.5159,1.5422,1.5087,1.4916,1.4916,1.3797,1.3198,1.3198,1.3012,1.2908,1.2908,1.265,1.2138,1.1468,1.1169,1.0753,1.0283,1.0283,1.0283,1.0283,1.0283,1.0527,1.0908,1.0908,1.1172,1.1582,1.1391,1.1279,1.1161,-0.2286,-0.1102,-0.0815,-0.0349,1.082,2.0119,2.1316,2.152,2.1405,2.1116,2.0966,2.0744,2.0286,2.0534,2.0781,2.0926,2.055,2.0314,2.0314,2.028,2.0246,2.0246,2.0246,2.0449,2.0862,2.0465,2.0246,2.0246,1.9874,1.969,1.969,1.969,1.969,1.969,1.9207,1.9207,1.9603,1.9043,1.8817,1.8688,1.8185,1.7666,1.7188,1.668,1.6522,1.6509,1.6459,1.6078,1.5591,1.5405,1.5027,1.455,1.4549,1.4154,1.3732,1.3732,1.3304,1.2734,1.2334,1.2151,1.2061,1.1655,1.1807,1.2002,1.1636,1.1162,1.085,1.085,1.0547,1.0283,1.0283,1.0283,1.0283,1.0283,1.0649,1.0791,1.0361,1.0687,1.0791,1.039,1.0687,1.1169,1.1737,1.221,1.2722,1.3208,1.3823,1.4393,1.494,1.498,1.4966,1.4916,1.3825,1.3266,1.3266,1.2794,1.2543,1.2532,1.246,1.1963,1.1096,1.1092,1.0846,1.043,1.043,1.044,1.0391,1.0352,1.0615,1.1025,1.0986,1.126,1.1773,1.2139,1.1883,1.1393,0.3485,1.0066,1.4422,1.3377,1.6807,1.9815,2.0101,2.0142,2.01,2.0023,1.9245,1.8987,1.9737,1.9104,1.9134,2.0333,2.0348,2.0314,2.0314,2.0,1.9839,1.9839,1.9839,1.9874,1.998,1.9874,1.9839,1.9839,1.9747,1.969,1.969,1.969,1.969,1.969,1.9566,1.9369,1.9043,1.8496,1.8027,1.7585,1.7076,1.6795,1.668,1.6552,1.6522,1.6459,1.6032,1.5504,1.4862,1.3906,1.3493,1.3422,1.3318,1.32,1.3113,1.3113,1.2722,1.2353,1.2209,1.1973,1.1602,1.1162,1.1123,1.1172,1.1074,1.0723,1.042,1.042,1.0342,1.0283,1.0283,1.0283,1.0283,1.0283,1.04,1.0428,1.0322,1.04,1.0534,1.0829,1.0611,1.0802,1.17,1.221,1.2577,1.2739,1.399,1.4786,1.491,1.5302,1.5316,1.4928,1.4203,1.3823,1.3823,1.3185,1.2901,1.2941,1.2219,1.1903,1.1996,1.1682,1.144,1.1312,1.1358,1.1379,1.1302,1.0918,1.124,1.1914,1.1553,1.1949,1.2655,1.2705,1.2638,1.2541,1.1221,1.6011,1.9441,1.8644,1.9177,1.9522,1.8945,1.9339,1.95,1.8962,1.8835,1.9051,1.9639,1.9332,1.9417,2.023,2.0124,2.0,2.0,1.9818,1.969,1.969,1.969,1.9566,1.9332,1.9566,1.9566,1.9332,1.9566,1.9566,1.9332,1.9566,1.969,1.9675,1.8885,1.8557,1.8454,1.7398,1.6953,1.6903,1.6632,1.6523,1.6522,1.6522,1.6522,1.6471,1.6183,1.552,1.4561,1.3384,1.3016,1.2973,1.2899,1.2744,1.2578,1.2578,1.2412,1.2141,1.1973,1.1738,1.1498,1.1016,1.0762,1.0615,1.0615,1.0439,1.0283,1.0283,1.0283,1.0283,1.0283,1.0283,1.0283,1.0283,1.0283,1.0283,1.0283,1.0283,1.039,1.0649,1.0467,1.0582,1.1356,1.2087,1.2574,1.2607,1.4074,1.4974,1.4974,1.5408,1.5433,1.4866,1.4569,1.4277,1.3997,1.3668,1.3645,1.3898,1.2585,1.2121,1.2383,1.1859,1.1636,1.1587,1.1659,1.1646,1.1587,1.1351,1.1621,1.2161,1.1973,1.2285,1.2881,1.2881,1.2881,1.2881,1.7217,1.8238,1.9364,1.9168,1.9427,1.9391,1.8412,1.9089,1.9339,1.8296,1.8797,1.9354,1.953,1.9949,2.0177,2.0177,1.9909,1.969,1.969,1.969,1.969,1.969,1.969,1.9479,1.9043,1.9479,1.9442,1.8893,1.9442,1.9442,1.8893,1.9442,1.9579,1.9337,1.8215,1.7768,1.7805,1.6505,1.6157,1.6454,1.6376,1.6406,1.6522,1.6522,1.6522,1.6509,1.6409,1.57,1.4699,1.3661,1.3309,1.3334,1.3104,1.2711,1.2309,1.2227,1.2132,1.2021,1.1572,1.1489,1.1381,1.0908,1.0537,1.0283,1.0283,1.0283,1.0283,1.0283,1.0283,1.0283,1.0283,1.0283,1.0283,1.0283,1.0283,1.0283,1.0283,1.0283,1.0283,1.0283,1.0459,1.076,1.121,1.2141,1.2788,1.2986,1.4217,1.5007,1.5132,1.548,1.545,1.4977,1.4886,1.4703,1.4286,1.4222,1.4393,1.4756,1.3281,1.2624,1.2721,1.2128,1.1841,1.1822,1.1832,1.1841,1.1822,1.1753,1.1934,1.2287,1.2209,1.25,1.2881,1.2881,1.2881,1.2881,1.5186,1.6731,1.7907,1.6935,1.8398,1.9639,1.95,1.9603,1.9479,1.8841,1.8037,1.7918,1.8893,1.9464,1.9782,1.9782,1.9711,1.969,1.969,1.969,1.969,1.969,1.969,1.969,1.9603,1.9639,1.9442,1.8893,1.9442,1.9442,1.8893,1.9442,1.9146,1.8173,1.903,1.8496,1.7061,1.7074,1.6786,1.6297,1.5964,1.6103,1.6522,1.6522,1.6522,1.6459,1.5969,1.5711,1.545,1.4778,1.4868,1.5039,1.4003,1.3372,1.2861,1.2355,1.1953,1.1596,1.1113,1.0996,1.0898,1.0469,1.0322,1.0283,1.0283,1.0283,1.0283,1.0283,1.0283,1.0283,1.0283,1.0283,1.0283,1.0283,1.0283,1.0283,1.0283,1.0283,1.0283,1.0283,1.1072,1.1805,1.2324,1.2838,1.3545,1.4589,1.4767,1.5061,1.557,1.5599,1.5593,1.5583,1.5022,1.4944,1.5385,1.49,1.4677,1.4699,1.3936,1.3636,1.3615,1.3045,1.2777,1.2724,1.2782,1.2787,1.2676,1.2295,1.2402,1.2754,1.2383,1.25,1.2881,1.2881,1.2881,1.2881,1.6464,1.781,1.8707,1.7877,1.8569,1.9043,1.8401,1.8826,1.9043,1.8478,1.8517,1.866,1.8893,1.9132,1.9369,1.969,1.969,1.9566,1.9281,1.953,1.9566,1.9281,1.953,1.9566,1.9244,1.9244,1.9132,1.8893,1.9442,1.9281,1.8458,1.9332,1.9258,1.8475,1.8403,1.7715,1.6647,1.6467,1.6228,1.6004,1.6111,1.6296,1.6522,1.6522,1.6522,1.6398,1.548,1.5124,1.5005,1.408,1.39,1.4014,1.3467,1.2973,1.2518,1.2273,1.209,1.1895,1.1699,1.1465,1.123,1.1087,1.0675,1.0283,1.0283,1.0283,1.0283,1.0283,1.0283,1.0283,1.0283,1.0283,1.0283,1.0283,1.0283,1.0283,1.0283,1.0283,1.0371,1.0605,1.1035,1.1481,1.1985,1.3061,1.3777,1.3936,1.4743,1.5223,1.5136,1.5425,1.5437,1.5136,1.5492,1.5688,1.5588,1.5688,1.5522,1.5186,1.4903,1.4457,1.3768,1.3216,1.2924,1.292,1.2942,1.2924,1.2861,1.2676,1.2705,1.2861,1.2666,1.2715,1.2881,1.2881,1.2881,1.2881]}]]